[[[{"header":{"parameterUnit":"kt","parameterCategory":2,"dx":1,"dy":1,"la1":29.285339999999998,"la2":30.599998999999997,"lo1":-89.70041500000002,"lo2":-87.6738589999976,"nx":112,"ny":82,"refTime":"2022-10-26T06:00:00:Z","depth":0,"parameterNumber":1,"parameterNumberName":"U-component_of_WINDS"},"data":[4.3036,4.3036,0.0,4.0103,3.9665,3.8583,3.4352,3.3164,3.2681,3.203,3.1008,3.0593,3.1196,2.96,2.7968,2.7537,2.7492,2.7388,0.0,2.6146,2.5701,2.7175,2.7109,2.8112,3.0756,3.0564,0.0,0.0,0.0,0.0,0.0,0.0,4.5276,4.4903,4.6772,4.8893,5.1181,5.1311,5.1343,5.1291,5.1216,5.1474,5.0769,3.7225,3.1132,3.1085,3.1085,3.1116,3.1195,3.1195,3.1116,3.082,2.9518,2.9101,2.9111,2.9095,2.9127,2.8575,2.5488,2.4287,2.4301,2.4301,2.4301,2.4301,2.4301,2.4301,2.4366,2.4975,2.4617,2.4525,2.4508,2.4278,2.4612,2.5658,2.5656,2.5949,2.6069,2.5922,2.6054,2.6054,2.6054,2.6054,2.6054,2.6054,2.6054,2.6054,2.6054,2.6146,2.6122,2.724,2.7495,2.6122,2.6203,2.5616,2.4278,2.4208,2.4301,2.4301,2.4301,2.3739,2.2876,2.2547,2.258,2.26,2.2586,2.2586,2.2586,2.2586,2.2586,2.2586,2.2586,2.2679,0.0,0.0,3.9232,3.6889,3.6322,3.5026,3.0283,2.9351,2.9371,2.8775,2.8645,2.8817,2.9409,2.8437,2.7441,2.7425,2.7424,2.7469,0.0,2.6018,2.5644,2.7294,2.8113,2.9526,3.1992,0.0,0.0,0.0,0.0,0.0,0.0,4.481,4.7374,4.5949,4.784,4.9248,4.9526,5.0777,5.0778,4.9776,5.0699,4.8932,4.4134,3.513,3.099,3.1195,3.1195,3.1195,3.1179,3.1069,3.1005,3.1114,2.9703,2.9297,2.9095,2.9095,2.9111,2.8828,2.5475,2.4274,2.4301,2.4301,2.4301,2.4301,2.4301,2.4301,2.434,2.4855,2.4761,2.434,2.4234,2.4351,2.4456,2.5831,2.5901,2.5963,2.6056,2.5909,2.6054,2.6054,2.6054,2.6054,2.6054,2.6054,2.6054,2.6054,2.6054,2.612,2.5992,2.6834,2.6753,2.6186,2.6083,2.5669,2.5065,2.4577,2.4301,2.4301,2.4301,2.4037,2.3166,2.285,2.258,2.26,2.2586,2.2586,2.2586,2.2586,2.2586,2.2586,2.2679,2.2824,3.5769,3.4099,3.3467,3.3216,3.0926,2.8515,2.8575,2.7954,2.7425,2.7425,2.7378,2.7372,2.7372,2.7372,2.738,2.7389,2.7411,0.0,0.0,2.7464,2.7364,2.7438,2.9298,0.0,0.0,0.0,0.0,0.0,0.0,0.0,4.2785,4.6184,4.8827,5.1006,5.126,4.9501,4.6317,4.9499,4.9542,4.6412,4.9456,4.3867,3.0879,3.0879,3.099,3.1195,3.1179,3.1179,3.1148,3.1116,3.1094,3.0756,2.9758,2.9094,2.9095,2.9095,2.9095,2.8781,2.5447,2.4261,2.4301,2.4301,2.4301,2.4301,2.4301,2.4301,2.4301,2.4301,2.4301,2.4301,2.4301,2.4208,2.4508,2.5766,2.605,2.6016,2.5988,2.6054,2.6054,2.6054,2.6054,2.6054,2.6054,2.6054,2.6054,2.6054,2.6054,2.6041,2.6041,2.6041,2.5922,2.5963,2.601,2.6036,2.6056,2.5104,2.4314,2.4301,2.4301,2.4334,2.4368,2.314,2.2567,2.26,2.2586,2.2586,2.2586,2.2586,2.2586,2.2586,2.2877,2.2995,3.2814,3.3469,3.3226,2.9914,2.8305,2.7712,2.7788,2.7615,2.7464,2.7337,2.7476,0.0,0.0,0.0,2.745,2.7352,0.0,2.5443,2.7187,2.7387,2.7488,2.7689,2.9564,0.0,0.0,0.0,0.0,0.0,0.0,3.9271,4.31,4.4128,4.5151,4.6623,4.7423,4.7319,4.6227,4.7035,4.7894,4.8186,4.5232,3.8676,2.9278,2.8078,2.8818,3.1179,3.1244,3.1132,3.1101,3.1094,3.0415,2.9758,2.9344,2.9094,2.9095,2.9095,2.9111,2.9143,2.8245,2.6417,2.4287,2.4301,2.4301,2.4301,2.4301,2.4301,2.4301,2.4301,2.4301,2.4301,2.4301,2.4208,2.4508,2.4794,2.5408,2.6016,2.5988,2.6054,2.6054,2.6054,2.6054,2.6054,2.6054,2.6054,2.6054,2.6054,2.6054,2.5975,2.6083,2.5393,2.5036,2.5936,2.5355,2.4833,2.4755,2.4482,2.4221,2.4314,2.4414,2.4442,2.4354,2.3233,2.2659,2.2586,2.2586,2.2586,2.2586,2.2586,2.2586,2.2586,2.2877,2.3114,2.993,3.0776,3.0722,2.7557,2.6352,2.5921,2.587,2.67,2.7416,2.7432,0.0,0.0,0.0,0.0,0.0,0.0,2.7063,2.7227,2.8708,2.8719,2.9834,3.2621,0.0,0.0,0.0,0.0,0.0,0.0,4.4763,4.2046,4.3257,4.3385,4.4006,4.4975,4.5731,4.6271,4.6224,4.6177,4.5696,4.501,4.0624,3.4444,2.7426,2.7844,2.9138,3.0958,3.1085,3.0909,3.0422,3.0399,2.9822,2.9281,2.914,2.9269,2.9095,2.9095,2.9111,2.9143,2.919,2.7031,2.4261,2.4287,2.4301,2.4301,2.4301,2.4301,2.4301,2.4301,2.4301,2.4301,2.4301,2.4432,2.4312,2.4303,2.5224,2.6158,2.6123,2.5962,2.6054,2.6054,2.6054,2.6054,2.6054,2.6054,2.6054,2.6054,2.6054,2.5909,2.6131,2.4882,2.4541,2.5276,2.5105,2.469,2.4368,2.4417,2.4182,2.4314,2.4156,2.4241,2.4253,2.3219,2.258,2.2586,2.2586,2.2586,2.2586,2.2586,2.2586,2.26,2.3008,2.3285,2.7652,2.7175,2.6831,2.5684,2.4712,2.3838,2.385,0.0,2.7335,2.7492,0.0,2.7552,2.7684,0.0,0.0,2.7785,2.943,3.1092,3.2187,3.1602,3.3212,3.8969,4.1859,0.0,0.0,4.2112,4.3338,4.3206,4.342,4.3288,4.3301,4.3334,4.4098,4.5117,4.5825,4.6341,4.6341,4.6295,4.4113,3.9209,3.6375,3.1878,2.6256,2.9183,3.064,3.0989,3.0579,3.0047,2.9102,2.9085,2.9234,2.9219,2.9206,2.9095,2.9095,2.9095,2.9095,2.9111,2.919,2.7031,2.4248,2.4287,2.4301,2.4301,2.4301,2.4301,2.4301,2.4301,2.4301,2.4301,2.4301,2.4301,2.438,2.4404,2.4999,2.5929,2.5923,2.619,2.6054,2.6054,2.6054,2.6054,2.6054,2.6054,2.6054,2.6054,2.6054,2.6163,2.5915,2.5081,2.4376,2.4175,2.5348,2.5653,2.443,2.4169,2.4301,2.4301,2.4301,2.4169,2.4161,2.3036,2.2606,2.2586,2.2586,2.2586,2.2586,2.2586,2.2586,2.26,2.3467,2.3734,2.7518,2.5974,2.4516,2.4355,2.4107,2.3907,0.0,0.0,0.0,2.737,2.7434,2.7961,2.9753,3.0048,3.0039,3.0091,3.0533,3.3294,4.0874,3.7018,0.0,3.5329,4.0715,0.0,4.0533,4.2235,4.3229,4.342,4.3464,4.3408,4.344,4.3839,4.4445,4.5094,4.5802,4.6341,4.6341,4.6963,4.3801,3.6858,3.6802,3.3615,2.6993,2.6734,2.7533,2.9053,2.7866,2.8215,2.907,2.9031,2.919,2.9174,2.9111,2.9095,2.9095,2.9095,2.9111,2.9159,2.919,2.7046,2.4261,2.4287,2.4301,2.4301,2.4301,2.4301,2.4301,2.4301,2.4301,2.4301,2.4301,2.4301,2.4432,2.4342,2.4509,2.5003,2.5843,2.6015,2.6054,2.6054,2.6054,2.6054,2.6054,2.6054,2.6054,2.6054,2.6054,2.6163,2.5915,2.4924,2.4185,2.4162,2.5462,2.5434,2.4417,2.4169,2.4301,2.4301,2.4301,2.4374,2.4159,2.3127,2.2529,2.26,2.2586,2.2586,2.2586,2.2586,2.2586,2.26,2.318,2.3734,2.3951,2.3978,2.389,2.384,2.3845,0.0,0.0,2.6599,2.7399,2.7479,3.1978,3.4889,3.137,3.0758,3.0719,3.0649,3.3587,3.7976,4.3645,4.2523,4.1127,4.1161,4.2273,0.0,4.1975,4.2566,4.3087,4.3848,4.3737,4.37,4.37,4.4445,4.4865,4.5192,4.5943,4.5407,4.3801,4.4113,4.0938,3.3649,3.462,3.231,2.7107,2.6928,2.732,2.8559,2.7909,2.7975,2.9031,2.9159,2.9095,2.9095,2.9095,2.9095,2.9095,2.9095,2.9127,2.8859,2.7331,2.5788,2.4274,2.4301,2.4301,2.4301,2.4301,2.4301,2.4301,2.4301,2.4301,2.4301,2.4301,2.4301,2.438,2.4364,2.4854,2.5402,2.5856,2.6056,2.6203,2.6028,2.6054,2.6054,2.6054,2.6054,2.6054,2.6054,2.5922,2.6003,2.5901,2.5065,2.4278,2.4443,2.4788,2.5037,2.4404,2.4169,2.4301,2.4301,2.4301,2.4348,2.4368,2.314,2.258,2.26,2.2586,2.2586,2.2586,2.2586,2.2586,2.26,2.318,2.3734,2.0536,2.1932,2.3423,2.38,2.3862,0.0,2.6868,2.8857,2.9757,2.8339,3.6929,4.2102,3.4193,3.3025,3.3366,3.3337,3.8137,4.247,4.4854,4.6686,4.7711,4.7905,4.4375,4.2444,4.3324,4.3015,4.315,4.3972,4.4189,4.4445,4.4445,4.4981,4.5591,4.5591,4.6083,4.4738,4.1252,4.1252,3.8085,3.2057,3.2074,3.064,2.749,2.7448,2.7731,2.8095,2.7716,2.8142,2.9095,2.9095,2.8797,2.8797,2.8797,2.8797,2.8482,2.8184,2.8214,2.793,2.5161,2.4261,2.4274,2.4301,2.4301,2.4301,2.4301,2.4301,2.4301,2.4301,2.4301,2.4301,2.4301,2.4301,2.4314,2.4366,2.4895,2.579,2.5834,2.5776,2.6003,2.5922,2.6015,2.6054,2.6054,2.6054,2.6054,2.6054,2.6123,2.5829,2.5861,2.4933,2.4404,2.4351,2.4446,2.4393,2.4325,2.4432,2.4301,2.4301,2.4301,2.4348,2.4368,2.314,2.258,2.26,2.2586,2.2586,2.2586,2.2586,2.2586,2.26,2.3413,2.3693,2.0552,2.0757,2.1494,2.3414,2.3907,0.0,2.6829,3.368,3.7826,3.1653,3.7902,4.3539,4.0366,4.1638,4.3065,4.291,4.3696,4.4961,4.7136,4.7638,4.7956,4.7914,4.519,4.3157,4.344,4.3257,4.3265,4.3381,4.4189,4.4793,4.4793,4.5309,4.5591,4.5591,4.6083,4.4738,4.1252,4.1252,3.9345,3.5572,3.2711,3.0943,3.0297,2.6908,2.6305,2.718,2.6287,2.7031,2.9095,2.8513,2.8214,2.8214,2.7915,2.7002,2.6088,2.5147,2.4861,2.4875,2.4274,2.4274,2.4301,2.4301,2.4301,2.4301,2.4301,2.4301,2.4301,2.4301,2.4301,2.4301,2.4301,2.4301,2.4366,2.4312,2.4404,2.4573,2.4464,2.5263,2.5949,2.5976,2.619,2.6054,2.6054,2.6054,2.6054,2.6054,2.6123,2.5829,2.4586,2.4303,2.4325,2.438,2.4327,2.4314,2.4353,2.4327,2.4301,2.4301,2.4301,2.4348,2.4368,2.314,2.258,2.26,2.2586,2.2586,2.2586,2.2586,2.2586,2.26,2.378,2.4081,2.0221,2.0657,2.1186,2.3382,0.0,0.0,2.8731,3.2309,3.5336,3.6575,3.9728,4.2519,4.2951,4.3956,4.4887,4.6259,4.6513,4.678,4.7705,4.7941,4.7472,4.6526,4.4693,4.3291,4.335,4.3583,4.3956,4.4562,4.5121,4.5379,4.5684,4.402,4.2869,4.2869,4.1168,3.8735,3.5219,3.7137,3.5554,3.0173,3.0609,2.9714,2.7534,2.5685,2.5388,2.6301,2.5571,2.6702,2.8513,2.7016,2.6702,2.6702,2.7002,2.6702,2.5788,2.5461,2.4861,2.4274,2.4274,2.4287,2.4301,2.4301,2.4301,2.4301,2.4301,2.4301,2.4301,2.4301,2.4301,2.4301,2.4301,2.4301,2.4327,2.4156,2.4182,2.4286,2.4368,2.5237,2.6118,2.6123,2.5962,2.6054,2.6054,2.6054,2.6054,2.6054,2.5989,2.5642,2.4561,2.4149,2.4432,2.4314,2.4301,2.4301,2.4301,2.4301,2.4301,2.4301,2.4301,2.4348,2.4368,2.314,2.258,2.26,2.2586,2.2586,2.2586,2.2586,2.2586,2.26,2.3753,2.434,1.9947,0.0,0.0,0.0,0.0,0.0,3.0241,3.1388,3.3991,4.0313,4.1743,4.2715,4.4668,4.5046,4.5536,4.7506,4.7705,4.7602,4.7602,4.7365,4.6789,4.5296,4.421,4.3549,4.3653,4.4277,4.4769,0.0,4.5731,4.5966,4.6341,4.3801,4.2193,4.1252,3.7788,3.4602,3.1116,3.4602,3.3348,2.7315,2.9535,2.9202,2.6712,2.5188,2.4895,2.5502,2.5202,2.5802,2.7316,2.6102,2.5502,2.5788,2.6102,2.5802,2.5488,2.5488,2.4888,2.4274,2.4274,2.4287,2.4301,2.4301,2.4301,2.4301,2.4301,2.4301,2.4301,2.4301,2.4301,2.4301,2.4301,2.4301,2.4301,2.4301,2.4301,2.4406,2.4162,2.5295,2.6173,2.6043,2.6203,2.5962,2.6041,2.6054,2.6054,2.6054,2.5896,2.5522,2.4548,2.4351,2.4301,2.4301,2.4301,2.4301,2.4301,2.4301,2.4301,2.4301,2.4301,2.4348,2.4368,2.314,2.258,2.26,2.2586,2.2586,2.2586,2.2586,2.2586,2.2586,2.3375,2.3672,0.0,0.0,0.0,2.3443,2.5623,2.7968,3.0299,3.3282,3.7081,4.176,4.3561,4.4887,4.5871,4.6317,4.6538,4.7655,4.7863,4.7602,4.6739,4.6162,4.5296,4.4718,4.43,4.4019,4.4019,4.4957,4.5567,4.5591,4.6036,4.6341,4.6341,4.603,4.476,4.1252,3.7788,3.4602,3.1116,3.4602,3.4302,3.0797,3.0785,3.0437,3.0074,2.639,2.4895,2.5502,2.4601,2.4902,2.5502,2.5502,2.5502,2.5502,2.5502,2.4902,2.4301,2.4301,2.4301,2.4301,2.4301,2.4301,2.4301,2.4301,2.4301,2.4301,2.4301,2.4301,2.4301,2.4301,2.4301,2.4301,2.4301,2.4301,2.4301,2.4301,2.4301,2.4156,2.4406,2.5282,2.6111,2.6118,2.6077,2.6043,2.6001,2.6054,2.6054,2.6054,2.5896,2.5522,2.4548,2.4351,2.4301,2.4301,2.4301,2.4301,2.4301,2.4301,2.4301,2.4301,2.4301,2.4348,2.4368,2.314,2.258,2.26,2.2586,2.2586,2.2586,2.2586,2.2586,2.2586,2.26,2.2606,2.0024,2.1684,2.3312,2.5576,3.2659,3.8501,3.7765,3.8502,4.026,4.3422,4.4222,4.4748,4.4954,4.5949,4.7006,4.7759,4.7314,4.7027,4.6739,4.5585,4.4718,4.4428,4.43,4.4159,4.4511,4.5168,4.5731,4.606,4.6248,0.0,4.3153,4.2841,4.031,3.4602,3.3331,3.1116,2.7636,3.1116,3.1116,2.7622,2.9607,2.9285,2.7023,2.528,2.4393,2.4601,2.4301,2.4601,2.4601,2.4601,2.4601,2.4601,2.4601,2.4601,2.4301,2.4301,2.4301,2.4301,2.4301,2.4301,2.4301,2.4301,2.4301,2.4301,2.4301,2.4301,2.4301,2.4301,2.4301,2.4301,2.4301,2.4301,2.4301,2.4301,2.4301,2.4353,2.4247,2.467,2.4894,2.4728,2.554,2.6029,2.6001,2.6054,2.6054,2.6054,2.5896,2.5522,2.4548,2.4351,2.4301,2.4301,2.4301,2.4301,2.4301,2.4301,2.4301,2.4301,2.4301,2.4348,2.4368,2.314,2.258,2.26,2.2586,2.2586,2.2586,2.2586,2.2586,2.2586,2.2586,2.2692,2.1161,2.3113,2.5936,3.1502,3.803,4.2782,4.1443,4.1563,4.2351,4.3859,4.4361,4.4736,4.5216,4.6211,4.7473,4.7837,4.7314,4.6739,4.6451,4.5585,4.4718,4.4138,4.4172,4.4119,4.3218,4.357,4.3468,4.2819,4.3801,4.3488,4.1252,4.1252,3.9345,3.492,3.2376,3.0157,2.7958,3.0173,2.9532,2.6041,2.8874,2.8574,2.5171,2.4577,2.4301,2.4301,2.4301,2.4301,2.4301,2.4301,2.4301,2.4301,2.4301,2.4301,2.4301,2.4301,2.4301,2.4301,2.4301,2.4301,2.4301,2.4301,2.4301,2.4301,2.4301,2.4301,2.4301,2.4301,2.4301,2.4301,2.4301,2.4301,2.4301,2.4301,2.4301,2.4301,2.4301,2.4446,2.4404,2.4249,2.5382,2.6199,2.6163,2.5975,2.6054,2.6054,2.5896,2.5522,2.4548,2.4351,2.4301,2.4301,2.4301,2.4301,2.4301,2.4301,2.4301,2.4301,2.4301,2.4348,2.4368,2.314,2.258,2.26,2.2586,2.2586,2.2586,2.2586,2.2586,2.2586,2.2586,2.2639,2.3336,2.522,2.912,3.989,4.184,4.1025,4.0985,4.2309,4.3578,4.3604,4.4565,4.5577,4.6149,4.7136,4.7863,4.7889,4.7889,4.7314,4.556,4.556,4.5007,4.3558,4.4136,4.3542,3.9892,4.0687,3.964,3.6523,3.903,4.0938,4.0603,4.0603,4.0603,4.0289,3.4285,3.0797,3.0797,3.0797,2.9212,2.6041,2.8874,2.8264,2.5171,2.4577,2.4301,2.4301,2.4301,2.4301,2.4301,2.4301,2.4301,2.4301,2.4301,2.4301,2.4301,2.4301,2.4301,2.4301,2.4301,2.4301,2.4301,2.4301,2.4301,2.4301,2.4301,2.4301,2.4301,2.4301,2.4301,2.4301,2.4301,2.4301,2.4301,2.4301,2.4301,2.4301,2.4301,2.4301,2.4393,2.4377,2.5295,2.5901,2.5883,2.5843,2.6028,2.6041,2.5896,2.5522,2.4548,2.4351,2.4301,2.4301,2.4301,2.4301,2.4301,2.4301,2.4301,2.4301,2.4301,2.4348,2.4368,2.314,2.258,2.26,2.2586,2.2586,2.2586,2.2586,2.2586,2.2586,2.2586,2.2437,2.3323,3.0279,3.782,4.0798,4.1267,4.1259,4.2003,4.2878,4.3708,4.4123,4.5162,4.6149,4.672,4.7058,4.7395,4.7811,4.7314,4.6739,4.5585,4.5007,4.4428,4.3558,4.3831,4.3154,3.9871,4.0086,3.9318,3.6486,3.6839,3.6188,3.3967,3.3649,3.2376,2.9853,2.8265,2.7315,2.7315,2.7315,2.7007,2.6041,2.6405,2.6118,2.5171,2.4577,2.4301,2.4301,2.4301,2.4301,2.4301,2.4301,2.4301,2.4301,2.4301,2.4301,2.4301,2.4301,2.4301,2.4301,2.4301,2.4301,2.4301,2.4301,2.4301,2.4301,2.4301,2.4301,2.4301,2.4301,2.4301,2.4301,2.4301,2.4301,2.4301,2.4301,2.4301,2.4301,2.4301,2.4301,2.4393,2.4377,2.4495,2.4703,2.4869,2.468,2.5126,2.6015,2.5896,2.5522,2.4548,2.4351,2.4301,2.4301,2.4301,2.4301,2.4301,2.4301,2.4301,2.4301,2.4301,2.4348,2.4368,2.314,2.258,2.26,2.2586,2.2586,2.2586,2.2586,2.2586,2.2586,2.2586,2.2626,2.2894,3.116,3.9367,4.0666,4.1498,4.1875,4.2721,4.337,4.4123,4.472,4.5005,4.5243,4.5801,4.6389,4.6955,4.7263,4.7314,4.7027,4.6137,4.5296,4.4718,4.3848,4.2809,4.0885,3.7703,3.6597,3.4826,3.2057,3.303,3.3013,3.1116,3.1116,3.0797,3.0493,2.7636,2.6685,2.8265,2.6685,2.6054,2.6041,2.5474,2.5131,2.4986,2.4512,2.4301,2.4301,2.4301,2.4301,2.4301,2.4301,2.4301,2.4301,2.4301,2.4301,2.4301,2.4301,2.4301,2.4301,2.4301,2.4301,2.4301,2.4301,2.4301,2.4301,2.4301,2.4301,2.4301,2.4301,2.4301,2.4301,2.4301,2.4301,2.4301,2.4301,2.4301,2.4301,2.4301,2.4301,2.4353,2.4208,2.4338,2.4252,2.4376,2.4225,2.4718,2.6001,2.5896,2.5834,2.5197,2.467,2.4301,2.4301,2.4301,2.4301,2.4301,2.4301,2.4301,2.4301,2.4301,2.4348,2.4368,2.314,2.258,2.26,2.2586,2.2586,2.2586,2.2586,2.2586,2.2586,2.2586,2.2586,2.2957,2.987,3.7371,4.0305,4.189,4.2747,4.2747,4.363,4.4616,4.4943,4.4635,4.4052,4.4646,4.5712,4.635,4.6425,4.7027,4.7289,4.635,4.5223,4.438,4.3729,4.0615,3.7468,3.4255,3.1881,2.9444,2.6283,2.8877,3.0477,3.0477,3.0477,3.1755,3.462,2.9227,2.7315,3.0477,2.7636,2.6054,2.6041,2.55,2.5078,2.4736,2.4432,2.4301,2.4301,2.4301,2.4301,2.4301,2.4301,2.4301,2.4301,2.4301,2.4301,2.4301,2.4301,2.4301,2.4301,2.4301,2.4301,2.4301,2.4301,2.4301,2.4301,2.4301,2.4301,2.4301,2.4301,2.4301,2.4301,2.4301,2.4301,2.4301,2.4301,2.4301,2.4301,2.4301,2.4301,2.4301,2.4301,2.4195,2.4456,2.4393,2.4363,2.4668,2.5949,2.6185,2.6132,2.578,2.4962,2.4301,2.4301,2.4301,2.4301,2.4301,2.4301,2.4301,2.4301,2.4301,2.4348,2.4368,2.314,2.258,2.26,2.2586,2.2586,2.2586,2.2586,2.2586,2.2586,2.2586,2.2586,2.5917,3.147,3.6877,4.0202,4.189,4.2747,4.2747,4.3081,4.3788,4.4128,4.4331,4.4135,4.4596,4.4844,4.5066,4.5511,4.5874,4.5412,4.4421,4.2073,4.0112,3.9163,3.6589,3.3741,3.0848,3.0287,2.8784,2.5976,2.655,2.7007,2.7007,2.7007,2.7329,2.7636,2.6685,2.6363,2.7007,2.6363,2.6054,2.6041,2.5698,2.5263,2.4736,2.4432,2.4301,2.4301,2.4301,2.4301,2.4301,2.4301,2.4301,2.4301,2.4301,2.4301,2.4301,2.4301,2.4301,2.4301,2.4301,2.4301,2.4301,2.4301,2.4301,2.4301,2.4301,2.4301,2.4301,2.4301,2.4301,2.4301,2.4301,2.4301,2.4301,2.4301,2.4301,2.4301,2.4301,2.4301,2.4301,2.4301,2.434,2.4393,2.4446,2.4586,2.5029,2.5963,2.605,2.5739,2.4854,2.4512,2.4301,2.4301,2.4301,2.4301,2.4301,2.4301,2.4301,2.4301,2.4301,2.4348,2.4368,2.314,2.258,2.26,2.2586,2.2586,2.2586,2.2586,2.2586,2.2586,2.2586,2.2586,2.7862,3.2269,3.587,3.9257,4.1432,4.2747,4.2747,4.3342,4.3303,4.1097,4.2174,4.3282,4.2404,4.3578,4.4617,4.4592,4.3684,4.2611,4.1835,3.8797,3.6627,3.607,3.3049,3.0767,2.9537,2.8065,2.6502,2.5566,2.5606,2.5738,2.6028,2.6054,2.6054,2.6054,2.6054,2.6054,2.6054,2.6054,2.6054,2.6041,2.5606,2.525,2.496,2.4512,2.4301,2.4301,2.4301,2.4301,2.4301,2.4301,2.4301,2.4301,2.4301,2.4301,2.4301,2.4301,2.4301,2.4301,2.4301,2.4301,2.4301,2.4301,2.4301,2.4301,2.4301,2.4301,2.4301,2.4301,2.4301,2.4301,2.4301,2.4301,2.4301,2.4301,2.4301,2.4301,2.4301,2.4301,2.4301,2.4301,2.4301,2.4301,2.4301,2.467,2.5105,2.5856,2.5696,2.5455,2.4999,2.4577,2.4301,2.4301,2.4301,2.4301,2.4301,2.4301,2.4301,2.4301,2.4301,2.4348,2.4368,2.3444,2.288,2.26,2.2586,2.2586,2.2586,2.2586,2.2586,2.2586,2.2586,2.2586,2.802,3.1893,3.4687,3.7559,4.009,4.1922,4.1922,4.2723,4.2334,3.8515,4.0212,4.2008,4.0747,4.2326,4.3684,4.3277,4.1499,3.9609,3.9014,3.5351,3.2928,3.315,2.9823,2.7771,2.8306,2.5858,2.4591,2.5276,2.5303,2.5474,2.5936,2.6015,2.6054,2.6054,2.6054,2.6054,2.6054,2.6054,2.6054,2.6041,2.5474,2.5197,2.5171,2.4643,2.4366,2.4301,2.4301,2.4301,2.4301,2.4301,2.4301,2.4301,2.4301,2.4301,2.4301,2.4301,2.4301,2.4301,2.4301,2.4301,2.4301,2.4301,2.4301,2.4301,2.4301,2.4301,2.4301,2.4301,2.4301,2.4301,2.4301,2.4301,2.4301,2.4301,2.4301,2.4301,2.4301,2.4301,2.4301,2.4301,2.4301,2.4301,2.4301,2.4551,2.492,2.5434,2.5329,2.5171,2.5415,2.463,2.4301,2.4301,2.4301,2.4301,2.4301,2.4301,2.4301,2.4301,2.4301,2.4348,2.4368,2.3747,2.318,2.26,2.2586,2.2586,2.2586,2.2586,2.2586,2.2586,2.2586,2.2586,2.5611,2.9467,3.3883,3.5177,3.7117,3.8684,3.8684,3.9157,3.9655,3.8898,4.0115,4.1242,4.1078,4.1414,4.2164,4.2117,3.9871,3.8076,3.6926,3.2065,2.8484,2.8194,2.5601,2.4077,2.4145,2.4307,2.434,2.4419,2.5131,2.5593,2.5645,2.5896,2.6054,2.6054,2.6054,2.6054,2.6054,2.6054,2.6054,2.6041,2.5474,2.5197,2.5184,2.4854,2.4551,2.4301,2.4301,2.4301,2.4301,2.4301,2.4301,2.4301,2.4301,2.4301,2.4301,2.4301,2.4301,2.4301,2.4301,2.4301,2.4301,2.4301,2.4301,2.4301,2.4301,2.4301,2.4301,2.4301,2.4301,2.4301,2.4301,2.4301,2.4301,2.4301,2.4301,2.4301,2.4301,2.4301,2.4301,2.4301,2.4301,2.4301,2.4301,2.4551,2.4854,2.5184,2.5522,2.5415,2.4828,2.4498,2.4301,2.4301,2.4301,2.4301,2.4301,2.4301,2.4301,2.4301,2.4301,2.4348,2.4368,2.3747,2.318,2.26,2.2586,2.2586,2.2586,2.2586,2.2586,2.2586,2.2586,2.2586,2.487,2.8931,3.2657,3.3389,3.5176,3.6859,3.718,3.6953,3.6431,3.6406,3.8968,4.0739,3.9472,3.9772,3.9885,3.8517,3.5176,3.2529,3.1042,2.7312,2.4629,2.4686,2.3672,2.3246,2.343,2.3483,2.3734,2.4261,2.4472,2.4881,2.5566,2.5711,2.587,2.6041,2.6054,2.6054,2.6054,2.6054,2.6054,2.6041,2.5632,2.5434,2.5421,2.496,2.4683,2.4551,2.438,2.4301,2.4301,2.4301,2.4301,2.4301,2.4301,2.4301,2.4301,2.4301,2.4301,2.4301,2.4301,2.4301,2.4301,2.4301,2.4301,2.4301,2.4301,2.4301,2.4301,2.4301,2.4301,2.4301,2.4301,2.4301,2.4301,2.4301,2.4301,2.4301,2.4301,2.4301,2.4301,2.4301,2.4301,2.4301,2.4301,2.4406,2.4577,2.4881,2.5078,2.5158,2.5026,2.4591,2.4301,2.4301,2.4301,2.4301,2.4301,2.4301,2.4301,2.4301,2.4301,2.405,2.3774,2.3734,2.318,2.26,2.2586,2.2586,2.2586,2.2586,2.2586,2.2586,2.2586,2.2586,2.33,2.7013,3.0231,3.059,3.2787,3.4878,3.5732,3.4971,3.4234,3.4844,3.788,3.9616,3.8102,3.8223,3.8357,3.6698,3.2603,2.9389,2.8522,2.5068,2.2652,2.285,2.2877,2.2956,2.3167,2.3074,2.3246,2.3865,2.3905,2.4274,2.5171,2.5382,2.5619,2.5909,2.6001,2.6054,2.6054,2.6054,2.6054,2.6041,2.5751,2.5606,2.5593,2.5184,2.4907,2.4736,2.4525,2.438,2.4301,2.4301,2.4301,2.4301,2.4301,2.4301,2.4301,2.4301,2.4301,2.4301,2.4301,2.4353,2.4432,2.4432,2.4432,2.4432,2.4432,2.4366,2.4301,2.4301,2.4301,2.4301,2.4301,2.4301,2.3699,2.188,2.2783,2.4,2.2783,2.3398,2.4301,2.4,2.4,2.4301,2.4301,2.4301,2.4406,2.4696,2.492,2.5065,2.5065,2.4696,2.4406,2.4314,2.4301,2.4301,2.4301,2.4301,2.4301,2.4301,2.4301,2.405,2.347,2.3444,2.318,2.26,2.2586,2.2586,2.2586,2.2586,2.2586,2.2586,2.2586,2.2586,2.0132,2.3159,2.6327,2.6327,2.9048,3.2122,3.3647,3.3202,3.3061,3.5126,3.6792,3.7707,3.7191,3.7097,3.7261,3.7777,3.3315,3.0172,3.1246,2.6149,2.2586,2.2586,2.2586,2.2586,2.2586,2.2837,2.2995,2.3008,2.3562,2.401,2.4301,2.4881,2.5329,2.5606,2.5896,2.6054,2.6054,2.6054,2.6054,2.6041,2.5751,2.5606,2.5606,2.5593,2.5289,2.4749,2.4736,2.4577,2.4301,2.4301,2.4301,2.4301,2.4301,2.4301,2.4301,2.4301,2.4301,2.4301,2.4301,2.4498,2.4736,2.4736,2.4736,2.4736,2.4736,2.4538,2.4301,2.4301,2.4301,2.4301,2.4301,2.4301,2.2783,1.6119,1.9455,2.3084,1.9153,2.1578,2.4,2.3398,2.3699,2.4301,2.4301,2.4301,2.4406,2.4696,2.4749,2.4749,2.4749,2.4749,2.463,2.4327,2.4301,2.4301,2.4301,2.4301,2.4301,2.4301,2.4301,2.405,2.347,2.3444,2.318,2.26,2.2586,2.2586,2.2586,2.2586,2.2586,2.2586,2.2586,2.2586,1.8808,2.1798,2.5013,2.6444,2.8462,3.0316,3.116,3.3037,3.4258,3.3155,3.4703,3.6228,3.6064,3.6322,3.6344,3.5122,3.3039,3.0761,2.812,2.6562,2.479,2.2866,2.2586,2.2586,2.2586,2.2666,2.2797,2.2982,2.3167,2.3496,2.3997,2.4577,2.5026,2.5316,2.579,2.6054,2.6054,2.6054,2.6054,2.6054,2.5949,2.5909,2.5896,2.5698,2.55,2.5329,2.5131,2.4881,2.4604,2.4604,2.4485,2.4301,2.4301,2.4301,2.4301,2.4301,2.4432,2.4604,2.4604,2.4802,2.5052,2.5052,2.5052,2.4703,2.2023,2.1294,2.1192,2.1009,2.0964,2.0361,1.8236,1.7632,1.7027,1.521,1.6119,1.7641,1.7973,1.9465,2.1578,2.3449,2.4026,2.4301,2.4301,2.4301,2.4327,2.4432,2.4617,2.4604,2.4208,2.4498,2.4564,2.4076,2.4182,2.4301,2.4301,2.4301,2.4301,2.4301,2.4301,2.405,2.347,2.3444,2.318,2.26,2.2586,2.2586,2.2586,2.2586,2.2586,2.2586,2.2586,2.2586,1.8389,2.0766,2.3816,2.567,2.7031,2.8345,3.0034,3.2028,3.3108,3.1676,3.3155,3.4727,3.4938,3.4647,3.4033,3.2797,3.0677,2.8534,2.6555,2.5569,2.4645,2.2853,2.2586,2.2586,2.2586,2.2586,2.2652,2.2824,2.2837,2.3048,2.3523,2.4103,2.4551,2.4841,2.5527,2.5883,2.5883,2.5988,2.5988,2.5883,2.5988,2.6054,2.6041,2.5856,2.5711,2.5593,2.5421,2.5184,2.492,2.492,2.4802,2.4643,2.4643,2.4643,2.4643,2.4643,2.4762,2.492,2.492,2.5105,2.5355,2.5355,2.4401,2.3096,2.0734,1.9012,1.7919,1.7785,1.7689,1.6724,1.3694,1.308,1.2777,1.1272,1.2784,1.4612,1.4628,1.7055,1.9174,2.0102,2.0383,2.0964,2.2181,2.2482,2.2783,2.4,2.4156,2.4104,2.3945,2.3987,2.4104,2.3945,2.3831,2.4,2.4,2.4,2.4301,2.4301,2.4,2.3752,2.3179,2.3444,2.318,2.26,2.2586,2.2586,2.2586,2.2586,2.2586,2.2586,2.2586,2.2586,1.8482,2.0207,2.2643,2.4285,2.5083,2.635,2.9776,3.0316,3.0151,3.0228,3.177,3.3037,3.3328,3.2168,3.1064,3.1499,2.7324,2.4549,2.6491,2.4326,2.2559,2.2586,2.2613,2.2613,2.2586,2.2586,2.2586,2.2586,2.2586,2.2705,2.2956,2.3536,2.3984,2.4261,2.5092,2.5553,2.558,2.587,2.5883,2.5606,2.5883,2.6028,2.6054,2.6054,2.5896,2.5632,2.5632,2.5474,2.5224,2.5224,2.521,2.5197,2.5197,2.5197,2.5197,2.5197,2.521,2.5224,2.4911,2.5094,2.5315,2.4998,2.275,1.9875,1.9854,1.7342,1.4557,1.455,1.4119,1.3088,1.005,1.0045,0.9735,0.5799,0.9447,1.2784,0.9757,1.3413,1.6761,1.4013,1.4005,1.5513,1.8236,1.9142,2.0361,2.3699,2.3398,2.3296,2.3596,2.3208,2.3271,2.3596,2.3208,2.3072,2.3097,2.3699,2.4,2.4,2.3398,2.2846,2.2017,2.3153,2.318,2.26,2.2586,2.2586,2.2586,2.2586,2.2586,2.2586,2.2586,2.2586,1.7736,1.9241,2.1282,2.4004,2.4778,2.5318,2.6984,2.8485,2.8612,2.5275,2.7346,2.9422,2.8456,2.9066,3.0072,3.0704,3.1064,3.0313,2.6873,2.6148,2.5053,2.3146,2.2903,2.2824,2.2613,2.2586,2.2586,2.2586,2.2586,2.2613,2.2679,2.3233,2.3681,2.3971,2.4604,2.5052,2.5289,2.5566,2.5672,2.5606,2.5672,2.583,2.6054,2.6054,2.6015,2.5949,2.5949,2.5777,2.5514,2.5514,2.5382,2.5197,2.5197,2.5197,2.5197,2.5197,2.5329,2.5185,2.2644,2.1841,2.141,1.882,1.7205,1.621,1.3507,1.2072,1.1289,1.1188,0.9227,0.7019,0.6104,0.6104,0.5796,0.3968,0.4579,0.4881,0.2746,0.7925,1.3109,1.4028,1.4316,1.4301,1.3369,1.611,1.9465,2.2543,2.2519,2.2025,2.186,2.1736,2.1808,2.1823,2.1748,2.1988,2.2181,2.2495,2.2495,2.2495,2.2796,2.2548,2.1434,2.2863,2.2893,2.176,2.2307,2.2586,2.2586,2.2586,2.2586,2.2586,2.2586,2.2586,1.7853,1.8948,2.0371,2.2089,2.2672,2.2933,2.3076,2.5331,2.6279,2.299,2.4592,2.6507,2.6009,2.6942,2.7412,2.6464,2.6585,2.5785,2.339,2.3778,2.3752,2.2178,2.256,2.2745,2.26,2.2586,2.2586,2.2586,2.2586,2.2586,2.2586,2.3008,2.3378,2.3681,2.4248,2.4683,2.4986,2.5131,2.521,2.521,2.5474,2.5685,2.5843,2.5843,2.5922,2.6041,0.0,2.583,2.5804,2.5804,2.5725,2.5593,2.5593,2.5593,2.5593,2.5593,2.5685,2.5484,2.1942,1.9768,1.7924,1.6293,1.4344,1.3031,1.1018,0.9275,0.7885,0.7836,0.6184,0.4887,0.4887,0.4887,0.4283,0.2152,0.154,0.154,0.2156,0.4921,0.7674,0.9778,1.0061,1.0664,1.2487,1.4309,1.7055,2.1963,2.2241,2.1473,2.1357,2.1133,2.111,2.1143,2.0957,2.1145,2.1702,2.1414,2.1461,2.188,2.1473,2.0942,2.0549,2.1992,2.2306,2.0908,2.2027,2.2307,2.2027,2.2307,2.2586,2.2586,2.2586,2.2586,1.8412,1.9013,1.9381,1.9443,1.9786,2.0008,1.9525,2.158,2.332,2.1726,2.2548,2.372,2.4177,2.458,2.4272,2.2266,1.9894,1.8835,1.9396,2.0332,2.1017,2.1307,2.2112,2.2639,2.2586,2.2586,2.2586,2.2586,2.2586,2.2586,2.2586,2.2811,2.3074,2.3364,2.3892,2.4314,2.4617,2.4657,2.4696,2.4749,2.5237,2.55,2.554,2.554,2.5698,2.5962,0.0,2.5777,2.6054,2.6054,2.6054,2.6054,2.6054,2.6054,2.6041,2.5396,2.5396,2.4739,2.1173,1.7591,1.4669,1.4026,1.2068,0.9788,0.9788,0.7396,0.5056,0.5059,0.4666,0.4581,0.4581,0.4276,0.3369,0.0619,-0.0,0.0622,0.342,0.342,0.3411,0.4616,0.4594,0.6114,1.1345,1.1925,1.3732,1.9907,2.0786,2.0964,2.1011,2.0611,2.0474,2.0852,2.0212,2.0022,2.1192,2.0577,2.0656,2.1508,1.9863,1.9392,1.9785,2.1155,2.1158,2.0336,2.1455,2.2014,2.1188,2.2027,2.2307,2.2307,2.2307,2.2307,1.8948,1.7904,1.6787,1.671,1.7083,1.7513,1.798,1.8512,1.9172,1.9228,1.9718,2.0209,2.0661,2.1139,2.1878,2.3825,2.1658,1.9632,1.9542,2.0503,2.1321,2.1598,2.2402,2.2837,2.2613,2.2586,2.2586,2.2586,2.2586,2.2586,2.2586,2.2626,2.2784,2.3061,2.3391,2.372,2.401,2.4248,2.4498,2.4749,2.4828,2.5013,2.525,2.525,2.5408,2.5672,2.5632,0.0,2.6054,2.6054,2.6054,2.6054,2.6054,2.6054,2.5719,2.279,2.1497,2.1163,1.76,1.4019,1.0765,0.7841,0.6538,0.6211,0.6211,0.5471,0.5059,0.5061,0.4044,0.2749,0.2749,0.1832,0.0611,-0.0,-0.0,-0.0,0.0622,0.2798,0.4676,0.4715,0.3717,0.2765,0.2194,0.6493,1.0433,1.1566,1.6355,1.9811,1.9735,1.9381,1.9124,1.9092,1.8909,1.8952,1.9381,1.9253,1.9231,1.9456,1.9328,1.9714,2.0572,1.9885,1.9432,1.9495,2.0324,2.0604,2.0604,2.0604,2.0896,2.1468,2.1468,2.2027,1.7343,1.6597,1.5451,1.5451,1.5887,1.6071,1.5298,1.6859,1.8373,1.7794,1.7664,1.7833,1.8019,1.7948,1.8203,1.8992,1.8735,1.8326,1.8461,1.991,2.1083,2.1215,2.2138,2.2731,2.26,2.2586,2.2586,2.2586,2.2586,2.2586,2.2586,2.2586,2.2718,2.2982,2.3285,2.3509,2.3654,2.3931,2.4221,2.4512,2.467,2.4815,2.4947,2.4947,2.5105,2.5369,2.521,2.5395,2.5804,2.5804,2.5896,2.6054,2.6054,2.4751,2.3113,2.1497,1.9545,1.76,1.4019,1.1742,0.9788,0.6538,0.5234,0.5234,0.5234,0.4508,0.3478,0.2531,0.1867,0.1221,0.1221,0.0611,-0.0,-0.0,-0.0,-0.0,-0.0,0.2523,0.4436,0.2531,0.1568,0.0937,-0.0,0.2507,0.5604,0.9054,1.5508,1.9687,1.9497,1.9085,1.88,1.88,1.8472,1.8388,1.8726,1.8546,1.8567,1.8927,1.9053,1.9456,1.9874,1.9263,1.8984,1.9618,2.0184,2.0324,1.9764,2.0324,2.0616,2.1468,2.0896,2.1455,1.5629,0.0,1.4957,1.5021,1.5275,1.5126,0.0,1.553,1.7325,1.6603,1.6205,1.6096,1.6437,1.5749,1.5242,1.5018,1.5849,1.6745,1.7378,1.8947,2.0174,2.0582,2.1611,2.231,2.2375,2.2507,2.2586,2.2586,2.2586,2.2586,2.2586,2.2586,2.2679,2.289,2.3193,2.3378,2.3444,2.3734,2.4024,2.4301,2.4538,2.4643,2.4643,2.4643,2.4802,2.5078,2.4841,2.5065,2.5606,2.5606,2.5458,2.4751,2.4751,2.279,1.9545,1.8563,1.6285,1.2712,1.0114,0.9141,0.8815,0.6211,0.4907,0.458,0.5234,0.3542,0.1582,0.0316,-0.0,-0.0,-0.0,-0.0,-0.0,-0.0,-0.0,-0.0,-0.0,0.1911,0.2883,0.0638,-0.0,-0.0,-0.0,-0.0,0.22,0.8756,1.5549,1.9783,1.9592,1.9117,1.88,1.88,1.8366,1.8176,1.8419,1.8271,1.8324,1.8694,1.8768,1.8874,1.9043,1.8831,1.9006,1.9575,1.9711,1.9483,1.8923,1.9483,2.0324,2.0896,2.0324,2.0896,0.0,1.4525,1.4576,1.5391,1.5004,1.4416,1.424,1.4003,0.0,1.5787,1.5039,1.4557,1.6267,1.54,1.4675,1.544,1.5414,1.5888,1.7536,1.7682,1.8222,1.9857,2.0833,2.1479,2.1729,2.2257,2.2586,2.2586,2.2586,2.2586,2.2586,2.2586,2.26,2.2613,2.289,2.3167,2.3444,2.3734,2.4024,2.4301,2.4327,2.4327,2.4327,2.4327,2.4498,2.4775,2.4749,2.5065,2.5606,2.5606,2.3849,2.1173,2.1173,1.8897,1.5644,1.2393,0.9132,0.5873,0.5555,0.5561,0.5561,0.5234,0.4251,0.2943,0.458,0.2898,-0.0,-0.0,-0.0,-0.0,-0.0,-0.0,-0.0,-0.0,-0.0,-0.0,-0.0,0.0317,0.0319,-0.0,-0.0,-0.0,-0.0,-0.0,0.2501,0.9251,1.5582,1.9624,1.9783,1.9212,1.88,1.88,1.8366,1.8176,1.8419,1.8419,1.843,1.8462,1.8673,1.88,1.8821,1.8588,1.8462,1.8462,1.8219,1.8081,1.8081,1.8081,1.8642,1.9483,1.9483,2.0055,1.489,1.4992,1.5308,1.5994,1.5651,1.5044,1.4688,1.4293,1.4123,1.4602,1.4147,1.4056,1.4728,1.4645,1.4491,1.5018,1.515,1.5862,1.78,1.7972,1.8631,2.0569,2.1083,2.1532,2.2191,2.2125,2.2191,2.256,2.2586,2.2586,2.2586,2.2586,2.2586,2.2586,2.2692,2.2877,2.3167,2.3457,2.376,2.405,2.4221,2.4301,2.4301,2.4301,2.4366,2.4472,2.4472,2.4696,0.0,2.288,2.1549,2.0297,1.6753,1.2945,0.9127,0.7829,0.6528,0.5228,0.3924,0.3597,0.3597,0.3597,0.229,0.1309,0.2943,0.1942,-0.0,-0.0,-0.0,-0.0,-0.0,-0.0,-0.0,-0.0,-0.0,-0.0,-0.0,-0.0,-0.0,-0.0,-0.0,-0.0,-0.0,-0.0,0.3798,1.4492,1.8072,1.9434,1.9624,1.9138,1.88,1.88,1.8366,1.8123,1.8208,1.8219,1.8219,1.8219,1.844,1.8578,1.8578,1.8483,1.844,1.844,1.8208,1.8081,1.8081,1.8081,1.8362,1.9203,1.8642,1.9495,1.5559,1.6086,1.6468,1.7141,1.6811,1.6139,1.5466,1.4939,1.4464,1.3976,1.3884,1.3884,1.3884,1.4121,1.4425,1.4728,1.5005,1.5862,1.7827,1.8183,1.8855,2.053,2.0978,2.1373,2.198,2.2006,2.2151,2.256,2.2586,2.2586,2.2586,2.2586,2.2586,2.2586,2.2586,2.2718,2.2995,2.3206,2.3496,2.3892,2.4076,2.4221,2.4301,2.4301,2.4301,2.4301,2.4301,2.3853,2.2897,2.0725,1.8781,1.6572,1.1829,0.7729,0.455,0.4563,0.3922,0.3271,0.229,0.1636,0.1636,0.1636,0.0982,0.0327,0.1309,0.0974,-0.0,-0.0,-0.0,-0.0,-0.0,-0.0,-0.0,-0.0,-0.0,-0.0,-0.0,-0.0,-0.0,-0.0,-0.0,-0.0,-0.0,0.3529,0.9222,1.812,1.9559,1.9423,1.9518,1.9085,1.88,1.88,1.8366,1.8081,1.8081,1.8081,1.8081,1.8081,1.824,1.8324,1.8324,1.8324,1.8324,1.8324,1.8166,1.8081,1.8081,1.8081,1.8362,1.8923,1.8362,1.9214,1.6904,1.7589,1.8011,1.8881,1.8446,1.7563,1.6693,1.5809,1.4939,1.4056,1.3884,1.3884,1.3884,1.4135,1.4425,1.4728,1.5018,1.5809,1.755,1.8051,1.8565,1.9448,2.0319,2.0846,2.0833,2.1901,2.2586,2.2586,2.2586,2.2586,2.2586,2.2586,2.2586,2.2586,2.2586,2.2718,2.2995,2.2995,2.3298,2.3879,2.3892,2.4037,2.4301,2.4301,2.4301,2.4301,2.4301,2.2641,1.9804,1.9804,1.5901,0.9791,0.6386,0.4173,0.322,0.2605,0.1309,-0.0,-0.0,-0.0,-0.0,-0.0,-0.0,-0.0,-0.0,-0.0,-0.0,-0.0,-0.0,-0.0,-0.0,-0.0,-0.0,-0.0,-0.0,-0.0,-0.0,-0.0,-0.0,-0.0,-0.0,-0.0,-0.0,1.0844,1.9284,1.9373,1.9413,1.9529,1.9529,1.9106,1.88,1.88,1.8366,1.8081,1.8081,1.8081,1.8081,1.8081,1.8081,1.8081,1.8081,1.8081,1.8081,1.8081,1.8081,1.8081,1.8081,1.8081,1.8081,1.8081,1.8081,1.8923,1.6968,1.7437,1.8105,1.8999,1.8908,1.8077,1.6785,1.6139,1.544,1.4148,1.3884,1.3884,1.3884,1.4293,1.4675,1.4754,1.5519,1.6574,1.7919,1.8525,1.9237,2.0319,2.1044,2.1281,2.0872,2.1901,2.2586,2.2586,2.2586,2.2586,2.2586,2.2586,2.2586,2.2586,2.2586,2.2626,2.2705,2.2903,2.3088,2.3259,2.3694,2.3931,2.401,2.4208,2.3084,2.0964,2.0964,1.9184,1.5902,1.3761,1.0165,0.6548,0.5375,0.3194,0.0967,0.0652,0.0327,-0.0,-0.0,-0.0,-0.0,-0.0,-0.0,-0.0,-0.0,-0.0,-0.0,-0.0,-0.0,-0.0,-0.0,-0.0,-0.0,-0.0,-0.0,-0.0,-0.0,-0.0,-0.0,-0.0,-0.0,-0.0,-0.0,0.3187,0.8821,1.8111,1.9579,1.9455,1.9561,1.882,1.8529,1.88,1.8366,1.8081,1.8081,1.8081,1.8081,1.8081,1.8081,1.8081,1.8081,1.8081,1.8081,1.8081,1.8081,1.8007,1.7859,1.8007,1.8007,1.7859,1.8018,1.8642,1.7308,1.766,1.7971,1.8787,1.8856,1.8433,1.6851,1.6363,1.5796,1.4201,1.3884,1.399,1.4332,1.4609,1.4886,1.5242,1.577,1.664,1.8038,1.8539,1.9264,2.0675,2.1347,2.1558,2.1215,2.2033,2.2586,2.2586,2.2586,2.2586,2.2586,2.2586,2.2586,2.2586,2.2586,2.2586,2.2586,2.2745,2.289,2.3008,2.3483,2.3773,2.3905,2.2972,2.1265,1.9444,1.7934,1.4899,1.0646,0.852,0.6729,0.4934,0.3438,0.1582,-0.0,-0.0,-0.0,-0.0,-0.0,-0.0,-0.0,-0.0,-0.0,-0.0,-0.0,-0.0,-0.0,-0.0,-0.0,-0.0,-0.0,-0.0,-0.0,-0.0,-0.0,-0.0,-0.0,-0.0,-0.0,-0.0,-0.0,-0.0,-0.0,-0.0,0.2816,1.0517,1.6082,1.9423,1.9465,1.8789,1.8497,1.8683,1.8335,1.8102,1.8081,1.8081,1.8081,1.8081,1.8081,1.8081,1.8081,1.8081,1.8039,1.7954,1.7954,1.7838,1.7616,1.7849,1.788,1.7764,1.7986,1.8362,1.7483,1.7687,1.791,1.791,1.8409,1.8439,1.672,1.6548,1.6073,1.4142,1.379,1.4227,1.511,1.5058,1.5176,1.606,1.6033,1.6468,1.809,1.838,1.904,2.0648,2.1347,2.1703,2.1703,2.2244,2.2586,2.2586,2.2586,2.2586,2.2586,2.2586,2.2586,2.2586,2.2586,2.2586,2.2586,2.2586,2.2718,2.2969,2.2971,2.3258,2.3223,2.0206,1.881,1.8508,1.5202,1.0343,0.4868,0.4564,0.4571,0.3975,0.1238,-0.0,-0.0,-0.0,-0.0,-0.0,-0.0,-0.0,-0.0,-0.0,-0.0,-0.0,-0.0,-0.0,-0.0,-0.0,-0.0,-0.0,-0.0,-0.0,-0.0,-0.0,-0.0,-0.0,-0.0,-0.0,-0.0,-0.0,-0.0,-0.0,-0.0,-0.0,-0.0,-0.0,1.0094,1.8022,1.9318,1.8726,1.8445,1.8493,1.8271,1.8123,1.8092,1.8092,1.8081,1.8081,1.8081,1.8081,1.806,1.806,1.7954,1.7732,1.7722,1.7606,1.7363,1.7627,1.7743,1.7732,1.7975,1.8362,1.7143,1.7087,1.6737,1.7449,1.7605,1.734,1.5727,1.5943,1.5841,1.4371,1.4209,1.4847,1.5717,1.5836,1.6086,1.6956,1.7616,1.8235,1.8829,1.9501,2.016,2.0767,2.1347,2.1703,2.1703,2.2244,2.2586,2.2586,2.2586,2.2586,2.2586,2.2586,2.2586,2.2586,2.2586,2.2586,2.2586,2.2586,2.2613,2.2679,2.0668,1.9663,1.9443,1.6924,1.4099,1.1705,0.8483,0.6091,0.4884,0.3661,0.2136,0.0917,0.0309,-0.0,-0.0,-0.0,-0.0,-0.0,-0.0,-0.0,-0.0,-0.0,-0.0,-0.0,-0.0,-0.0,-0.0,-0.0,-0.0,-0.0,-0.0,-0.0,-0.0,-0.0,-0.0,-0.0,-0.0,-0.0,-0.0,-0.0,-0.0,-0.0,-0.0,-0.0,-0.0,-0.0,0.2477,0.799,1.8117,1.8768,1.8154,1.804,1.8197,1.8134,1.8123,1.8102,1.8081,1.8081,1.8081,1.8007,1.7828,1.7828,1.7711,1.7479,1.7479,1.7363,1.7119,1.7553,1.7658,1.7489,1.7891,1.8362,1.7039,1.6903,1.6737,1.6737,1.708,1.7105,1.5893,1.5739,1.5525,1.4293,1.4026,1.4473,1.5508,1.5662,1.6147,1.7233,1.7866,1.8446,1.9013,1.9607,2.02,2.0767,2.1228,2.1558,2.169,2.2112,2.2428,2.2573,2.2586,2.2586,2.2586,2.2586,2.2586,2.2586,2.2586,2.1735,2.0324,2.0324,1.9752,1.834,1.6872,1.6397,1.612,1.174,0.8889,0.7414,0.5673,0.3897,0.24,0.18,0.0901,-0.0,-0.0,-0.0,-0.0,-0.0,-0.0,-0.0,-0.0,-0.0,-0.0,-0.0,-0.0,-0.0,-0.0,-0.0,-0.0,-0.0,-0.0,-0.0,-0.0,-0.0,-0.0,-0.0,-0.0,-0.0,-0.0,-0.0,-0.0,-0.0,-0.0,-0.0,-0.0,-0.0,-0.0,-0.0,-0.0,0.2428,0.9247,0.9717,1.1608,1.74,1.5606,1.5006,1.7852,1.8102,1.8039,1.7933,1.7923,1.7828,1.7595,1.7584,1.7479,1.7236,1.7236,1.7119,1.6876,1.7352,1.7521,1.7415,1.787,1.8362,1.6713,1.701,1.6974,1.6263,1.6534,1.6834,1.5836,1.558,1.5077,1.4304,1.3812,1.3945,1.5337,1.5653,1.6111,1.7231,1.784,1.827,1.8973,1.9377,1.9833,2.0754,2.1097,2.1373,2.1611,2.194,2.2244,2.2494,2.2507,2.2534,2.2586,2.2586,2.2586,2.2586,2.2586,2.1163,1.806,1.7489,1.6086,1.3548,1.3415,1.3199,1.2913,0.7273,0.4685,0.4685,0.441,0.2649,-0.0,-0.0,-0.0,-0.0,-0.0,-0.0,-0.0,-0.0,-0.0,-0.0,-0.0,-0.0,-0.0,-0.0,-0.0,-0.0,-0.0,-0.0,-0.0,-0.0,-0.0,-0.0,-0.0,-0.0,-0.0,-0.0,-0.0,-0.0,-0.0,-0.0,-0.0,-0.0,-0.0,-0.0,-0.0,-0.0,-0.0,-0.0,-0.0,-0.0,-0.0,-0.0,0.3732,1.3935,1.2474,1.2742,1.7581,1.8081,1.7954,1.7764,1.7722,1.7584,1.7352,1.7341,1.7225,1.6993,1.6982,1.6887,1.6697,1.713,1.7363,1.7415,1.7838,1.8049,1.6606,1.6541,1.6263,1.5539,1.57,1.5668,1.496,1.5134,1.5477,1.4747,1.4958,1.5572,1.6356,1.677,1.718,1.7991,1.8627,1.9099,1.9462,1.9932,2.0224,2.0859,2.1097,2.1294,2.1334,2.1822,2.2165,2.2191,2.2204,2.231,2.2573,2.2586,2.2586,2.2586,2.2586,2.1163,1.806,1.5515,1.4111,1.3548,1.1041,0.9639,0.9645,0.6328,0.4053,0.3187,0.2929,0.1766,-0.0,-0.0,-0.0,-0.0,-0.0,-0.0,-0.0,-0.0,-0.0,-0.0,-0.0,-0.0,-0.0,-0.0,-0.0,-0.0,-0.0,-0.0,-0.0,-0.0,-0.0,-0.0,-0.0,-0.0,-0.0,-0.0,-0.0,-0.0,-0.0,-0.0,-0.0,-0.0,-0.0,-0.0,-0.0,-0.0,-0.0,-0.0,-0.0,-0.0,-0.0,-0.0,0.0569,0.227,1.1067,1.7339,1.7904,1.7965,1.7806,1.7754,1.7563,1.7341,1.7109,1.7098,1.6982,1.6739,1.6739,1.6728,1.6697,1.6961,1.7204,1.7405,1.7669,1.7901,1.5929,1.6321,1.6552,1.5507,1.5625,1.5864,1.5069,1.511,1.4906,1.4818,1.4753,1.4871,1.543,1.6084,1.6582,1.7045,1.8186,1.9149,1.9149,1.9894,2.0731,2.0859,2.0951,2.1097,2.1268,2.1518,2.1795,2.2125,2.1708,2.1474,2.2323,2.2336,2.2415,2.2573,2.2586,2.1163,1.806,1.3548,1.0175,0.8482,0.7074,0.6513,0.6513,0.513,0.4288,0.3719,0.374,0.2307,-0.0,-0.0,-0.0,-0.0,-0.0,-0.0,-0.0,-0.0,-0.0,-0.0,-0.0,-0.0,-0.0,-0.0,-0.0,-0.0,-0.0,-0.0,-0.0,-0.0,-0.0,-0.0,-0.0,-0.0,-0.0,-0.0,-0.0,-0.0,-0.0,-0.0,-0.0,-0.0,-0.0,-0.0,-0.0,-0.0,-0.0,-0.0,-0.0,-0.0,-0.0,-0.0,-0.0,-0.0,1.079,1.8219,1.8208,1.7944,1.7722,1.7301,1.7341,1.7098,1.6855,1.6845,1.6802,1.6697,1.6697,1.6697,1.6697,1.6929,1.7098,1.7215,1.7584,1.7806,1.5236,1.5906,1.6229,1.5378,1.5744,1.6025,1.5539,1.5038,1.4795,1.4795,1.4509,1.4488,1.4941,1.5455,1.5735,1.6033,1.7437,1.8503,1.8564,1.9488,2.0059,2.0317,2.033,2.0407,2.0626,2.0716,2.0921,2.1346,2.0641,2.0641,2.1474,2.1552,2.1693,2.219,2.2268,2.0883,1.806,1.3556,0.9617,0.595,0.5101,0.4534,0.4537,0.4537,0.4537,0.4542,0.3689,0.1986,-0.0,-0.0,-0.0,-0.0,-0.0,-0.0,-0.0,-0.0,-0.0,-0.0,-0.0,-0.0,-0.0,-0.0,-0.0,-0.0,-0.0,-0.0,-0.0,-0.0,-0.0,-0.0,-0.0,-0.0,-0.0,-0.0,-0.0,-0.0,-0.0,-0.0,-0.0,-0.0,-0.0,-0.0,-0.0,-0.0,-0.0,-0.0,-0.0,-0.0,-0.0,-0.0,-0.0,-0.0,0.8205,1.4707,1.7842,1.7817,1.727,1.7083,1.7109,1.6887,1.6697,1.6697,1.6697,1.6697,1.6697,1.6697,1.6697,1.6866,1.6993,1.7056,1.7415,1.7606,1.4405,1.4815,1.5297,1.5099,1.5143,1.5302,1.5302,1.5281,1.526,1.526,1.5249,1.5228,1.5228,1.597,1.6069,1.5808,1.6567,1.7082,1.7318,1.7565,1.8239,1.878,1.9038,1.905,1.9062,1.9279,1.9424,1.946,1.9448,1.9556,1.9833,2.0086,2.0505,2.1341,2.133,2.0324,1.806,1.778,1.5252,1.0187,0.6233,0.4537,0.4539,0.4539,0.4542,0.4258,0.1419,-0.0,-0.0,-0.0,-0.0,-0.0,-0.0,-0.0,-0.0,-0.0,-0.0,-0.0,-0.0,-0.0,-0.0,-0.0,-0.0,-0.0,-0.0,-0.0,-0.0,-0.0,-0.0,-0.0,-0.0,-0.0,-0.0,-0.0,-0.0,-0.0,-0.0,-0.0,-0.0,-0.0,-0.0,-0.0,-0.0,-0.0,-0.0,-0.0,-0.0,-0.0,-0.0,-0.0,-0.0,-0.0,0.0561,0.5568,1.7037,1.7197,1.6916,1.7119,1.6898,1.6739,1.6697,1.6697,1.6697,1.6697,1.6697,1.6697,1.6697,1.6707,1.6824,1.7046,1.7077,1.7204,1.3456,1.42,1.4826,1.481,1.5142,1.5559,1.5091,1.5196,1.5302,1.5302,1.5302,1.5302,1.5302,1.5539,1.5572,1.5408,1.6104,1.6779,1.688,1.7742,1.8263,1.8518,1.8673,1.878,1.878,1.8071,1.7856,1.8117,1.8117,1.8493,1.9278,1.9385,1.9785,2.0237,2.0529,1.9278,1.5917,1.5497,1.4169,1.2503,0.6241,0.3121,0.3121,0.3121,0.2554,0.1419,0.0568,-0.0,-0.0,-0.0,-0.0,-0.0,-0.0,-0.0,-0.0,-0.0,-0.0,-0.0,-0.0,-0.0,-0.0,-0.0,-0.0,-0.0,-0.0,-0.0,-0.0,-0.0,-0.0,-0.0,-0.0,-0.0,-0.0,-0.0,-0.0,-0.0,-0.0,-0.0,-0.0,-0.0,-0.0,-0.0,-0.0,-0.0,-0.0,-0.0,-0.0,-0.0,-0.0,-0.0,-0.0,-0.0,-0.0,0.1663,0.6044,1.2723,1.6639,1.6885,1.6898,1.6739,1.6728,1.6707,1.6697,1.6697,1.6697,1.6697,1.6697,1.6697,1.6739,1.6824,1.6982,1.7098,1.2269,1.3205,1.3869,1.3875,1.4606,1.5188,1.4731,1.49,1.5091,1.5175,1.5186,1.5207,1.5281,1.5302,1.5302,1.5302,1.5908,1.628,1.6368,1.716,1.765,1.7731,1.7718,1.7878,1.7878,1.7095,1.6838,1.7095,1.7419,1.754,1.8481,1.8597,1.8724,1.9142,1.9989,1.825,1.4139,1.3151,1.1846,0.9651,0.4251,0.1417,0.1419,0.1412,0.0845,-0.0,-0.0,-0.0,-0.0,-0.0,-0.0,-0.0,-0.0,-0.0,-0.0,-0.0,-0.0,-0.0,-0.0,-0.0,-0.0,-0.0,-0.0,-0.0,-0.0,-0.0,-0.0,-0.0,-0.0,-0.0,-0.0,-0.0,-0.0,-0.0,-0.0,-0.0,-0.0,-0.0,-0.0,-0.0,-0.0,-0.0,-0.0,-0.0,-0.0,-0.0,-0.0,-0.0,-0.0,-0.0,-0.0,-0.0,-0.0,-0.0,-0.0,0.6689,1.2763,1.6526,1.6614,1.676,1.675,1.6718,1.6707,1.6697,1.6697,1.6697,1.6697,1.6697,1.6697,1.6697,1.6855,1.6887,1.1011,1.1624,1.2258,1.2755,1.3548,1.4213,1.4235,1.4425,1.4657,1.49,1.4953,1.5017,1.5249,1.5291,1.5291,1.5302,1.5302,1.5386,1.5608,1.5651,1.5735,1.5968,1.6211,1.6348,1.6337,1.6348,1.6348,1.6348,1.6559,1.6686,1.6686,1.694,1.7332,1.7817,1.8944,1.7259,1.2689,1.161,0.8075,0.2257,0.0846,-0.0,-0.0,-0.0,-0.0,-0.0,-0.0,-0.0,-0.0,-0.0,-0.0,-0.0,-0.0,-0.0,-0.0,-0.0,-0.0,-0.0,-0.0,-0.0,-0.0,-0.0,-0.0,-0.0,-0.0,-0.0,-0.0,-0.0,-0.0,-0.0,-0.0,-0.0,-0.0,-0.0,-0.0,-0.0,-0.0,-0.0,-0.0,-0.0,-0.0,-0.0,-0.0,-0.0,-0.0,-0.0,-0.0,-0.0,-0.0,-0.0,-0.0,-0.0,-0.0,-0.0,-0.0,-0.0,0.471,1.5497,1.6301,1.6542,1.6479,1.6739,1.6728,1.6697,1.6697,1.6697,1.6697,1.6697,1.6697,1.6697,1.6686,1.657,1.0969,1.1033,1.1276,1.2755,1.3062,1.3125,1.3653,1.3939,1.4171,1.4404,1.4456,1.4583,1.4985,1.5059,1.5112,1.527,1.5302,1.5323,1.5386,1.5545,1.5682,1.5746,1.5957,1.6042,1.5873,1.601,1.6105,1.6105,1.6327,1.6464,1.6475,1.6707,1.4984,1.1274,1.522,1.2929,0.3768,0.3266,0.2195,0.0551,0.0275,-0.0,-0.0,-0.0,-0.0,-0.0,-0.0,-0.0,-0.0,-0.0,-0.0,-0.0,-0.0,-0.0,-0.0,-0.0,-0.0,-0.0,-0.0,-0.0,-0.0,-0.0,-0.0,-0.0,-0.0,-0.0,-0.0,-0.0,-0.0,-0.0,-0.0,-0.0,-0.0,-0.0,-0.0,-0.0,-0.0,-0.0,-0.0,-0.0,-0.0,-0.0,-0.0,-0.0,-0.0,-0.0,-0.0,-0.0,-0.0,-0.0,-0.0,-0.0,-0.0,-0.0,-0.0,-0.0,0.1308,0.4449,0.8363,1.071,1.0697,1.4612,1.6707,1.6697,1.6697,1.6697,1.6697,1.6697,1.6697,1.6686,1.6528,1.6422,1.0081,1.006,1.0261,1.135,1.1709,1.1973,1.2681,1.3019,1.3336,1.3865,1.4044,1.4224,1.4604,1.4752,1.49,1.5122,1.5164,1.5196,1.5281,1.5418,1.5503,1.5503,1.5629,1.5661,1.5524,1.5725,1.5862,1.5862,1.6084,1.6264,1.638,1.4188,1.1419,0.8348,0.9227,0.664,-0.0,-0.0,-0.0,-0.0,-0.0,-0.0,-0.0,-0.0,-0.0,-0.0,-0.0,-0.0,-0.0,-0.0,-0.0,-0.0,-0.0,-0.0,-0.0,-0.0,-0.0,-0.0,-0.0,-0.0,-0.0,-0.0,-0.0,-0.0,-0.0,-0.0,-0.0,-0.0,-0.0,-0.0,-0.0,-0.0,-0.0,-0.0,-0.0,-0.0,-0.0,-0.0,-0.0,-0.0,-0.0,-0.0,-0.0,-0.0,-0.0,-0.0,-0.0,-0.0,-0.0,-0.0,-0.0,-0.0,-0.0,-0.0,-0.0,-0.0,-0.0,-0.0,0.522,0.9389,1.1744,1.4881,1.6707,1.6697,1.6697,1.6697,1.6697,1.6602,1.6559,1.6549,1.6316,1.6158,0.8761,0.8951,0.9373,0.9458,1.0018,1.0737,0.0,1.1783,1.2195,1.3051,1.3421,1.3674,1.3939,1.4245,1.4541,1.4773,1.49,1.5038,1.5238,1.5281,1.5302,1.5302,1.5302,1.5302,1.5302,1.5492,1.5619,1.5619,1.5841,1.6073,1.6306,1.0191,0.6924,0.7528,0.2604,-0.0,-0.0,-0.0,-0.0,-0.0,-0.0,-0.0,-0.0,-0.0,-0.0,-0.0,-0.0,-0.0,-0.0,-0.0,-0.0,-0.0,-0.0,-0.0,-0.0,-0.0,-0.0,-0.0,-0.0,-0.0,-0.0,-0.0,-0.0,-0.0,-0.0,-0.0,-0.0,-0.0,-0.0,-0.0,-0.0,-0.0,-0.0,-0.0,-0.0,-0.0,-0.0,-0.0,-0.0,-0.0,-0.0,-0.0,-0.0,-0.0,-0.0,-0.0,-0.0,-0.0,-0.0,-0.0,-0.0,-0.0,-0.0,-0.0,-0.0,-0.0,0.0522,0.1829,0.6524,1.1477,1.6448,1.6707,1.6676,1.6612,1.6612,1.6612,1.6612,1.639,1.6295,1.6316,1.6052,1.5756,0.0,0.0,0.0,0.0,0.0,0.0,0.0,1.0325,1.0599,1.0969,1.1392,1.1815,1.2227,1.2956,1.3569,1.3812,1.4478,1.4985,1.5027,1.5186,1.5302,1.5302,1.5302,1.5302,1.5302,1.5344,1.5365,1.5365,1.5598,1.5777,1.5605,0.6492,0.151,0.1517,0.0511,-0.0,-0.0,-0.0,-0.0,-0.0,-0.0,-0.0,-0.0,-0.0,-0.0,-0.0,-0.0,-0.0,-0.0,-0.0,-0.0,-0.0,-0.0,-0.0,-0.0,-0.0,-0.0,-0.0,-0.0,-0.0,-0.0,-0.0,-0.0,-0.0,-0.0,-0.0,-0.0,-0.0,-0.0,-0.0,-0.0,-0.0,-0.0,-0.0,-0.0,-0.0,-0.0,-0.0,-0.0,-0.0,-0.0,-0.0,-0.0,-0.0,-0.0,-0.0,-0.0,-0.0,-0.0,-0.0,-0.0,-0.0,-0.0,-0.0,-0.0,-0.0,0.392,1.2849,1.4397,1.561,1.6731,1.6443,1.6348,1.6147,1.6137,1.6137,1.6137,1.5904,1.5894,1.6063,1.564,1.5006,0.0,0.0,0.0,0.0,0.0,0.0,0.0,0.0,0.0,0.0,0.0,1.0863,1.1096,0.0,1.2776,1.3009,1.3833,1.452,1.4763,1.4985,1.5133,1.5133,1.5133,1.5175,1.5291,1.5302,1.5302,1.5302,1.5439,1.4347,1.1518,0.4189,-0.0,-0.0,-0.0,-0.0,-0.0,-0.0,-0.0,-0.0,-0.0,-0.0,-0.0,-0.0,-0.0,-0.0,-0.0,-0.0,-0.0,-0.0,-0.0,-0.0,-0.0,-0.0,-0.0,-0.0,-0.0,-0.0,-0.0,-0.0,-0.0,-0.0,-0.0,-0.0,-0.0,-0.0,-0.0,-0.0,-0.0,-0.0,-0.0,-0.0,-0.0,-0.0,-0.0,-0.0,-0.0,-0.0,-0.0,-0.0,-0.0,-0.0,-0.0,-0.0,-0.0,-0.0,-0.0,-0.0,-0.0,-0.0,-0.0,-0.0,-0.0,-0.0,-0.0,0.5207,1.0792,1.6406,1.6485,1.6591,1.6462,1.619,1.6073,1.5841,1.583,1.5714,1.5492,1.5249,1.5133,1.5122,1.4773,1.4414,0.0,0.0,0.0,0.0,0.0,0.0,0.0,0.0,0.0,0.0,0.0,0.0,0.0,0.0,0.0,1.2132,1.2998,1.3833,1.4404,1.4604,1.4731,1.4826,1.4879,1.4985,1.5217,1.5238,1.526,1.5312,1.5344,1.2764,0.6332,0.2193,-0.0,-0.0,-0.0,-0.0,-0.0,-0.0,-0.0,-0.0,-0.0,0.0,-0.0,-0.0,-0.0,-0.0,-0.0,-0.0,-0.0,-0.0,-0.0,-0.0,-0.0,-0.0,-0.0,-0.0,-0.0,-0.0,-0.0,-0.0,-0.0,-0.0,-0.0,-0.0,-0.0,-0.0,0.0,-0.0,-0.0,-0.0,-0.0,-0.0,-0.0,-0.0,-0.0,-0.0,-0.0,-0.0,-0.0,-0.0,-0.0,-0.0,-0.0,-0.0,-0.0,-0.0,-0.0,-0.0,-0.0,-0.0,-0.0,-0.0,-0.0,-0.0,-0.0497,0.7959,1.3304,1.4343,1.4278,1.4562,1.5491,1.5693,1.5492,1.5122,1.5027,1.4869,1.4636,1.4393,1.4266,1.4245,1.3463,1.3273,0.0,0.0,0.0,0.0,0.0,0.0,0.0,0.0,0.0,0.0,0.0,0.0,0.0,0.0,0.0,0.0,1.1931,1.2977,1.3865,1.3844,1.3886,1.4287,1.453,1.4752,1.4985,1.5006,1.5101,1.5334,1.5365,1.1038,0.144,0.024,0.0,0.0,0.0,-0.0,-0.0,-0.0,-0.0,-0.0,-0.0,-0.0,-0.0,-0.0,-0.0,-0.0,-0.0,-0.0,-0.0,-0.0,-0.0,-0.0,-0.0,-0.0,-0.0,-0.0,-0.0,-0.0,-0.0,0.0,0.0,-0.0,-0.0,-0.0,-0.0,-0.0,-0.0,-0.0,-0.0,-0.0,-0.0,-0.0,-0.0,-0.0,-0.0,-0.0,-0.0,-0.0,-0.0,-0.0,-0.0,-0.0,-0.0,-0.0,-0.0,-0.0,-0.0,-0.0,-0.0,-0.0,-0.0,-0.0,-0.0,0.0,-0.1788,-0.0743,0.1717,0.5516,0.5786,0.8418,1.4075,1.4336,1.3837,1.2594,1.2588,1.285,1.3421,1.3178,1.3474,1.4192,1.1476,1.0568,0.0,0.0,0.0,0.0,0.0,0.0,0.0,0.0,0.0,0.0,0.0,0.0,0.0,0.0,0.0,0.0,1.1128,1.1857,1.2248,1.2449,1.284,1.3569,1.3981,1.4298,1.453,1.4689,1.4826,1.4932,0.9638,0.449,0.0236,-0.0,-0.0,-0.0,-0.0,-0.0,-0.0,-0.0,-0.0,-0.0,-0.0,-0.0,-0.0,-0.0,-0.0,-0.0,-0.0,-0.0,-0.0,-0.0,-0.0,-0.0,0.0,0.0,0.0,0.0,-0.0,-0.0,-0.0,-0.0,-0.0,-0.0,-0.0,-0.0,-0.0,-0.0,-0.0,-0.0,-0.0,-0.0,-0.0,-0.0,-0.0,-0.0,-0.0,-0.0,-0.0,-0.0,-0.0,-0.0,-0.0,0.0,-0.0,-0.0,-0.0,-0.0,-0.0,-0.0,-0.0,-0.0,-0.0,-0.0,-0.0756,-0.1781,-0.3178,-0.3215,0.0,0.0,0.0,0.5718,1.081,1.2716,0.0,0.0,0.0,1.2068,1.2406,0.0,0.0,0.0,1.0863,1.0144,0.0,0.0,0.0,0.0,0.0,0.0,0.0,0.0,0.0,0.0,0.0,0.0,0.0,0.0,0.0,0.0,1.0103,1.0631,1.1,1.1254,1.1889,1.263,1.3347,1.377,1.4139,1.4287,1.4382,1.4446,0.6406,0.2311,0.3466,0.1174,-0.0,-0.0,-0.0,-0.0,-0.0,-0.0,-0.0,-0.0,-0.0,-0.0,-0.0,-0.0,-0.0,-0.0,-0.0,-0.0,-0.0,-0.0,-0.0,-0.0,-0.0,-0.0,-0.0,-0.0,-0.0,-0.0,-0.0,-0.0,-0.0,-0.0,-0.0,-0.0,-0.0,-0.0,-0.0,-0.0,-0.0,-0.0,-0.0,-0.0,-0.0,-0.0,-0.0,-0.0,-0.0,-0.0,-0.0,-0.0,-0.0,-0.0,-0.0,-0.0,-0.0,-0.0,-0.0,-0.0246,-0.0498,-0.05,-0.0741,-0.0957,-0.1985,-0.2999,-0.4054,-0.3911,-0.3712,-0.342,-0.0,0.38,0.7617,1.0145,1.2093,1.2905,1.1677,1.116,0.0,0.0,0.0,0.0,0.0,0.0,0.0,0.0,0.0,0.0,0.0,0.0,0.0,0.0,0.0,0.0,0.0,0.0,0.0,0.0,0.0,0.0,0.0,0.0,1.0841,1.0863,1.0997,1.1556,1.2432,1.3178,1.3896,1.3748,1.3504,1.3516,0.8855,0.7825,1.1896,0.432,-0.0,-0.0,-0.0,-0.0,-0.0,-0.0,-0.0,-0.0,-0.0,-0.0,-0.0,-0.0,-0.0,-0.0,-0.0,-0.0,-0.0,-0.0,-0.0,-0.0,-0.0,-0.0,-0.0,-0.0,-0.0,-0.0,-0.0,-0.0,-0.0,-0.0,-0.0,-0.0,-0.0,-0.0,-0.0,-0.0,-0.0,-0.0,-0.0,-0.0,-0.0,-0.0,-0.0,-0.0,-0.0,-0.0,-0.0,-0.0,-0.0,-0.0,-0.0,-0.0,-0.0,-0.0,-0.0,0.0,-0.1751,-0.1829,-0.235,-0.3523,-0.3911,-0.3739,-0.3925,-0.3771,-0.3726,-0.3837,-0.0453,0.2454,0.4437,0.6506,0.8912,1.1398,1.0398,0.988,1.0059,0.0,0.0,0.0,0.0,0.0,0.0,0.0,0.0,0.0,0.0,0.0,0.0,0.0,0.0,0.0,0.0,0.0,0.0,0.0,0.0,0.0,0.0,0.0,0.0,0.9876,1.0453,1.1638,1.0595,1.0866,1.326,1.3448,1.3327,1.3216,1.1443,0.9829,0.8421,0.7617,0.7523,0.818,0.2952,-0.0,-0.0,-0.0,-0.0,-0.0,-0.0,-0.0,-0.0,-0.0,-0.0,-0.0,-0.0,-0.0,-0.0,-0.0,-0.0,-0.0,-0.0,-0.0,-0.0,-0.0,-0.0,-0.0,-0.0,-0.0,-0.0,-0.0,-0.0,-0.0,-0.0,-0.0,-0.0,-0.0,-0.0,-0.0,-0.0,-0.0,-0.0,-0.0,-0.0,-0.0,-0.0,-0.0726,-0.1208,-0.1202,-0.118,-0.1155,-0.1131,-0.1131,-0.114,-0.1152,-0.1846,-0.2553,-0.3066,-0.3351,-0.3369,-0.3816,-0.3864,-0.389,-0.3872,-0.3816,-0.3784,-0.3784,-0.1157,0.0912,0.1587,0.5182,0.7524,0.8884,0.9714,0.9283,0.7572,0.0,0.0,0.0,0.0,0.0,0.0,0.0,0.0,0.0,0.0,0.0,0.0,0.0,0.0,0.0,0.0,0.0,0.0,0.0,0.0,0.0,0.0,0.0,0.0,0.0,0.0,1.1201,0.9498,0.0,1.2429,1.1445,1.1361,1.2817,1.2626,1.1211,0.8606,1.0336,1.1876,1.2432,0.4379,-0.0,-0.0,-0.0,-0.0,-0.0,-0.0,-0.0,-0.0,-0.0,-0.0,-0.0,-0.0,-0.0,-0.0,-0.0,-0.0,-0.0,-0.0,-0.021,-0.0413,-0.0623,-0.0839,-0.0638,-0.0218,-0.0,-0.0,-0.0,-0.0222,-0.0442,-0.0218,-0.0217,-0.065,-0.1275,-0.0868,-0.0446,-0.0449,-0.0459,-0.0703,-0.1179,-0.0944,-0.0708,-0.118,-0.1416,-0.1874,-0.2279,-0.2248,-0.2211,-0.236,-0.2396,-0.222,-0.2241,-0.2976,-0.3744,-0.3827,-0.3834,-0.3827,-0.3813,-0.3811,-0.3811,-0.3811,-0.3811,-0.3784,-0.3726,-0.138,-0.0,0.0221,0.3615,0.5776,0.6286,0.7331,0.7224,0.0,0.0,0.0,0.0,0.0,0.0,0.0,0.0,0.0,0.0,0.0,0.0,0.0,0.0,0.0,0.0,0.0,0.0,0.0,0.0,0.0,0.0,0.0,0.0,0.0,0.0,0.0,1.0639,0.9233,0.0,0.0,0.0,0.0,1.2098,1.219,1.2181,1.2121,1.2051,1.2047,1.1735,0.3977,-0.0,-0.0,-0.0,-0.0,-0.0,-0.0,-0.0,-0.0,-0.0,-0.0,-0.0,-0.0,-0.0,-0.0,-0.0,-0.0,-0.0,-0.0,-0.0562,-0.1472,-0.1877,-0.2081,-0.1913,-0.041,-0.0,-0.0,-0.0,-0.0836,-0.1434,-0.0395,-0.078,0.0,0.0,-0.2837,-0.1208,-0.1027,-0.1286,-0.201,-0.3186,-0.2513,-0.2056,-0.2971,-0.2513,-0.2026,-0.2989,-0.3379,-0.3289,-0.3187,0.0,-0.3249,-0.3148,-0.3326,-0.3733,-0.3633,-0.3657,-0.3683,-0.3734,-0.3744,-0.375,-0.375,-0.3747,-0.3721,-0.366,-0.1772,-0.0435,-0.0217,0.1855,0.3172,0.3691,0.3468,0.0,0.0,0.0,0.0,0.0,0.0,0.0,0.0,0.0,0.0,0.0,0.0,0.0,0.0,0.0,0.0,0.0,0.0,0.0,0.0,0.0,0.0,0.0,0.0,0.0,0.0,0.7932,0.9642,1.0838,1.0607,0.8365,0.0,0.0,0.0,0.0,0.0,0.0,0.8921,0.7422,0.544,0.2728,-0.0,-0.0967,-0.0,-0.0,-0.0,-0.0,-0.0,-0.0,-0.0,-0.0,-0.0,-0.0,-0.0,-0.0,-0.0,-0.0,-0.0,-0.0183,-0.1415,-0.186,-0.1773,-0.1946,-0.1642,-0.1003,-0.0683,-0.0541,-0.0572,-0.0567,-0.1516,-0.2472,-0.1296,0.0,0.0,0.0,0.0,-0.3964,-0.2496,-0.2192,-0.2477,-0.3272,-0.2429,-0.1987,-0.3093,-0.3093,-0.3012,-0.2942,-0.3077,-0.3,-0.2751,-0.2759,0.0,-0.2989,-0.3138,-0.3273,-0.3387,-0.3556,-0.3638,-0.3564,-0.3636,-0.3689,-0.3689,-0.3649,-0.3596,-0.3538,-0.2996,-0.2504,-0.2475,-0.0385,0.0911,0.123,0.0,0.0,0.0,0.0,0.0,0.0,0.0,0.0,0.0,0.0,0.0,0.0,0.0,0.0,0.0,0.0,0.0,0.0,0.0,0.0,0.0,0.0,0.0,0.0,0.0,0.0,0.0,0.7628,0.9709,0.8749,0.7226,0.5209,0.0,0.0,0.0,0.0,0.0,0.0,0.0,0.0,0.0,0.0955,-0.0495,-0.1037,-0.0365,-0.0564,-0.0971,-0.1005,-0.0408,-0.0,-0.0,-0.021,-0.042,-0.0834,-0.041,-0.02,-0.0,-0.0357,-0.0853,-0.1164,0.0,0.0,0.0,0.0,-0.1563,-0.1157,-0.1045,-0.1118,-0.1191,-0.1483,0.0,0.0,0.0,0.0,0.0,0.0,0.0,-0.3938,-0.2785,-0.2627,-0.3014,-0.3135,-0.2758,-0.2554,-0.317,-0.2976,-0.275,-0.2737,-0.2679,-0.2586,-0.2353,-0.2419,0.0,0.0,0.0,-0.3029,-0.3146,-0.3344,-0.3479,-0.3487,-0.3548,-0.3588,-0.3588,-0.3559,-0.3493,-0.3384,-0.2483,-0.2217,-0.3119,-0.0902,-0.0,0.0,0.0,0.0,0.0,0.0,0.0,0.0,0.0,0.0,0.0,0.0,0.0,0.0,0.0,0.0,0.0,0.0,0.0,0.0,0.0,0.0,0.0,0.0,0.0,0.0,0.0,0.0,0.0,0.0,0.8856,0.5736,0.0,0.0,0.0,0.0,0.0,0.0,0.0,0.0,0.0,0.0,0.0,0.0,0.0,-0.0903,-0.0931,-0.146,-0.1879,-0.2356,-0.0748,-0.019,-0.0191,-0.0582,-0.1162,-0.1711,-0.1096,0.0,-0.0488,-0.1112,0.0,0.0,0.0,0.0,0.0,0.0,0.0,0.0,0.0,0.0,0.0,0.0,0.0,0.0,0.0,0.0,0.0,0.0,0.0,0.0,0.0,0.0,-0.3122,-0.3146,-0.3199,-0.3217,-0.3114,-0.2861,-0.2469,-0.2292,-0.2239,-0.2125,0.0,0.0,0.0,0.0,0.0,0.0,-0.2904,-0.3108,-0.3297,-0.344,-0.3469,-0.3477,-0.3477,-0.3464,-0.3387,-0.323,-0.1385,-0.1149,-0.2733,-0.0674,0.0,0.0,0.0,0.0,0.0,0.0,0.0,0.0,0.0,0.0,0.0,0.0,0.0,0.0,0.0,0.0,0.0,0.0,0.0,0.0,0.0,0.0,0.0,0.0,0.0,0.0,0.0,0.0,0.0,0.0,0.0,0.0,0.0,0.0,0.0,0.0,0.0,0.0,0.0,0.0,0.0,0.0,0.0,0.0,0.0,0.0,0.0,0.0,0.0,0.0,-0.0783,-0.0629,-0.0641,-0.0805,-0.1126,-0.1758,-0.1373,-0.1684,-0.236,-0.2131,0.0,0.0,0.0,0.0,0.0,0.0,0.0,0.0,0.0,0.0,0.0,0.0,0.0,0.0,0.0,0.0,0.0,0.0,0.0,0.0,0.0,0.0,-0.2544,-0.2692,-0.2806,-0.2959,-0.3352,0.0,0.0,0.0,0.0,0.0,0.0,0.0,0.0,0.0,0.0,0.0,-0.2666,-0.3042,-0.3294,-0.3278,-0.336,-0.3416,-0.3416,-0.3331,-0.3244,-0.3164,-0.2486,-0.231,0.0,0.0,0.0,0.0,0.0,0.0,0.0,0.0,0.0,0.0,0.0,0.0,0.0,0.0,0.0,0.0,0.0,0.0,0.0,0.0,0.0,0.0,0.0,0.0,0.0,0.0,0.0,0.0,0.0,0.0,0.0,0.0,0.0,0.0,0.0,0.0,0.0,0.0,0.0,0.0,0.0,0.0,0.0,0.0,0.0,0.0,0.0,0.0,0.0,0.0,0.0,0.0,0.0,0.0,0.0,0.0,0.0,0.0,-0.1668,-0.1811,0.0,0.0,0.0,0.0,0.0,0.0,0.0,0.0,0.0,0.0,0.0,0.0,0.0,0.0,0.0,0.0,0.0,0.0,0.0,0.0,0.0,0.0,0.0,0.0,0.0,0.0,0.0,0.0,0.0,0.0,0.0,0.0,0.0,0.0,0.0,0.0,0.0,0.0,0.0,0.0,-0.2425,-0.287,-0.3191,-0.3228,-0.3281,-0.3312,-0.3312,-0.3236,-0.3095,-0.2886,-0.2687,0.0,0.0,0.0,0.0,0.0,0.0,0.0,0.0,0.0,0.0,0.0,0.0,0.0,0.0,0.0,0.0,0.0,0.0,0.0,0.0,0.0,0.0,0.0,0.0,0.0,0.0,0.0,0.0,0.0,0.0,0.0,0.0,0.0,0.0,0.0,0.0,0.0,0.0,0.0,0.0,0.0,0.0,0.0,0.0,0.0,0.0,0.0,0.0,0.0,0.0,0.0,0.0,0.0,0.0,0.0,0.0,0.0,0.0,0.0,-0.2043,-0.1973,0.0,0.0,0.0,0.0,0.0,0.0,0.0,0.0,0.0,0.0,0.0,0.0,0.0,0.0,0.0,0.0,0.0,0.0,0.0,0.0,0.0,0.0,0.0,0.0,0.0,0.0,0.0,0.0,0.0,0.0,0.0,0.0,0.0,0.0,0.0,0.0,0.0,0.0,0.0,0.0,-0.2242,-0.2732,-0.31,-0.3167,-0.3199,-0.3206,-0.3196,-0.314,-0.296,-0.2623,-0.2373,0.0,0.0,0.0,0.0,0.0,0.0,0.0,0.0,0.0,0.0,0.0,0.0,0.0,0.0,0.0,0.0,0.0,0.0,0.0,0.0,0.0,0.0,0.0,0.0,0.0,0.0,0.0,0.0,0.0,0.0,0.0,0.0,0.0,0.0,0.0,0.0,0.0,0.0,0.0,0.0,0.0,0.0,0.0,0.0,0.0,0.0,0.0,0.0,0.0,0.0,0.0,0.0,0.0,0.0,0.0,0.0,0.0,0.0,0.0,0.0,0.0,0.0,0.0,0.0,0.0,0.0,0.0,0.0,0.0,0.0,0.0,0.0,0.0,0.0,0.0,0.0,0.0,0.0,0.0,0.0,0.0,0.0,0.0,0.0,0.0,0.0,0.0,0.0,0.0,0.0,0.0,0.0,0.0,0.0,0.0,0.0,0.0,0.0,0.0,0.0,0.0,-0.2186,-0.2743,-0.3098,-0.3,-0.3087,-0.313,-0.3077,-0.3016,-0.2857,-0.256,0.0,0.0,0.0,0.0,0.0,0.0,0.0,0.0,0.0,0.0,0.0,0.0,0.0,0.0,0.0,0.0,0.0,0.0,0.0,0.0,0.0,0.0,0.0,0.0,0.0,0.0,0.0,0.0,0.0,0.0,0.0,0.0,0.0,0.0,0.0,0.0,0.0,0.0,0.0,0.0,0.0,0.0,0.0,0.0,0.0,0.0,0.0,0.0,0.0,0.0,0.0,0.0,0.0,0.0,0.0,0.0,0.0,0.0,0.0,0.0,0.0,0.0,0.0,0.0,0.0,0.0,0.0,0.0,0.0,0.0,0.0,0.0,0.0,0.0,0.0,0.0,0.0,0.0,0.0,0.0,0.0,0.0,0.0,0.0,0.0,0.0,0.0,0.0,0.0,0.0,0.0,0.0,0.0,0.0,0.0,0.0,0.0,0.0,0.0,0.0,0.0,0.0,-0.3051,-0.2993,-0.3018,-0.2971,-0.2976,-0.2973,-0.2952,-0.1809,-0.1513,-0.2292,0.0,0.0,0.0,0.0,0.0,0.0,0.0,0.0,0.0,0.0,0.0,0.0,0.0,0.0,0.0,0.0,0.0,0.0,0.0,0.0,0.0,0.0,0.0,0.0,0.0,0.0,0.0,0.0,0.0,0.0,0.0,0.0,0.0,0.0,0.0,0.0,0.0,0.0,0.0,0.0,0.0,0.0,0.0,0.0,0.0,0.0,0.0,0.0,0.0,0.0,0.0,0.0,0.0,0.0,0.0,0.0,0.0,0.0,0.0,0.0,0.0,0.0,0.0,0.0,0.0,0.0,0.0,0.0,0.0,0.0,0.0,0.0,0.0,0.0,0.0,0.0,0.0,0.0,0.0,0.0,0.0,0.0,0.0,0.0,0.0,0.0,0.0,0.0,0.0,0.0,0.0,0.0,0.0,0.0,0.0,0.0,0.0,0.0,0.0,0.0,0.0,0.0,-0.3643,-0.3236,-0.2934,-0.2915,-0.2878,-0.2673,-0.2139,-0.1026,-0.0623,-0.1175,0.0,0.0,0.0,0.0,0.0,0.0,0.0,0.0,0.0,0.0,0.0,0.0,0.0,0.0,0.0,0.0,0.0,0.0,0.0,0.0,0.0,0.0,0.0,0.0,0.0,0.0,0.0,0.0,0.0,0.0,0.0,0.0,0.0,0.0,0.0,0.0,0.0,0.0,0.0,0.0,0.0,0.0,0.0,0.0,0.0,0.0,0.0,0.0,0.0,0.0,0.0,0.0,0.0,0.0,0.0,0.0,0.0,0.0,0.0,0.0,0.0,0.0,0.0,0.0,0.0,0.0,0.0,0.0,0.0,0.0,0.0,0.0,0.0,0.0,0.0,0.0,0.0,0.0,0.0,0.0,0.0,0.0,0.0,0.0,0.0,0.0,0.0,0.0,0.0,0.0,0.0,0.0,0.0,0.0,0.0,0.0,0.0,0.0,0.0,0.0,0.0,0.0,-0.3884,-0.3349,-0.2857,-0.2798,-0.279,-0.1919,-0.0174,-0.0631,-0.0423,0.0,0.0,0.0,0.0,0.0,0.0,0.0,0.0,0.0,0.0,0.0,0.0,0.0,0.0,0.0,0.0,0.0,0.0,0.0,0.0,0.0,0.0,0.0,0.0,0.0,0.0,0.0,0.0,0.0,0.0,0.0,0.0,0.0,0.0,0.0,0.0,0.0,0.0,0.0,0.0,0.0,0.0,0.0,0.0,0.0,0.0,0.0,0.0,0.0,0.0,0.0,0.0,0.0,0.0,0.0,0.0,0.0,0.0,0.0,0.0,0.0,0.0,0.0,0.0,0.0,0.0,0.0,0.0,0.0,0.0,0.0,0.0,0.0,0.0,0.0,0.0,0.0,0.0,0.0,0.0,0.0,0.0,0.0,0.0,0.0,0.0,0.0,0.0,0.0,0.0,0.0,0.0,0.0,0.0,0.0,0.0,0.0,0.0,0.0,0.0,0.0,0.0,0.0,-0.4367,-0.3762,-0.3058,-0.2714,-0.2827,-0.2613,-0.1797,-0.0789,-0.0432,-0.1194,0.0,0.0,0.0,0.0,0.0,0.0,0.0,0.0,0.0,0.0,0.0,0.0,0.0,0.0,0.0,0.0,0.0,0.0,0.0,0.0,0.0,0.0,0.0,0.0,0.0,0.0,0.0,0.0,0.0,0.0,0.0,0.0,0.0,0.0,0.0,0.0,0.0,0.0,0.0,0.0,0.0,0.0,0.0,0.0,0.0,0.0,0.0,0.0,0.0,0.0,0.0,0.0,0.0,0.0,0.0,0.0,0.0,0.0,0.0,0.0,0.0,0.0,0.0,0.0,0.0,0.0,0.0,0.0,0.0,0.0,0.0,0.0,0.0,0.0,0.0,0.0,0.0,0.0,0.0,0.0,0.0,0.0,0.0,0.0,0.0,0.0,0.0,0.0,0.0,0.0,0.0,0.0,0.0,0.0,0.0,0.0,0.0,0.0,0.0,0.0,0.0,0.0,0.0,-0.3908,-0.3258,-0.2981,-0.3233,-0.2856,-0.176,-0.0922,-0.0697,-0.1274,0.0,0.0,0.0,0.0,0.0,0.0,0.0,0.0,0.0,0.0,0.0,0.0,0.0,0.0,0.0,0.0,0.0,0.0,0.0,0.0,0.0,0.0,0.0,0.0,0.0,0.0,0.0,0.0,0.0,0.0,0.0,0.0,0.0,0.0,0.0,0.0,0.0,0.0,0.0,0.0,0.0,0.0,0.0,0.0,0.0,0.0,0.0,0.0,0.0,0.0,0.0,0.0,0.0,0.0,0.0,0.0,0.0,0.0,0.0,0.0,0.0,0.0,0.0,0.0,0.0,0.0,0.0,0.0,0.0,0.0,0.0,0.0,0.0,0.0,0.0,0.0,0.0,0.0,0.0,0.0,0.0,0.0,0.0,0.0,0.0,0.0,0.0,0.0,0.0,0.0,0.0,0.0,0.0,0.0,0.0,0.0,0.0,0.0,0.0,0.0,0.0,0.0,0.0,-0.4086,-0.3637,-0.3411,-0.3512,-0.2859,-0.0812,-0.1177,-0.1044,-0.0229,-0.0505,0.0,0.0,0.0,0.0,0.0,0.0,0.0,0.0,0.0,0.0,0.0,0.0,0.0,0.0,0.0,0.0,0.0,0.0,0.0,0.0,0.0,0.0,0.0,0.0,0.0,0.0,0.0,0.0,0.0,0.0,0.0,0.0,0.0,0.0,0.0,0.0,0.0,0.0,0.0,0.0,0.0,0.0,0.0,0.0,0.0,0.0,0.0,0.0,0.0,0.0,0.0,0.0,0.0,0.0,0.0,0.0,0.0,0.0,0.0,0.0,0.0,0.0,0.0,0.0,0.0,0.0,0.0,0.0,0.0,0.0,0.0,0.0,0.0,0.0,0.0,0.0,0.0,0.0,0.0,0.0,0.0,0.0,0.0,0.0,0.0,0.0,0.0,0.0,0.0,0.0,0.0,0.0,0.0,0.0,0.0,0.0,0.0,0.0,0.0,0.0,0.0,0.0,-0.4184,-0.3943,-0.3633,-0.3899,-0.37,-0.2638,-0.2573,-0.248,-0.1789,-0.1819,0.0,0.0,0.0,0.0,0.0,0.0,0.0,0.0,0.0,0.0,0.0,0.0,0.0,0.0,0.0,0.0,0.0,0.0,0.0,0.0,0.0,0.0,0.0,0.0,0.0,0.0,0.0,0.0,0.0,0.0,0.0,0.0,0.0,0.0,0.0,0.0,0.0,0.0,0.0,0.0,0.0,0.0,0.0,0.0,0.0,0.0,0.0,0.0,0.0,0.0,0.0,0.0,0.0,0.0,0.0,0.0,0.0,0.0,0.0,0.0,0.0,0.0,0.0,0.0,0.0,0.0,0.0,0.0,0.0,0.0,0.0,0.0,0.0,0.0,0.0,0.0,0.0,0.0,0.0,0.0,0.0,0.0,0.0,0.0,0.0,0.0,0.0,0.0,0.0,0.0,0.0,0.0,0.0,0.0,0.0,0.0,0.0,0.0,0.0,0.0,0.0,0.0,-0.4741,-0.4221,-0.3982,-0.4302,-0.4269,-0.3664,-0.3664,-0.3366,-0.2884,-0.2728,0.0,0.0,0.0,0.0,0.0,0.0,0.0,0.0,0.0,0.0,0.0,0.0,0.0,0.0,0.0,0.0,0.0,0.0,0.0,0.0,0.0,0.0,0.0,0.0,0.0,0.0,0.0,0.0,0.0,0.0,0.0,0.0,0.0,0.0,0.0,0.0,0.0,0.0,0.0,0.0,0.0,0.0,0.0,0.0,0.0,0.0,0.0,0.0,0.0,0.0,0.0,0.0,0.0,0.0,0.0,0.0,0.0,0.0,0.0,0.0,0.0,0.0,0.0,0.0,0.0,0.0,0.0,0.0,0.0,0.0,0.0,0.0,0.0,0.0,0.0,0.0,0.0,0.0,0.0,0.0,0.0,0.0,0.0,0.0,0.0,0.0,0.0,0.0,0.0,0.0,0.0,0.0,0.0,0.0,0.0,0.0,0.0,0.0,0.0,0.0,0.0,0.0,0.0,-0.4577,-0.439,-0.4685,-0.4721,-0.4246,-0.426,-0.4057,-0.3418,0.0,0.0,0.0,0.0,0.0,0.0,0.0,0.0,0.0,0.0,0.0,0.0,0.0,0.0,0.0,0.0,0.0,0.0,0.0,0.0,0.0,0.0,0.0,0.0,0.0,0.0,0.0,0.0,0.0,0.0,0.0,0.0,0.0,0.0,0.0,0.0,0.0,0.0,0.0,0.0,0.0,0.0,0.0,0.0,0.0,0.0,0.0,0.0,0.0,0.0,0.0,0.0,0.0,0.0,0.0,0.0,0.0,0.0,0.0,0.0,0.0,0.0,0.0,0.0,0.0,0.0,0.0,0.0,0.0,0.0,0.0,0.0,0.0,0.0,0.0,0.0,0.0,0.0,0.0,0.0,0.0,0.0,0.0,0.0,0.0,0.0,0.0,0.0,0.0,0.0,0.0,0.0,0.0,0.0,0.0,0.0,0.0,0.0,0.0,0.0,0.0,0.0,0.0,0.0,-0.5371,-0.5175,-0.4929,-0.469,-0.4153,-0.4223,-0.3885,-0.2874,0.0,0.0,0.0,0.0,0.0,0.0,0.0,0.0,0.0,0.0,0.0,0.0,0.0,0.0]}],[{"header":{"parameterUnit":"kt","parameterCategory":2,"dx":1,"dy":1,"la1":29.285339999999998,"la2":30.599998999999997,"lo1":-89.70041500000002,"lo2":-87.6738589999976,"nx":112,"ny":82,"refTime":"2022-10-26T06:00:00:Z","depth":0,"parameterNumber":2,"parameterNumberName":"V-component_of_WINDS"},"data":[-11.4343,-11.4343,0.0,-10.9438,-10.5389,-10.1171,-9.6338,-9.1117,-8.741,-8.7408,-8.5194,-8.3487,-8.456,-8.0777,-7.7896,-7.8854,-7.605,-7.3743,0.0,-7.2822,-7.2578,-7.366,-7.6026,-7.994,-8.6254,-8.4548,0.0,0.0,0.0,0.0,0.0,0.0,-12.3555,-13.1338,-13.5835,-13.807,-13.7806,-14.0024,-14.1063,-14.092,-14.1675,-14.2389,-14.3367,-14.3938,-14.4911,-14.6242,-14.6242,-14.639,-14.6761,-14.6761,-14.4837,-14.1949,-14.1915,-13.9908,-13.6958,-13.6883,-13.7032,-13.7381,-13.7523,-13.774,-13.7815,-13.7815,-13.7815,-13.7815,-13.7815,-13.7815,-13.8189,-13.9855,-13.961,-13.9086,-14.0785,-14.1288,-14.1384,-14.1892,-14.3667,-14.5312,-14.5984,-14.7013,-14.7761,-14.7761,-14.7761,-14.7761,-14.7761,-14.7761,-14.7761,-14.7761,-14.7761,-14.8284,-15.0061,-14.8782,-14.8349,-15.0061,-14.6732,-14.3443,-14.1288,-13.9065,-13.7815,-13.7815,-13.7815,-13.6372,-13.3131,-13.2956,-13.1409,-12.8169,-12.8094,-12.8094,-12.8094,-12.8094,-12.8094,-12.8094,-12.8094,-12.8618,0.0,0.0,-10.5632,-10.0669,-9.6506,-9.245,-8.7948,-8.2885,-7.9082,-7.9058,-7.8701,-7.8639,-7.9715,-7.813,-7.6956,-7.7445,-7.5348,-7.347,0.0,-7.2465,-7.292,-7.4991,-8.0503,-8.6361,-9.2258,0.0,0.0,0.0,0.0,0.0,0.0,-12.0651,-12.7556,-13.2504,-13.6992,-13.9072,-13.8893,-14.0461,-14.1429,-14.1543,-14.2183,-14.3122,-14.4355,-14.4932,-14.5796,-14.6761,-14.6761,-14.6761,-14.6687,-14.6167,-14.4317,-14.1807,-14.1256,-13.9324,-13.6883,-13.6883,-13.6958,-13.7095,-13.7449,-13.7666,-13.7815,-13.7815,-13.7815,-13.7815,-13.7815,-13.7815,-13.804,-13.9182,-13.8659,-13.804,-13.9214,-13.9888,-14.0486,-14.1089,-14.3237,-14.5386,-14.591,-14.6938,-14.7761,-14.7761,-14.7761,-14.7761,-14.7761,-14.7761,-14.7761,-14.7761,-14.7761,-14.8135,-14.9313,-14.8393,-14.7944,-14.8508,-14.6059,-14.3742,-14.2152,-13.9386,-13.7815,-13.7815,-13.7815,-13.632,-13.308,-13.2981,-13.1409,-12.8169,-12.8094,-12.8094,-12.8094,-12.8094,-12.8094,-12.8094,-12.8618,-12.944,-9.6955,-9.3685,-9.1329,-9.1259,-8.5547,-8.1086,-8.5401,-8.1763,-7.7445,-7.7445,-7.6253,-7.5205,-7.5205,-7.5205,-7.4717,-7.3256,-7.4301,0.0,0.0,-7.4444,-7.6741,-8.0254,-8.7561,0.0,0.0,0.0,0.0,0.0,0.0,0.0,-12.082,-12.4352,-12.8876,-13.4627,-13.8019,-13.9788,-13.9436,-14.0755,-14.1866,-14.2841,-14.262,-14.3484,-14.5276,-14.5276,-14.5796,-14.6761,-14.6687,-14.6687,-14.6539,-14.4837,-14.3211,-14.1652,-14.0003,-13.8358,-13.6883,-13.6883,-13.6883,-13.6872,-13.7299,-13.7591,-13.7815,-13.7815,-13.7815,-13.7815,-13.7815,-13.7815,-13.7815,-13.7815,-13.7815,-13.7815,-13.7815,-13.9065,-14.0785,-14.249,-14.4059,-14.5685,-14.7387,-14.7761,-14.7761,-14.7761,-14.7761,-14.7761,-14.7761,-14.7761,-14.7761,-14.7761,-14.7761,-14.7686,-14.7686,-14.7686,-14.7013,-14.5386,-14.3835,-14.2209,-14.0584,-13.8829,-13.789,-13.7815,-13.7815,-13.6267,-13.3097,-13.2931,-13.1335,-12.8169,-12.8094,-12.8094,-12.8094,-12.8094,-12.8094,-12.8094,-12.9739,-13.0412,-8.7765,-8.7762,-8.7123,-8.3894,-8.2205,-8.0482,-7.7396,-7.5359,-7.4444,-7.5622,-7.549,0.0,0.0,0.0,-7.5419,-7.6181,0.0,-7.716,-7.7851,-7.8424,-8.3361,-9.5775,-9.8231,0.0,0.0,0.0,0.0,0.0,0.0,-12.1768,-12.2561,-12.9998,-13.4942,-13.6368,-13.9705,-14.1423,-14.1224,-14.1597,-14.211,-14.2974,-14.3458,-14.4341,-14.553,-14.6153,-14.655,-14.6687,-14.5431,-14.4911,-14.4763,-14.3211,-14.1571,-14.0003,-13.9547,-13.8358,-13.6883,-13.6883,-13.6958,-13.7106,-13.7294,-13.7503,-13.774,-13.7815,-13.7815,-13.7815,-13.7815,-13.7815,-13.7815,-13.7815,-13.7815,-13.7815,-13.7815,-13.9065,-14.0785,-14.2431,-14.4097,-14.5685,-14.7387,-14.7761,-14.7761,-14.7761,-14.7761,-14.7761,-14.7761,-14.7761,-14.7761,-14.7761,-14.7761,-14.7312,-14.6059,-14.5872,-14.5703,-14.5237,-14.3797,-14.2656,-14.2207,-14.0636,-13.914,-13.789,-13.6715,-13.5167,-13.3023,-13.1758,-13.0163,-12.8094,-12.8094,-12.8094,-12.8094,-12.8094,-12.8094,-12.8094,-12.9739,-13.1085,-7.9521,-8.0174,-8.0032,-7.6753,-7.6533,-7.6359,-7.3565,-7.2864,-7.3327,-7.486,0.0,0.0,0.0,0.0,0.0,0.0,-8.0301,-8.2568,-8.2788,-8.5833,-9.1143,-9.9658,0.0,0.0,0.0,0.0,0.0,0.0,-12.7288,-12.8451,-12.6525,-13.3525,-13.7474,-13.7399,-14.0747,-14.2408,-14.2263,-14.2119,-14.2753,-14.3846,-14.4042,-14.4863,-14.6199,-14.6661,-14.6487,-14.5647,-14.4689,-14.3872,-14.3122,-14.1496,-14.03,-13.925,-13.8581,-13.77,-13.6883,-13.6883,-13.6958,-13.7106,-13.7329,-13.7461,-13.7591,-13.774,-13.7815,-13.7815,-13.7815,-13.7815,-13.7815,-13.7815,-13.7815,-13.7815,-13.7815,-13.8563,-13.9663,-14.1437,-14.305,-14.4657,-14.6283,-14.7237,-14.7761,-14.7761,-14.7761,-14.7761,-14.7761,-14.7761,-14.7761,-14.7761,-14.7761,-14.6938,-14.4507,-14.4805,-14.4709,-14.3349,-14.2377,-14.1833,-14.1811,-14.0262,-13.8915,-13.789,-13.6993,-13.5744,-13.4121,-13.1684,-12.9714,-12.8094,-12.8094,-12.8094,-12.8094,-12.8094,-12.8094,-12.8169,-13.0487,-13.2057,-7.2508,-7.2202,-7.1763,-7.0567,-7.027,-7.0731,-7.2328,0.0,-7.3601,-7.605,0.0,-7.7803,-7.8723,0.0,0.0,-7.9009,-8.4869,-8.9034,-8.7836,-9.5837,-10.1462,-10.0208,-10.0436,0.0,0.0,-12.771,-13.3381,-13.1027,-13.4631,-13.5232,-13.1316,-13.5377,-13.7763,-13.7832,-14.1036,-14.2624,-14.2624,-14.248,-14.317,-14.5062,-14.4547,-14.5293,-14.7031,-14.671,-14.5715,-14.4243,-14.3865,-14.2891,-14.1459,-13.9834,-13.9027,-13.8953,-13.7403,-13.6883,-13.6883,-13.6883,-13.6883,-13.6958,-13.7329,-13.7461,-13.7516,-13.774,-13.7815,-13.7815,-13.7815,-13.7815,-13.7815,-13.7815,-13.7815,-13.7815,-13.7815,-13.7815,-13.8264,-14.0187,-14.1778,-14.3387,-14.5162,-14.6657,-14.7761,-14.7761,-14.7761,-14.7761,-14.7761,-14.7761,-14.7761,-14.7761,-14.7761,-14.6508,-14.3312,-14.4077,-14.3736,-14.0689,-14.0174,-14.0118,-14.0337,-13.884,-13.7815,-13.7815,-13.7815,-13.7067,-13.5295,-13.2332,-12.9864,-12.8094,-12.8094,-12.8094,-12.8094,-12.8094,-12.8094,-12.8169,-13.1408,-13.2903,-6.8974,-6.8109,-6.7356,-6.8302,-6.8551,-6.8942,0.0,0.0,0.0,-8.3001,-8.0817,-7.951,-8.5801,-8.312,-8.1425,-8.6166,-8.9307,-9.1473,-9.2347,-10.8275,0.0,-12.3207,-12.2574,0.0,-12.7583,-12.9028,-13.014,-13.0716,-13.2781,-13.3598,-13.2709,-13.5932,-13.7811,-13.776,-14.0964,-14.2624,-14.2624,-14.2421,-14.3266,-14.5129,-14.4908,-14.5603,-14.7438,-14.6019,-14.502,-14.4413,-14.1707,-14.0245,-13.9759,-13.8061,-13.7329,-13.7255,-13.6958,-13.6883,-13.6883,-13.6883,-13.6958,-13.718,-13.7329,-13.7535,-13.7591,-13.774,-13.7815,-13.7815,-13.7815,-13.7815,-13.7815,-13.7815,-13.7815,-13.7815,-13.7815,-13.7815,-13.8563,-14.1662,-14.2635,-14.3628,-14.6564,-14.7536,-14.7761,-14.7761,-14.7761,-14.7761,-14.7761,-14.7761,-14.7761,-14.7761,-14.7761,-14.6508,-14.3312,-14.3179,-14.2613,-14.0614,-13.9072,-13.8923,-14.0262,-13.884,-13.7815,-13.7815,-13.7815,-13.6491,-13.3598,-13.2856,-13.111,-12.8169,-12.8094,-12.8094,-12.8094,-12.8094,-12.8094,-12.8169,-13.1459,-13.2903,-6.449,-6.4561,-6.4755,-6.5501,-6.6872,0.0,0.0,-7.4596,-7.7374,-8.9182,-8.7265,-8.5815,-9.3754,-9.2597,-9.1809,-9.5747,-9.9657,-10.2939,-10.5367,-11.5263,-12.2917,-12.4826,-12.4534,0.0,-13.0151,-13.0039,-13.0667,-13.2974,-13.4609,-13.5499,-13.5499,-13.7811,-13.9112,-13.9086,-14.1397,-14.2925,-14.3266,-14.317,-14.3953,-14.5751,-14.5601,-14.5742,-14.6259,-14.5288,-14.3901,-14.1957,-14.0306,-13.9053,-13.8061,-13.718,-13.6883,-13.6883,-13.6883,-13.6883,-13.6883,-13.6883,-13.7032,-13.7244,-13.7401,-13.7467,-13.7666,-13.7815,-13.7815,-13.7815,-13.7815,-13.7815,-13.7815,-13.7815,-13.7815,-13.7815,-13.7815,-13.7815,-13.8264,-13.9963,-14.0956,-14.2247,-14.4788,-14.591,-14.6732,-14.7611,-14.7761,-14.7761,-14.7761,-14.7761,-14.7761,-14.7761,-14.7013,-14.5611,-14.3237,-14.2152,-14.1288,-14.0411,-13.8808,-13.8455,-14.0187,-13.884,-13.7815,-13.7815,-13.7815,-13.6342,-13.3097,-13.2931,-13.1409,-12.8169,-12.8094,-12.8094,-12.8094,-12.8094,-12.8094,-12.8169,-13.1459,-13.2903,-6.0065,-6.1508,-6.3066,-6.3655,-6.6462,0.0,-7.748,-7.8219,-8.1205,-9.4159,-9.375,-9.3462,-10.1456,-10.2401,-10.269,-10.4932,-10.9978,-11.5121,-11.9175,-12.0833,-12.1901,-12.2396,-12.2751,-12.5037,-13.0428,-13.141,-13.2803,-13.5331,-13.7016,-13.7811,-13.7811,-13.9473,-14.0314,-14.0314,-14.183,-14.2977,-14.3863,-14.3863,-14.4655,-14.6109,-14.6183,-14.5715,-14.4796,-14.4572,-14.2662,-13.9649,-13.9338,-13.8322,-13.6883,-13.6883,-13.6946,-13.6946,-13.6946,-13.6946,-13.6935,-13.6996,-13.7145,-13.7281,-13.7429,-13.7591,-13.7666,-13.7815,-13.7815,-13.7815,-13.7815,-13.7815,-13.7815,-13.7815,-13.7815,-13.7815,-13.7815,-13.7815,-13.789,-13.8189,-13.9406,-14.0865,-14.2864,-14.434,-14.5611,-14.7013,-14.7536,-14.7761,-14.7761,-14.7761,-14.7761,-14.7761,-14.6283,-14.4639,-14.3013,-14.1405,-14.0187,-13.9888,-13.8638,-13.8339,-13.9738,-13.8563,-13.7815,-13.7815,-13.7815,-13.6342,-13.3097,-13.2931,-13.1409,-12.8169,-12.8094,-12.8094,-12.8094,-12.8094,-12.8094,-12.8169,-13.1109,-13.2679,-5.7243,-5.9024,-6.1984,-6.4768,-6.8942,0.0,-7.524,-8.0811,-8.8043,-9.6699,-9.8097,-10.0133,-10.7964,-10.7073,-10.6589,-11.1059,-11.458,-11.9459,-12.6915,-12.8267,-12.9121,-13.0755,-13.124,-13.1843,-13.2709,-13.4126,-13.516,-13.5521,-13.7016,-13.7858,-13.7858,-13.9447,-14.0314,-14.0314,-14.183,-14.2977,-14.3863,-14.3863,-14.4317,-14.5372,-14.6042,-14.5573,-14.408,-14.3438,-14.1928,-13.983,-13.8455,-13.7461,-13.6883,-13.7083,-13.7145,-13.7145,-13.7206,-13.7312,-13.7411,-13.7355,-13.7484,-13.7558,-13.7666,-13.7666,-13.7815,-13.7815,-13.7815,-13.7815,-13.7815,-13.7815,-13.7815,-13.7815,-13.7815,-13.7815,-13.7815,-13.7815,-13.8189,-13.9663,-14.0187,-14.1159,-14.426,-14.5124,-14.5312,-14.5461,-14.6657,-14.7761,-14.7761,-14.7761,-14.7761,-14.7761,-14.6283,-14.4639,-14.3084,-14.1437,-13.9738,-13.8264,-13.7965,-13.789,-13.8114,-13.7965,-13.7815,-13.7815,-13.7815,-13.6342,-13.3097,-13.2931,-13.1409,-12.8169,-12.8094,-12.8094,-12.8094,-12.8094,-12.8094,-12.8169,-12.9886,-13.1529,-5.5182,-5.7932,-6.1528,-6.3809,0.0,0.0,-7.9478,-8.5278,-9.2657,-10.3284,-10.6257,-10.9337,-11.7209,-11.7566,-11.7701,-12.0509,-12.3581,-12.6804,-13.0185,-13.0827,-13.132,-13.2303,-13.2612,-13.3237,-13.4415,-13.5137,-13.6294,-13.8172,-13.8869,-13.9664,-14.0602,-14.1769,-14.2438,-14.2438,-14.3571,-14.4561,-14.5301,-14.4901,-14.5298,-14.6665,-14.5566,-14.4434,-14.3319,-14.2042,-14.0398,-13.853,-13.7971,-13.737,-13.7083,-13.7386,-13.737,-13.737,-13.7312,-13.737,-13.7467,-13.7374,-13.7484,-13.7666,-13.7666,-13.774,-13.7815,-13.7815,-13.7815,-13.7815,-13.7815,-13.7815,-13.7815,-13.7815,-13.7815,-13.7815,-13.7815,-13.7815,-13.7965,-13.8766,-13.8915,-13.9514,-14.1811,-14.3124,-14.4433,-14.6283,-14.7237,-14.7761,-14.7761,-14.7761,-14.7761,-14.7761,-14.5536,-14.3592,-14.2934,-14.0539,-13.8563,-13.789,-13.7815,-13.7815,-13.7815,-13.7815,-13.7815,-13.7815,-13.7815,-13.6342,-13.3097,-13.2931,-13.1409,-12.8169,-12.8094,-12.8094,-12.8094,-12.8094,-12.8094,-12.8169,-12.9736,-13.1327,-5.407,0.0,0.0,0.0,0.0,0.0,-8.6597,-9.2465,-9.8717,-10.7822,-11.2394,-11.6568,-12.2725,-12.4608,-12.5965,-12.7911,-13.0185,-13.1677,-13.1677,-13.1924,-13.2129,-13.2488,-13.3094,-13.4031,-13.5354,-13.627,-13.7786,0.0,-14.0747,-14.1469,-14.2624,-14.3266,-14.359,-14.3863,-14.4811,-14.5527,-14.639,-14.5527,-14.5898,-14.7378,-14.5168,-14.3531,-14.2393,-14.1051,-13.9406,-13.7598,-13.7653,-13.7542,-13.7327,-13.7485,-13.7598,-13.7467,-13.7485,-13.7542,-13.7523,-13.7523,-13.7633,-13.7666,-13.7666,-13.774,-13.7815,-13.7815,-13.7815,-13.7815,-13.7815,-13.7815,-13.7815,-13.7815,-13.7815,-13.7815,-13.7815,-13.7815,-13.7815,-13.7815,-13.7815,-13.8413,-14.0614,-14.1649,-14.2956,-14.5835,-14.6732,-14.7237,-14.7686,-14.7761,-14.7761,-14.7761,-14.5013,-14.292,-14.2859,-13.9888,-13.7815,-13.7815,-13.7815,-13.7815,-13.7815,-13.7815,-13.7815,-13.7815,-13.7815,-13.6342,-13.3097,-13.2931,-13.1409,-12.8169,-12.8094,-12.8094,-12.8094,-12.8094,-12.8094,-12.8094,-12.9265,-13.0908,0.0,0.0,0.0,-7.668,-8.1887,-8.6719,-9.6097,-10.3196,-10.7692,-10.8084,-11.4225,-12.0055,-12.1876,-12.4708,-12.7863,-13.0931,-13.1502,-13.1677,-13.1986,-13.2189,-13.2488,-13.2684,-13.4344,-13.5475,-13.5475,-13.8364,-14.0241,-14.0314,-14.1686,-14.2624,-14.2624,-14.2725,-14.3049,-14.3863,-14.4811,-14.5527,-14.639,-14.5527,-14.5676,-14.6458,-14.483,-14.3196,-14.1488,-14.0676,-13.9406,-13.7598,-13.7762,-13.7708,-13.7598,-13.7598,-13.7598,-13.7598,-13.7598,-13.7708,-13.7815,-13.7815,-13.7815,-13.7815,-13.7815,-13.7815,-13.7815,-13.7815,-13.7815,-13.7815,-13.7815,-13.7815,-13.7815,-13.7815,-13.7815,-13.7815,-13.7815,-13.7815,-13.7815,-13.7815,-13.7815,-13.8766,-14.2036,-14.1574,-14.0883,-14.2657,-14.4209,-14.5835,-14.7462,-14.7761,-14.7761,-14.7761,-14.5013,-14.292,-14.2859,-13.9888,-13.7815,-13.7815,-13.7815,-13.7815,-13.7815,-13.7815,-13.7815,-13.7815,-13.7815,-13.6342,-13.3097,-13.2931,-13.1409,-12.8169,-12.8094,-12.8094,-12.8094,-12.8094,-12.8094,-12.8094,-12.8169,-12.9864,-5.6545,-6.4807,-7.3938,-7.8714,-8.6201,-9.3526,-9.7743,-10.4364,-10.9866,-11.0941,-11.8277,-12.4634,-12.5206,-12.7107,-12.9147,-13.1216,-13.1781,-13.1884,-13.1986,-13.2389,-13.2684,-13.2782,-13.4344,-13.5908,-13.6992,-13.9014,-14.0747,-14.1758,-14.2336,0.0,-14.3383,-14.3477,-14.413,-14.5527,-14.5824,-14.639,-14.7318,-14.639,-14.639,-14.7244,-14.3913,-14.2351,-14.2334,-13.98,-13.8339,-13.7762,-13.7815,-13.7762,-13.7762,-13.7762,-13.7762,-13.7762,-13.7762,-13.7762,-13.7815,-13.7815,-13.7815,-13.7815,-13.7815,-13.7815,-13.7815,-13.7815,-13.7815,-13.7815,-13.7815,-13.7815,-13.7815,-13.7815,-13.7815,-13.7815,-13.7815,-13.7815,-13.7815,-13.7815,-13.7815,-13.8114,-13.9289,-13.9909,-14.118,-14.3907,-14.4844,-14.576,-14.7462,-14.7761,-14.7761,-14.7761,-14.5013,-14.292,-14.2859,-13.9888,-13.7815,-13.7815,-13.7815,-13.7815,-13.7815,-13.7815,-13.7815,-13.7815,-13.7815,-13.6342,-13.3097,-13.2931,-13.1409,-12.8169,-12.8094,-12.8094,-12.8094,-12.8094,-12.8094,-12.8094,-12.8094,-12.8692,-6.1456,-7.0093,-7.9236,-8.655,-9.4128,-10.0789,-10.4539,-10.9704,-11.4031,-11.5005,-12.1059,-12.6332,-12.6806,-12.8708,-13.0432,-13.143,-13.1781,-13.1986,-13.2088,-13.2389,-13.2684,-13.2878,-13.4946,-13.6799,-13.8121,-14.0318,-14.2177,-14.3404,-14.3266,-14.3361,-14.3863,-14.3863,-14.4317,-14.5452,-14.6039,-14.6591,-14.7258,-14.6665,-14.6795,-14.7686,-14.352,-14.2031,-14.2751,-13.9386,-13.7815,-13.7815,-13.7815,-13.7815,-13.7815,-13.7815,-13.7815,-13.7815,-13.7815,-13.7815,-13.7815,-13.7815,-13.7815,-13.7815,-13.7815,-13.7815,-13.7815,-13.7815,-13.7815,-13.7815,-13.7815,-13.7815,-13.7815,-13.7815,-13.7815,-13.7815,-13.7815,-13.7815,-13.7815,-13.7815,-13.7815,-13.7815,-13.7815,-13.8638,-14.0187,-14.2987,-14.3947,-14.4881,-14.6508,-14.7312,-14.7761,-14.7761,-14.5013,-14.292,-14.2859,-13.9888,-13.7815,-13.7815,-13.7815,-13.7815,-13.7815,-13.7815,-13.7815,-13.7815,-13.7815,-13.6342,-13.3097,-13.2931,-13.1409,-12.8169,-12.8094,-12.8094,-12.8094,-12.8094,-12.8094,-12.8094,-12.8094,-12.8393,-6.8256,-7.4833,-8.2806,-9.9354,-10.4872,-10.8284,-11.5738,-11.8652,-11.9729,-11.98,-12.244,-12.5223,-12.6793,-12.9504,-13.1502,-13.1573,-13.1573,-13.1781,-13.2317,-13.2317,-13.2587,-13.307,-13.5836,-13.8099,-13.9119,-14.1892,-14.4158,-14.5136,-14.4403,-14.3953,-14.3968,-14.3968,-14.3968,-14.4057,-14.5603,-14.6458,-14.6458,-14.6458,-14.6859,-14.7686,-14.352,-14.2093,-14.2751,-13.9386,-13.7815,-13.7815,-13.7815,-13.7815,-13.7815,-13.7815,-13.7815,-13.7815,-13.7815,-13.7815,-13.7815,-13.7815,-13.7815,-13.7815,-13.7815,-13.7815,-13.7815,-13.7815,-13.7815,-13.7815,-13.7815,-13.7815,-13.7815,-13.7815,-13.7815,-13.7815,-13.7815,-13.7815,-13.7815,-13.7815,-13.7815,-13.7815,-13.7815,-13.7815,-13.8339,-14.0037,-14.1649,-14.3237,-14.4938,-14.6564,-14.7611,-14.7686,-14.5013,-14.292,-14.2859,-13.9888,-13.7815,-13.7815,-13.7815,-13.7815,-13.7815,-13.7815,-13.7815,-13.7815,-13.7815,-13.6342,-13.3097,-13.2931,-13.1409,-12.8169,-12.8094,-12.8094,-12.8094,-12.8094,-12.8094,-12.8094,-12.8094,-12.8891,-7.1782,-8.6101,-9.7885,-10.2262,-10.8923,-11.4915,-11.6988,-11.861,-12.0085,-12.1227,-12.4081,-12.6793,-12.8362,-12.929,-13.0217,-13.1359,-13.1781,-13.1986,-13.2389,-13.2587,-13.2782,-13.307,-13.4897,-13.6868,-13.9046,-14.0958,-14.2986,-14.4988,-14.5056,-14.5141,-14.5677,-14.5751,-14.6039,-14.673,-14.7122,-14.7378,-14.7378,-14.7378,-14.7512,-14.7686,-14.4226,-14.2657,-14.2751,-13.9386,-13.7815,-13.7815,-13.7815,-13.7815,-13.7815,-13.7815,-13.7815,-13.7815,-13.7815,-13.7815,-13.7815,-13.7815,-13.7815,-13.7815,-13.7815,-13.7815,-13.7815,-13.7815,-13.7815,-13.7815,-13.7815,-13.7815,-13.7815,-13.7815,-13.7815,-13.7815,-13.7815,-13.7815,-13.7815,-13.7815,-13.7815,-13.7815,-13.7815,-13.7815,-13.8339,-14.0037,-14.0711,-14.1908,-14.473,-14.5532,-14.6227,-14.7536,-14.5013,-14.292,-14.2859,-13.9888,-13.7815,-13.7815,-13.7815,-13.7815,-13.7815,-13.7815,-13.7815,-13.7815,-13.7815,-13.6342,-13.3097,-13.2931,-13.1409,-12.8169,-12.8094,-12.8094,-12.8094,-12.8094,-12.8094,-12.8094,-12.8094,-12.8319,-7.1521,-8.8608,-10.3228,-10.6634,-11.2485,-11.7437,-11.7374,-11.9158,-12.1227,-12.2868,-12.5349,-12.7763,-12.9338,-13.0096,-13.078,-13.1638,-13.1781,-13.1884,-13.2117,-13.2488,-13.2684,-13.2974,-13.4747,-13.6929,-13.9492,-14.1512,-14.3678,-14.6109,-14.597,-14.5896,-14.639,-14.639,-14.6458,-14.6599,-14.7318,-14.7571,-14.7122,-14.7571,-14.7761,-14.7686,-14.447,-14.2526,-14.1704,-13.9012,-13.7815,-13.7815,-13.7815,-13.7815,-13.7815,-13.7815,-13.7815,-13.7815,-13.7815,-13.7815,-13.7815,-13.7815,-13.7815,-13.7815,-13.7815,-13.7815,-13.7815,-13.7815,-13.7815,-13.7815,-13.7815,-13.7815,-13.7815,-13.7815,-13.7815,-13.7815,-13.7815,-13.7815,-13.7815,-13.7815,-13.7815,-13.7815,-13.7815,-13.7815,-13.8114,-13.9065,-13.9813,-14.1138,-14.3736,-14.4762,-14.5757,-14.7462,-14.5013,-14.2864,-14.29,-13.9909,-13.7815,-13.7815,-13.7815,-13.7815,-13.7815,-13.7815,-13.7815,-13.7815,-13.7815,-13.6342,-13.3097,-13.2931,-13.1409,-12.8169,-12.8094,-12.8094,-12.8094,-12.8094,-12.8094,-12.8094,-12.8094,-12.8094,-7.1182,-8.7367,-10.2676,-11.0738,-11.5091,-11.7445,-11.7445,-11.9871,-12.2583,-12.4322,-12.6045,-12.7938,-12.9661,-13.0898,-13.1801,-13.2016,-13.1884,-13.1709,-13.1801,-13.2272,-13.2638,-13.2614,-13.4949,-13.7431,-13.9987,-14.2337,-14.4721,-14.718,-14.6848,-14.6524,-14.6524,-14.6524,-14.6253,-14.5601,-14.6934,-14.7378,-14.6524,-14.7318,-14.7761,-14.7686,-14.462,-14.2227,-14.0283,-13.8563,-13.7815,-13.7815,-13.7815,-13.7815,-13.7815,-13.7815,-13.7815,-13.7815,-13.7815,-13.7815,-13.7815,-13.7815,-13.7815,-13.7815,-13.7815,-13.7815,-13.7815,-13.7815,-13.7815,-13.7815,-13.7815,-13.7815,-13.7815,-13.7815,-13.7815,-13.7815,-13.7815,-13.7815,-13.7815,-13.7815,-13.7815,-13.7815,-13.7815,-13.7815,-13.7815,-13.7815,-13.899,-14.0486,-14.1961,-14.3661,-14.5458,-14.7162,-14.4806,-14.2732,-14.2565,-13.978,-13.7815,-13.7815,-13.7815,-13.7815,-13.7815,-13.7815,-13.7815,-13.7815,-13.7815,-13.6342,-13.3097,-13.2931,-13.1409,-12.8169,-12.8094,-12.8094,-12.8094,-12.8094,-12.8094,-12.8094,-12.8094,-12.8094,-8.036,-9.0751,-10.132,-11.0453,-11.5091,-11.7445,-11.7445,-11.9989,-12.2801,-12.4614,-12.5186,-12.6382,-12.9517,-13.0235,-13.0881,-13.2174,-13.2289,-13.1886,-13.0861,-13.2431,-13.3277,-13.2213,-13.4208,-13.6595,-13.9145,-14.0977,-14.3073,-14.5461,-14.6824,-14.7512,-14.7512,-14.7512,-14.7453,-14.7318,-14.7571,-14.7629,-14.7512,-14.7629,-14.7761,-14.7686,-14.5742,-14.3274,-14.0283,-13.8563,-13.7815,-13.7815,-13.7815,-13.7815,-13.7815,-13.7815,-13.7815,-13.7815,-13.7815,-13.7815,-13.7815,-13.7815,-13.7815,-13.7815,-13.7815,-13.7815,-13.7815,-13.7815,-13.7815,-13.7815,-13.7815,-13.7815,-13.7815,-13.7815,-13.7815,-13.7815,-13.7815,-13.7815,-13.7815,-13.7815,-13.7815,-13.7815,-13.7815,-13.7815,-13.7815,-13.7815,-13.804,-13.8339,-13.8638,-14.1234,-14.3778,-14.5386,-14.4059,-14.2341,-14.0956,-13.9012,-13.7815,-13.7815,-13.7815,-13.7815,-13.7815,-13.7815,-13.7815,-13.7815,-13.7815,-13.6342,-13.3097,-13.2931,-13.1409,-12.8169,-12.8094,-12.8094,-12.8094,-12.8094,-12.8094,-12.8094,-12.8094,-12.8094,-8.3878,-9.2403,-9.9908,-10.9341,-11.4611,-11.7445,-11.7445,-11.9895,-12.1442,-11.8515,-12.2481,-12.6596,-12.6733,-12.9303,-13.1436,-13.1364,-13.1509,-13.1142,-12.9717,-13.0975,-13.2071,-13.2303,-13.3794,-13.5972,-13.8963,-13.95,-14.1273,-14.4994,-14.5218,-14.5966,-14.7611,-14.7761,-14.7761,-14.7761,-14.7761,-14.7761,-14.7761,-14.7761,-14.7761,-14.7686,-14.5218,-14.3199,-14.1554,-13.9012,-13.7815,-13.7815,-13.7815,-13.7815,-13.7815,-13.7815,-13.7815,-13.7815,-13.7815,-13.7815,-13.7815,-13.7815,-13.7815,-13.7815,-13.7815,-13.7815,-13.7815,-13.7815,-13.7815,-13.7815,-13.7815,-13.7815,-13.7815,-13.7815,-13.7815,-13.7815,-13.7815,-13.7815,-13.7815,-13.7815,-13.7815,-13.7815,-13.7815,-13.7815,-13.7815,-13.7815,-13.7815,-13.7815,-13.7815,-13.9909,-14.2377,-14.4788,-14.3891,-14.2546,-14.1778,-13.9386,-13.7815,-13.7815,-13.7815,-13.7815,-13.7815,-13.7815,-13.7815,-13.7815,-13.7815,-13.6342,-13.3097,-13.2955,-13.1435,-12.8169,-12.8094,-12.8094,-12.8094,-12.8094,-12.8094,-12.8094,-12.8094,-12.8094,-8.2543,-9.1328,-9.8636,-10.6802,-11.243,-11.5967,-11.5967,-11.8181,-11.8724,-11.3461,-12.018,-12.6465,-12.4482,-12.8359,-13.1509,-13.0284,-13.0622,-13.0573,-12.8611,-12.9666,-13.085,-13.1734,-13.3149,-13.4988,-13.7591,-13.7841,-13.946,-14.3349,-14.3498,-14.447,-14.7088,-14.7536,-14.7761,-14.7761,-14.7761,-14.7761,-14.7761,-14.7761,-14.7761,-14.7686,-14.447,-14.29,-14.2751,-13.9759,-13.8189,-13.7815,-13.7815,-13.7815,-13.7815,-13.7815,-13.7815,-13.7815,-13.7815,-13.7815,-13.7815,-13.7815,-13.7815,-13.7815,-13.7815,-13.7815,-13.7815,-13.7815,-13.7815,-13.7815,-13.7815,-13.7815,-13.7815,-13.7815,-13.7815,-13.7815,-13.7815,-13.7815,-13.7815,-13.7815,-13.7815,-13.7815,-13.7815,-13.7815,-13.7815,-13.7815,-13.7815,-13.7815,-13.7815,-13.9236,-14.133,-14.4246,-14.3648,-14.2751,-14.2322,-13.9685,-13.7815,-13.7815,-13.7815,-13.7815,-13.7815,-13.7815,-13.7815,-13.7815,-13.7815,-13.6342,-13.3097,-13.2978,-13.1459,-12.8169,-12.8094,-12.8094,-12.8094,-12.8094,-12.8094,-12.8094,-12.8094,-12.8094,-7.4379,-8.5579,-9.771,-10.1441,-10.7037,-11.1556,-11.1556,-11.2919,-11.4354,-11.5415,-11.9892,-12.4159,-12.5492,-12.7459,-12.8812,-12.8668,-13.0414,-13.0633,-12.7725,-12.9813,-13.119,-12.9854,-13.1705,-13.315,-13.3524,-13.6117,-13.804,-13.8488,-14.2526,-14.5143,-14.5443,-14.6863,-14.7761,-14.7761,-14.7761,-14.7761,-14.7761,-14.7761,-14.7761,-14.7686,-14.447,-14.29,-14.2825,-14.0956,-13.9236,-13.7815,-13.7815,-13.7815,-13.7815,-13.7815,-13.7815,-13.7815,-13.7815,-13.7815,-13.7815,-13.7815,-13.7815,-13.7815,-13.7815,-13.7815,-13.7815,-13.7815,-13.7815,-13.7815,-13.7815,-13.7815,-13.7815,-13.7815,-13.7815,-13.7815,-13.7815,-13.7815,-13.7815,-13.7815,-13.7815,-13.7815,-13.7815,-13.7815,-13.7815,-13.7815,-13.7815,-13.7815,-13.7815,-13.9236,-14.0956,-14.2825,-14.292,-14.2322,-14.0806,-13.8937,-13.7815,-13.7815,-13.7815,-13.7815,-13.7815,-13.7815,-13.7815,-13.7815,-13.7815,-13.6342,-13.3097,-13.2978,-13.1459,-12.8169,-12.8094,-12.8094,-12.8094,-12.8094,-12.8094,-12.8094,-12.8094,-12.8094,-7.487,-8.5842,-9.6204,-9.8361,-10.2887,-10.7045,-10.7979,-10.8859,-10.9675,-11.0403,-11.7313,-12.2646,-12.0585,-12.2404,-12.4602,-12.5984,-12.5775,-12.578,-12.6859,-12.8491,-12.9727,-13.0026,-13.0908,-13.1833,-13.288,-13.3179,-13.46,-13.7591,-13.8787,-14.1105,-14.4994,-14.5816,-14.6714,-14.7686,-14.7761,-14.7761,-14.7761,-14.7761,-14.7761,-14.7686,-14.5368,-14.4246,-14.4171,-14.1554,-13.9984,-13.9236,-13.8264,-13.7815,-13.7815,-13.7815,-13.7815,-13.7815,-13.7815,-13.7815,-13.7815,-13.7815,-13.7815,-13.7815,-13.7815,-13.7815,-13.7815,-13.7815,-13.7815,-13.7815,-13.7815,-13.7815,-13.7815,-13.7815,-13.7815,-13.7815,-13.7815,-13.7815,-13.7815,-13.7815,-13.7815,-13.7815,-13.7815,-13.7815,-13.7815,-13.7815,-13.7815,-13.7815,-13.7815,-13.8413,-13.9386,-14.1105,-14.2227,-14.2676,-14.1928,-13.946,-13.7815,-13.7815,-13.7815,-13.7815,-13.7815,-13.7815,-13.7815,-13.7815,-13.7815,-13.6394,-13.3127,-13.2903,-13.1459,-12.8169,-12.8094,-12.8094,-12.8094,-12.8094,-12.8094,-12.8094,-12.8094,-12.8094,-7.1709,-8.1919,-9.1012,-9.2092,-9.7283,-10.2747,-10.5264,-10.5279,-10.5362,-10.7239,-11.4874,-12.0138,-11.64,-11.7638,-11.9829,-12.1934,-12.1678,-12.2416,-12.6048,-12.7477,-12.8468,-12.959,-12.9739,-13.0188,-13.1384,-13.0861,-13.1833,-13.5348,-13.5572,-13.7666,-14.2751,-14.3947,-14.5293,-14.6938,-14.7462,-14.7761,-14.7761,-14.7761,-14.7761,-14.7686,-14.6041,-14.5218,-14.5143,-14.2825,-14.1255,-14.0283,-13.9086,-13.8264,-13.7815,-13.7815,-13.7815,-13.7815,-13.7815,-13.7815,-13.7815,-13.7815,-13.7815,-13.7815,-13.7815,-13.8114,-13.8563,-13.8563,-13.8563,-13.8563,-13.8563,-13.8189,-13.7815,-13.7815,-13.7815,-13.7815,-13.7815,-13.7815,-13.792,-13.8143,-13.7997,-13.7868,-13.7997,-13.7971,-13.7815,-13.7868,-13.7868,-13.7815,-13.7815,-13.7815,-13.8413,-14.0059,-14.133,-14.2152,-14.2152,-14.0059,-13.8413,-13.789,-13.7815,-13.7815,-13.7815,-13.7815,-13.7815,-13.7815,-13.7815,-13.6394,-13.3104,-13.2955,-13.1459,-12.8169,-12.8094,-12.8094,-12.8094,-12.8094,-12.8094,-12.8094,-12.8094,-12.8094,-6.196,-7.1276,-8.1025,-8.1025,-8.9402,-9.8862,-10.3556,-10.2184,-10.1751,-10.8106,-11.3233,-11.6049,-11.4461,-11.4172,-11.4677,-11.6266,-11.9121,-12.2147,-12.5322,-12.7105,-12.8094,-12.8094,-12.8094,-12.8094,-12.8094,-12.9515,-13.0412,-13.0487,-13.3628,-13.617,-13.7815,-14.1105,-14.3648,-14.5218,-14.6863,-14.7761,-14.7761,-14.7761,-14.7761,-14.7686,-14.6041,-14.5218,-14.5218,-14.5143,-14.3424,-14.0358,-14.0283,-13.9386,-13.7815,-13.7815,-13.7815,-13.7815,-13.7815,-13.7815,-13.7815,-13.7815,-13.7815,-13.7815,-13.7815,-13.8937,-14.0283,-14.0283,-14.0283,-14.0283,-14.0283,-13.9161,-13.7815,-13.7815,-13.7815,-13.7815,-13.7815,-13.7815,-13.7997,-13.8781,-13.8429,-13.7947,-13.8471,-13.8191,-13.7868,-13.7971,-13.792,-13.7815,-13.7815,-13.7815,-13.8413,-14.0059,-14.0358,-14.0358,-14.0358,-14.0358,-13.9685,-13.7965,-13.7815,-13.7815,-13.7815,-13.7815,-13.7815,-13.7815,-13.7815,-13.6394,-13.3104,-13.2955,-13.1459,-12.8169,-12.8094,-12.8094,-12.8094,-12.8094,-12.8094,-12.8094,-12.8094,-12.8094,-5.8319,-6.7088,-7.6981,-8.1386,-8.7597,-9.3302,-9.5901,-10.1679,-10.5434,-10.204,-10.6806,-11.15,-11.0994,-11.1789,-11.3537,-11.6699,-11.7148,-11.8943,-12.4271,-12.6321,-12.7531,-12.8045,-12.8094,-12.8094,-12.8094,-12.8543,-12.9291,-13.0337,-13.1384,-13.3254,-13.6095,-13.9386,-14.1928,-14.3573,-14.6265,-14.7761,-14.7761,-14.7761,-14.7761,-14.7761,-14.7162,-14.6938,-14.6863,-14.5742,-14.462,-14.3648,-14.2526,-14.1105,-13.9535,-13.9535,-13.8862,-13.7815,-13.7815,-13.7815,-13.7815,-13.7815,-13.8563,-13.9535,-13.9535,-14.0657,-14.2078,-14.2078,-14.2078,-14.1908,-14.1042,-14.0386,-13.971,-13.8509,-13.8209,-13.8299,-13.8518,-13.8596,-13.8672,-13.8883,-13.8781,-13.8672,-13.8859,-13.8504,-13.8191,-13.8271,-13.8018,-13.7815,-13.7815,-13.7815,-13.7965,-13.8563,-13.961,-13.9535,-13.7292,-13.8937,-13.9311,-13.6544,-13.7142,-13.7815,-13.7815,-13.7815,-13.7815,-13.7815,-13.7815,-13.6394,-13.3104,-13.2955,-13.1459,-12.8169,-12.8094,-12.8094,-12.8094,-12.8094,-12.8094,-12.8094,-12.8094,-12.8094,-5.7018,-6.4389,-7.3298,-7.9003,-8.3192,-8.7236,-9.2435,-9.8573,-10.1895,-9.749,-10.204,-10.6878,-10.7528,-10.9057,-11.1316,-11.4375,-11.449,-11.6607,-12.3605,-12.5673,-12.6786,-12.797,-12.8094,-12.8094,-12.8094,-12.8094,-12.8468,-12.944,-12.9515,-13.0711,-13.3403,-13.6694,-13.9236,-14.0881,-14.477,-14.6789,-14.6789,-14.7387,-14.7387,-14.6789,-14.7387,-14.7761,-14.7686,-14.6639,-14.5816,-14.5143,-14.4171,-14.2825,-14.133,-14.133,-14.0657,-13.9759,-13.9759,-13.9759,-13.9759,-13.9759,-14.0432,-14.133,-14.133,-14.2377,-14.3797,-14.3797,-14.3885,-14.3793,-14.3002,-14.2015,-14.0856,-13.9802,-13.9048,-13.8709,-13.9041,-13.9024,-13.9052,-13.9334,-13.9127,-13.9024,-13.9175,-13.8898,-13.8622,-13.8643,-13.8449,-13.8209,-13.8095,-13.8047,-13.7997,-13.7868,-13.8766,-13.8466,-13.5796,-13.7793,-13.8466,-13.5796,-13.6895,-13.7868,-13.7868,-13.7868,-13.7815,-13.7815,-13.7868,-13.6447,-13.3155,-13.2955,-13.1459,-12.8169,-12.8094,-12.8094,-12.8094,-12.8094,-12.8094,-12.8094,-12.8094,-12.8094,-5.7307,-6.2655,-6.9687,-7.4742,-7.7198,-8.1097,-9.1641,-9.3302,-9.2796,-9.3729,-9.7779,-10.1679,-10.334,-10.5217,-10.7446,-10.985,-11.1665,-11.5493,-12.3308,-12.5146,-12.6325,-12.8094,-12.8244,-12.8244,-12.8094,-12.8094,-12.8094,-12.8094,-12.8094,-12.8767,-13.0188,-13.3478,-13.6021,-13.7591,-14.2302,-14.4919,-14.5069,-14.6714,-14.6789,-14.5218,-14.6789,-14.7611,-14.7761,-14.7761,-14.6863,-14.5368,-14.5368,-14.447,-14.305,-14.305,-14.2975,-14.29,-14.29,-14.29,-14.29,-14.29,-14.2975,-14.305,-14.3104,-14.4152,-14.5423,-14.5478,-14.5693,-14.6036,-14.5886,-14.3835,-14.1472,-14.1397,-14.0219,-13.9099,-13.9352,-13.9276,-13.9222,-13.9821,-13.947,-13.9127,-13.9525,-13.9297,-13.901,-13.9162,-13.9086,-13.885,-13.8518,-13.8396,-13.8299,-13.792,-13.7971,-13.7372,-13.5549,-13.6848,-13.7223,-13.5549,-13.6848,-13.7872,-13.8022,-13.792,-13.7868,-13.7868,-13.7971,-13.6524,-13.3352,-13.3006,-13.1459,-12.8169,-12.8094,-12.8094,-12.8094,-12.8094,-12.8094,-12.8094,-12.8094,-12.8094,-5.4994,-5.9216,-6.5499,-7.3876,-7.6259,-7.792,-8.3047,-8.7669,-8.9383,-8.398,-8.7395,-9.1914,-9.3806,-9.4334,-9.76,-10.7076,-11.2969,-11.8275,-12.377,-12.5709,-12.7403,-12.9614,-12.9889,-12.944,-12.8244,-12.8094,-12.8094,-12.8094,-12.8094,-12.8244,-12.8618,-13.1758,-13.4301,-13.5946,-13.9535,-14.2078,-14.3424,-14.4994,-14.5592,-14.5218,-14.5592,-14.6489,-14.7761,-14.7761,-14.7536,-14.7162,-14.7162,-14.619,-14.4695,-14.4695,-14.3947,-14.29,-14.29,-14.29,-14.29,-14.29,-14.3648,-14.4675,-14.5018,-14.6139,-14.7661,-14.7937,-14.8133,-14.8016,-14.6991,-14.5287,-14.3446,-14.2159,-14.0778,-13.9765,-13.9808,-13.9808,-13.9745,-13.9885,-13.9866,-13.978,-13.9838,-13.9565,-13.9326,-13.9313,-13.9131,-13.898,-13.8844,-13.8705,-13.8504,-13.8421,-13.8271,-13.7121,-13.4224,-13.5321,-13.5771,-13.4,-13.5396,-13.6896,-13.8095,-13.8122,-13.8122,-13.8122,-13.8072,-13.6574,-13.3447,-13.3056,-13.1509,-12.8314,-12.8143,-12.8094,-12.8094,-12.8094,-12.8094,-12.8094,-12.8094,-12.8094,-5.5356,-5.8752,-6.3639,-7.1138,-7.3581,-7.501,-7.8534,-8.158,-8.2715,-7.8875,-8.2361,-8.67,-8.8514,-9.2434,-9.7197,-10.233,-10.7625,-11.281,-11.7592,-12.0921,-12.3633,-12.5776,-12.7945,-12.8991,-12.8169,-12.8094,-12.8094,-12.8094,-12.8094,-12.8094,-12.8094,-13.0487,-13.2581,-13.4301,-13.7516,-13.9984,-14.1704,-14.2526,-14.2975,-14.2975,-14.447,-14.5667,-14.6564,-14.6564,-14.7013,-14.7686,0.0,-14.6489,-14.634,-14.634,-14.5891,-14.5143,-14.5143,-14.5143,-14.5143,-14.5143,-14.5667,-14.6396,-14.6815,-14.766,-14.866,-14.8771,-14.8971,-14.894,-14.8265,-14.6406,-14.4434,-14.3524,-14.1629,-13.9932,-13.9932,-13.9932,-14.018,-14.0912,-14.1148,-14.1148,-14.114,-14.0918,-14.0567,-13.9828,-13.9503,-13.9382,-13.9231,-13.9055,-13.8898,-13.8668,-13.847,-13.7516,-13.4844,-13.534,-13.519,-13.3494,-13.4215,-13.5415,-13.7018,-13.714,-13.7441,-13.8143,-13.7516,-13.6061,-13.351,-13.3203,-13.1533,-12.8379,-12.8191,-12.8143,-12.8191,-12.8143,-12.8094,-12.8094,-12.8094,-12.8094,-5.709,-5.9847,-6.3392,-6.7808,-7.0157,-7.2145,-7.5498,-7.5884,-7.5685,-7.6395,-7.995,-8.3406,-8.5013,-9.2541,-9.8263,-9.7413,-10.0016,-10.4159,-10.9998,-11.5307,-11.9196,-12.0841,-12.5402,-12.8393,-12.8094,-12.8094,-12.8094,-12.8094,-12.8094,-12.8094,-12.8094,-12.9365,-13.0861,-13.2506,-13.5497,-13.789,-13.961,-13.9834,-14.0059,-14.0358,-14.3124,-14.462,-14.4844,-14.4844,-14.5742,-14.7237,0.0,-14.619,-14.7761,-14.7761,-14.7761,-14.7761,-14.7761,-14.7761,-14.7686,-14.7798,-14.7798,-14.7833,-14.8309,-14.8623,-14.894,-14.9078,-14.9173,-14.934,-14.934,-14.7273,-14.4789,-14.4864,-14.2523,-13.9942,-13.9942,-13.9952,-14.0356,-14.1762,-14.2295,-14.2522,-14.2482,-14.2482,-14.2102,-14.1005,-14.0322,-14.0036,-14.0242,-13.9813,-13.9419,-13.9439,-13.908,-13.8209,-13.6511,-13.5881,-13.498,-13.3539,-13.3254,-13.3973,-13.5715,-13.5656,-13.6182,-13.7741,-13.699,-13.583,-13.4392,-13.3569,-13.1723,-12.8394,-12.8212,-12.8117,-12.8333,-12.8191,-12.8143,-12.8143,-12.8143,-12.8143,-5.8752,-6.1929,-6.4912,-6.5794,-6.7266,-6.8958,-7.0798,-7.223,-7.3471,-7.5025,-7.6937,-7.885,-8.0615,-8.3236,-8.7748,-9.5557,-9.6694,-9.9836,-10.9432,-11.6279,-12.0916,-12.2486,-12.7047,-12.9515,-12.8244,-12.8094,-12.8094,-12.8094,-12.8094,-12.8094,-12.8094,-12.8319,-12.9216,-13.0786,-13.2656,-13.4525,-13.617,-13.7516,-13.8937,-14.0358,-14.0806,-14.1853,-14.3199,-14.3199,-14.4097,-14.5592,-14.5368,0.0,-14.7761,-14.7761,-14.7761,-14.7761,-14.7761,-14.7761,-14.7742,-14.8069,-14.8262,-14.8233,-14.8699,-14.9002,-14.9273,-14.9607,-14.9746,-14.976,-14.976,-14.7433,-14.4864,-14.494,-14.2542,-13.999,-13.999,-13.9929,-14.0016,-14.0321,-14.146,-14.2447,-14.2446,-14.2495,-14.2826,-14.404,-14.1943,-14.0825,-14.3645,-14.1615,-14.0389,-14.2967,-14.0817,-13.8762,-13.8236,-13.5755,-13.3951,-13.3726,-13.2448,-13.2749,-13.5755,-13.4853,-13.4703,-13.6281,-13.7527,-13.8086,-13.7653,-13.5068,-13.1989,-12.8524,-12.8319,-12.8274,-12.8274,-12.8274,-12.8304,-12.8286,-12.8286,-12.8191,-6.201,-6.5352,-6.8282,-6.8282,-6.9507,-7.1023,-7.197,-7.3023,-7.4379,-7.6314,-7.7279,-7.8019,-7.8834,-8.2661,-8.6567,-8.9349,-9.3124,-9.769,-10.3378,-11.2914,-11.957,-12.0317,-12.5552,-12.8917,-12.8169,-12.8094,-12.8094,-12.8094,-12.8094,-12.8094,-12.8094,-12.8094,-12.8842,-13.0337,-13.2057,-13.3329,-13.4151,-13.5721,-13.7367,-13.9012,-13.9909,-14.0732,-14.1479,-14.1479,-14.2377,-14.3872,-14.2975,-14.4022,-14.634,-14.634,-14.6863,-14.7761,-14.7761,-14.7908,-14.8019,-14.8262,-14.8455,-14.8699,-14.9002,-14.9199,-14.934,-14.9746,-14.9873,-14.9873,-14.9873,-14.7542,-14.4911,-14.5007,-14.2587,-13.9936,-13.9936,-13.994,-14.0169,-14.108,-14.2599,-14.3814,-14.3814,-14.4551,-14.5189,-14.5007,-14.3729,-14.3203,-14.4725,-14.364,-14.2641,-14.292,-14.16,-14.0083,-13.873,-13.5797,-13.3767,-13.3767,-13.1436,-13.0835,-13.3241,-13.1962,-13.2113,-13.4669,-13.5572,-13.6281,-13.7065,-13.4928,-13.2974,-13.127,-12.9263,-12.8319,-12.8406,-12.8319,-12.8349,-12.8286,-12.8304,-12.8212,-6.7696,0.0,-7.3514,-7.4663,-7.5077,-7.5184,0.0,-7.5489,-7.5799,-7.7281,-7.7908,-7.8241,-7.817,-8.2954,-8.6443,-8.5172,-8.9883,-9.4968,-9.8557,-10.7456,-11.441,-11.6728,-12.2561,-12.6524,-12.6898,-12.7646,-12.8094,-12.8094,-12.8094,-12.8094,-12.8094,-12.8094,-12.8618,-12.9814,-13.1534,-13.2581,-13.2955,-13.46,-13.6245,-13.7815,-13.9161,-13.9759,-13.9759,-13.9759,-14.0657,-14.2227,-14.0881,-14.2152,-14.5218,-14.5218,-14.6246,-14.7908,-14.7908,-14.8069,-14.8455,-14.8505,-14.8695,-14.9043,-14.9318,-14.9457,-14.9477,-14.976,-14.9884,-14.9894,-14.9873,-14.7568,-14.502,-14.5028,-14.2599,-13.9941,-13.9941,-13.9941,-14.0321,-14.1612,-14.3206,-14.4497,-14.4953,-14.6003,-14.6823,-14.6318,-14.556,-14.5256,-14.6092,-14.5181,-14.4025,-14.3167,-14.1978,-14.076,-13.9407,-13.6023,-13.3767,-13.3767,-13.0684,-12.9331,-13.106,-13.0007,-13.0383,-13.3015,-13.3542,-13.4293,-13.5497,-13.3993,-13.3124,-13.2965,-12.9951,-12.8449,-12.8533,-12.8449,-12.8319,-12.8304,-12.8319,-12.8304,0.0,-8.0323,-8.1626,-8.6185,-8.4018,-8.0729,-8.076,-7.8411,0.0,-7.5901,-7.7369,-7.8542,-7.8206,-8.016,-8.3228,-8.7565,-8.7415,-9.0107,-9.9454,-10.0277,-10.3343,-11.2615,-11.8149,-12.1813,-12.3234,-12.6225,-12.8094,-12.8094,-12.8094,-12.8094,-12.8094,-12.8094,-12.8169,-12.8244,-12.9814,-13.1384,-13.2955,-13.46,-13.6245,-13.7815,-13.7965,-13.7965,-13.7965,-13.7965,-13.8937,-14.0507,-14.0358,-14.2152,-14.5218,-14.5218,-14.644,-14.8309,-14.8309,-14.8539,-14.8841,-14.9146,-14.9306,-14.9469,-14.9709,-14.9861,-14.9861,-14.9873,-14.9828,-14.9859,-14.9894,-14.7582,-14.5029,-14.5029,-14.2599,-13.9941,-13.9941,-13.9941,-14.0017,-14.0093,-14.146,-14.3054,-14.4649,-14.5104,-14.6091,-14.9129,-14.7155,-14.6016,-14.9205,-14.556,-14.326,-14.6027,-14.228,-13.9632,-14.076,-13.67,-13.3767,-13.3767,-13.0684,-12.9331,-13.106,-13.106,-13.1135,-13.1361,-13.2865,-13.3767,-13.3917,-13.2263,-13.1361,-13.1361,-12.9632,-12.8654,-12.8654,-12.8654,-12.8574,-12.8449,-12.8449,-12.8438,-8.2341,-8.5022,-8.6817,-9.0705,-8.8761,-8.5321,-8.3302,-8.1059,-7.9084,-7.7838,-7.8231,-7.871,-7.851,-7.9993,-8.2181,-8.5172,-8.592,-8.9958,-10.095,-10.1922,-10.5661,-11.6653,-11.957,-12.2112,-12.5851,-12.5477,-12.5851,-12.7945,-12.8094,-12.8094,-12.8094,-12.8094,-12.8094,-12.8094,-12.8692,-12.9739,-13.1384,-13.3029,-13.4749,-13.6394,-13.7367,-13.7815,-13.7815,-13.7815,-13.8189,-13.8787,-13.8787,-14.0059,0.0,-14.2444,-14.4187,-14.6745,-14.7039,-14.7956,-14.923,-14.938,-14.9518,-14.9721,-14.9837,-14.9845,-14.9845,-14.9845,-14.9947,-14.9959,-14.9859,-14.8357,-14.6168,-14.4042,-14.1764,-13.9941,-13.9941,-13.9941,-13.9941,-13.9941,-14.1232,-14.2979,-14.4649,-14.5864,-14.7231,-14.9585,-14.9053,-14.8218,-14.8446,-14.6851,-14.5055,-14.3921,-14.2061,-14.0502,-13.9632,-13.6173,-13.3767,-13.3767,-13.0684,-12.8955,-12.9556,-12.9632,-12.9632,-12.9632,-13.1211,-13.2188,-13.2188,-13.1511,-13.1211,-13.1211,-12.9556,-12.8654,-12.8654,-12.8654,-12.8614,-12.8491,-12.8574,-12.8524,-8.8238,-9.1229,-9.3397,-9.7211,-9.5342,-9.1528,-8.7714,-8.4723,-8.2031,-7.9264,-7.8741,-7.8741,-7.8741,-8.0087,-8.1807,-8.3527,-8.5097,-8.9958,-10.1099,-10.3118,-10.6932,-11.6429,-11.8971,-12.1215,-12.4654,-12.4804,-12.5627,-12.7945,-12.8094,-12.8094,-12.8094,-12.8094,-12.8094,-12.8094,-12.8094,-12.8842,-13.0412,-13.1609,-13.3254,-13.5497,-13.6544,-13.7367,-13.7815,-13.7815,-13.7815,-13.7815,-13.7815,-13.8818,-14.0595,-14.0778,-14.2659,-14.5454,-14.6221,-14.7484,-14.8908,-14.9363,-14.9761,-14.9929,-14.9947,-14.9955,-14.9955,-14.9955,-14.9961,-15.004,-14.9959,-14.8822,-14.6851,-14.3434,-14.1232,-13.9941,-13.9941,-13.9941,-13.9941,-13.9941,-14.0852,-14.2143,-14.3814,-14.556,-14.7231,-14.8901,-14.966,-14.9509,-14.7838,-14.7036,-14.5572,-14.2438,-14.1405,-14.0427,-13.888,-13.5797,-13.3767,-13.3767,-13.0684,-12.8654,-12.8654,-12.8654,-12.8654,-12.8654,-12.9782,-13.0383,-13.0383,-13.0383,-13.0383,-13.0383,-12.9256,-12.8654,-12.8654,-12.8654,-12.8614,-12.8533,-12.8614,-12.8566,-9.5865,-9.9753,-10.2146,-10.7082,-10.4614,-9.9604,-9.4669,-8.9658,-8.4723,-7.9713,-7.8741,-7.8741,-7.8741,-8.0162,-8.1807,-8.3527,-8.5172,-8.9658,-9.9529,-10.2371,-10.5287,-11.0297,-11.5232,-11.8224,-11.8149,-12.4206,-12.8094,-12.8094,-12.8094,-12.8094,-12.8094,-12.8094,-12.8094,-12.8094,-12.8094,-12.8842,-13.0412,-13.0412,-13.2132,-13.5422,-13.5497,-13.632,-13.7815,-13.7815,-13.7815,-13.7815,-13.7815,-13.9021,-14.091,-14.091,-14.2321,-14.4546,-14.6256,-14.7096,-14.7575,-14.9258,-14.9959,-15.004,-15.004,-15.004,-15.004,-15.004,-15.004,-15.004,-15.004,-14.8825,-14.6775,-14.3434,-14.1232,-13.9941,-13.9941,-13.9941,-13.9941,-13.9941,-13.9941,-14.0397,-14.2143,-14.3814,-14.5484,-14.7231,-14.8901,-14.9509,-14.7838,-14.5917,-14.4047,-14.235,-14.0352,-13.8955,-13.8955,-13.5948,-13.3767,-13.3767,-13.0684,-12.8654,-12.8654,-12.8654,-12.8654,-12.8654,-12.8654,-12.8654,-12.8654,-12.8654,-12.8654,-12.8654,-12.8654,-12.8654,-12.8654,-12.8654,-12.8654,-12.8654,-12.8654,-12.8533,-9.7473,-10.1476,-10.5367,-10.9142,-10.7231,-10.252,-9.5192,-9.1528,-8.7565,-8.0236,-7.8741,-7.8741,-7.8741,-8.1059,-8.3228,-8.3676,-8.8013,-9.3996,-10.1623,-10.5063,-10.9101,-11.5232,-11.9345,-12.0691,-11.8373,-12.4206,-12.8094,-12.8094,-12.8094,-12.8094,-12.8094,-12.8094,-12.8094,-12.8094,-12.8094,-12.8319,-12.8767,-12.9889,-13.0936,-13.1908,-13.4375,-13.5721,-13.617,-13.7292,-13.7947,-13.8209,-13.8209,-13.8697,-13.957,-13.9721,-14.0942,-14.2829,-14.4853,-14.6361,-14.7683,-14.9355,-15.004,-15.004,-15.004,-15.004,-15.004,-15.004,-15.004,-14.9585,-14.7231,-14.5332,-14.3738,-14.2751,-14.1232,-13.9941,-13.9941,-13.9941,-13.9941,-13.9941,-13.9941,-14.0397,-14.2143,-14.3814,-14.5484,-14.7231,-14.7914,-14.8142,-14.761,-14.6057,-14.4228,-14.2363,-14.1555,-14.0652,-13.9181,-13.6064,-13.3958,-13.3767,-13.0684,-12.8654,-12.8654,-12.8654,-12.8654,-12.8654,-12.8654,-12.8654,-12.8654,-12.8654,-12.8654,-12.8654,-12.8654,-12.8128,-12.7075,-12.8128,-12.8128,-12.7075,-12.8203,-12.8574,-10.0727,-10.4134,-10.7392,-10.9333,-10.8319,-10.4539,-9.5566,-9.2799,-8.9584,-8.0536,-7.8741,-7.9339,-8.1283,-8.2854,-8.4424,-8.6443,-8.9434,-9.4369,-10.2296,-10.5137,-10.925,-11.7251,-12.1065,-12.2262,-12.0317,-12.4954,-12.8094,-12.8094,-12.8094,-12.8094,-12.8094,-12.8094,-12.8094,-12.8094,-12.8094,-12.8094,-12.8094,-12.8991,-12.9814,-13.0487,-13.3179,-13.4824,-13.5572,-13.7273,-13.8162,-13.8354,-13.8558,-13.884,-13.9155,-13.9301,-14.0084,-14.1298,-14.3241,-14.502,-14.6775,-14.8446,-14.9509,-15.004,-15.004,-14.9585,-14.9053,-14.9053,-14.8597,-14.7534,-14.4801,-14.3282,-14.2371,-14.1688,-14.0701,-13.9941,-13.9941,-13.9941,-13.9941,-13.9941,-13.9941,-14.0245,-14.1232,-14.2827,-14.4497,-14.6168,-14.6547,-14.6547,-14.6547,-14.5105,-14.3406,-14.1525,-14.1154,-14.0427,-13.8504,-13.5839,-13.3733,-13.294,-13.0459,-12.8804,-12.8654,-12.8654,-12.8654,-12.8654,-12.8654,-12.8654,-12.8654,-12.8654,-12.8353,-12.7752,-12.7752,-12.6925,-12.5346,-12.7,-12.7225,-12.6398,-12.7977,-12.8614,-10.4471,-10.7131,-10.848,-10.848,-10.855,-10.5926,-9.6051,-9.3846,-9.1154,-8.124,-7.922,-8.0685,-8.5695,-8.5396,-8.6069,-9.1079,-9.093,-9.3397,-10.2595,-10.424,-10.7979,-11.7102,-12.1065,-12.3084,-12.3084,-12.615,-12.8094,-12.8094,-12.8094,-12.8094,-12.8094,-12.8094,-12.8094,-12.8094,-12.8094,-12.8094,-12.8094,-12.8094,-12.8842,-13.0263,-13.1958,-13.3604,-13.5151,-13.7247,-13.8212,-13.8252,-13.8808,-13.9178,-13.9401,-13.9411,-13.9639,-14.0113,-14.1834,-14.3434,-14.5029,-14.6699,-14.8294,-14.9585,-14.9585,-14.8597,-14.7307,-14.7307,-14.6092,-14.4269,-14.2751,-14.2219,-14.1916,-14.0397,-13.9941,-13.9941,-13.9941,-13.9941,-13.9941,-13.9941,-13.9941,-13.9941,-13.9941,-14.1308,-14.2903,-14.4497,-14.4801,-14.4801,-14.5029,-14.3586,-14.1991,-14.0397,-13.9957,-13.9235,-13.7452,-13.5387,-13.3356,-13.1587,-13.0007,-12.8955,-12.8729,-12.8729,-12.8654,-12.8654,-12.8654,-12.8654,-12.8504,-12.8504,-12.7752,-12.6173,-12.6097,-12.527,-12.3541,-12.5421,-12.6248,-12.6173,-12.7902,-12.8614,-10.3835,-10.6383,-10.8744,-10.8632,-10.9607,-10.7957,-9.7911,-9.6568,-9.4661,-8.4744,-8.2692,-8.42,-8.9135,-8.9808,-9.1229,-9.6164,-9.9903,-10.3418,-10.6783,-11.0596,-11.4335,-11.7775,-12.1065,-12.3084,-12.3084,-12.615,-12.8094,-12.8094,-12.8094,-12.8094,-12.8094,-12.8094,-12.8094,-12.8094,-12.8094,-12.8094,-12.8094,-12.8094,-12.8244,-12.8618,-13.0494,-13.157,-13.2064,-13.5395,-13.7016,-13.7241,-13.8695,-13.9505,-13.9856,-13.9817,-13.9849,-14.0166,-14.1839,-14.2675,-14.3206,-14.4953,-14.5788,-14.6092,-14.6092,-14.5864,-14.556,-14.556,-14.351,-14.1004,-14.0625,-14.0473,-14.0397,-14.0017,-13.9941,-13.9941,-13.9941,-13.9941,-13.9941,-13.9941,-13.9941,-13.9941,-13.9941,-14.1308,-14.2599,-14.2979,-14.3054,-14.3434,-14.4801,-14.3586,-14.2371,-14.1991,-14.1894,-14.0702,-13.7615,-13.5688,-13.3396,-13.0423,-12.9481,-12.903,-12.8955,-12.8804,-12.8654,-12.8654,-12.8654,-12.8128,-12.6849,-12.6849,-12.6022,-12.4368,-12.4368,-12.3541,-12.1812,-12.4894,-12.5646,-12.4443,-12.7301,-12.8614,-10.4622,-10.672,-10.8744,-10.8744,-10.9382,-10.7995,-10.0345,-9.7986,-9.5329,-8.7759,-8.4956,-8.5343,-9.025,-9.1148,-9.276,-9.7734,-10.1324,-10.4614,-10.7829,-11.1194,-11.4559,-11.7775,-12.0392,-12.2262,-12.3009,-12.5402,-12.7197,-12.8019,-12.8094,-12.8094,-12.8094,-12.8094,-12.8094,-12.8094,-12.8094,-12.8164,-12.8319,-12.8319,-12.8331,-12.8464,-13.035,-13.1175,-13.1286,-13.4189,-13.5626,-13.5791,-13.6786,-13.738,-13.7491,-13.75,-13.7584,-13.7739,-13.8575,-13.941,-14.0169,-14.108,-14.2371,-14.3814,-14.3814,-14.3814,-14.351,-14.1916,-14.0701,-13.9941,-13.9941,-13.9941,-13.9941,-13.9941,-13.9941,-13.9941,-13.9941,-13.9941,-13.9941,-13.9941,-13.9941,-13.9941,-13.9941,-14.0625,-14.1536,-14.2295,-14.184,-14.184,-14.351,-14.2371,-14.1308,-14.1308,-14.0549,-13.9085,-13.6515,-13.4732,-13.2677,-12.9974,-12.9437,-12.9202,-12.9069,-12.8804,-12.8353,-12.7601,-12.7526,-12.6849,-12.5195,-12.512,-12.4368,-12.2639,-12.2639,-12.1812,-12.0082,-12.3466,-12.4669,-12.3917,-12.715,-12.8614,-10.552,-10.7395,-10.8707,-10.8816,-10.9005,-10.7807,-10.289,-9.9779,-9.6554,-9.1602,-8.8451,-8.8046,-9.2897,-9.3537,-9.5,-10.0278,-10.2485,-10.4953,-10.8993,-11.1312,-11.393,-11.77,-11.9644,-12.1215,-12.2561,-12.443,-12.615,-12.7571,-12.7646,-12.7795,-12.8094,-12.8094,-12.8094,-12.8094,-12.8094,-12.8183,-12.8504,-12.8506,-12.8689,-12.8905,-13.0369,-13.1078,-13.1106,-13.3213,-13.4165,-13.4165,-13.4706,-13.4904,-13.493,-13.493,-13.493,-13.5082,-13.5082,-13.5841,-13.698,-13.698,-13.8802,-14.1232,-14.1156,-14.1384,-14.1156,-13.8347,-13.8575,-13.9941,-13.9941,-13.9941,-13.9941,-13.9941,-13.9941,-13.9941,-13.9941,-13.9941,-13.9941,-13.9941,-13.9941,-13.9941,-13.9941,-13.9941,-14.0397,-14.1764,-14.0701,-14.0017,-14.1764,-14.0852,-13.9865,-13.9562,-13.8347,-13.6752,-13.493,-13.3183,-13.1536,-12.9856,-12.9547,-12.9368,-12.9183,-12.8654,-12.7752,-12.6398,-12.6097,-12.512,-12.3466,-12.3391,-12.2563,-12.0909,-12.0834,-12.0157,-11.8804,-12.1887,-12.3541,-12.3917,-12.6925,-12.8428,-10.4845,-10.7468,-10.8816,-10.8845,-10.9972,-10.9747,-10.4786,-10.4377,-10.3559,-9.8678,-9.7187,-9.832,-10.327,-10.2973,-10.406,-11.0467,-11.2825,-11.4132,-11.4764,-11.7534,-11.9256,-11.8298,-11.9644,-12.0766,-12.099,-12.3757,-12.5701,-12.5851,-12.5926,-12.6524,-12.8019,-12.8094,-12.8094,-12.8094,-12.8094,-12.8183,-12.8504,-12.8683,-12.8844,-12.8905,-12.9448,-12.9713,-12.9788,-13.1741,-13.2666,-13.2766,-13.4215,-13.4918,-13.493,-13.493,-13.493,-13.493,-13.5082,-13.5158,-13.5234,-13.5234,-13.5613,-13.6069,-13.5917,-13.6828,-13.8043,-13.7587,-13.8575,-13.9941,-13.9941,-13.9941,-13.9941,-13.9941,-13.9941,-13.9941,-13.9941,-13.9941,-13.9941,-13.9941,-13.9941,-13.9941,-13.9941,-13.9941,-14.0017,-14.0245,-13.8954,-13.8271,-14.0017,-14.0093,-13.9486,-13.7967,-13.7587,-13.6373,-13.3259,-13.1437,-13.0297,-13.005,-12.9751,-12.9522,-12.9445,-12.7827,-12.6699,-12.6323,-12.497,-12.3391,-12.1736,-12.1661,-12.0834,-11.9105,-11.9105,-11.9029,-11.8804,-12.0684,-12.2413,-12.3842,-12.5722,-12.7376,-10.3491,-10.6042,-10.7543,-10.8619,-10.9446,-10.9412,-10.7224,-10.5838,-10.441,-10.2198,-10.0212,-9.9504,-10.1723,-10.3005,-10.4695,-10.762,-11.1666,-11.4432,-11.4432,-11.7309,-11.9092,-11.8298,-11.8822,-11.9644,-12.0616,-12.2037,-12.3608,-12.5477,-12.4702,-12.4974,-12.6599,-12.6673,-12.7122,-12.8019,-12.8094,-12.8183,-12.8504,-12.8905,-12.9291,-12.9413,-12.9574,-12.9679,-12.9679,-13.0577,-13.0987,-13.1081,-13.184,-13.2176,-13.2196,-13.2196,-13.2196,-13.2196,-13.2272,-13.2196,-13.2196,-13.2196,-13.2804,-13.3715,-13.3639,-13.4095,-13.4702,-13.4702,-13.6448,-13.8575,-13.8575,-13.9182,-13.9941,-13.9941,-13.9941,-13.9941,-13.9941,-13.9941,-13.9941,-13.9941,-13.9941,-13.9713,-13.8726,-13.8575,-13.8271,-13.7284,-13.7284,-13.7967,-13.9638,-13.9182,-13.8271,-13.7511,-13.5841,-13.3867,-13.1437,-13.0526,-13.007,-13.007,-12.9851,-12.9632,-12.9556,-12.7677,-12.6097,-12.5083,-12.3391,-12.1661,-11.9932,-11.9857,-11.9556,-11.8804,-11.8804,-11.8804,-11.8804,-12.0458,-12.1661,-12.2488,-12.512,-12.6699,-10.0447,-10.334,-10.5442,-10.7717,-10.8585,-10.8851,-10.8845,-10.6999,-10.5269,-10.5269,-10.3239,-10.1478,-10.1489,-10.3409,-10.5286,-10.5702,-11.0095,-11.3615,-11.399,-11.6454,-11.8283,-11.8239,-11.8313,-11.8762,-12.0035,-12.0558,-12.1756,-12.4225,-12.3344,-12.3344,-12.4974,-12.5423,-12.6246,-12.747,-12.7919,-12.8229,-12.8504,-12.898,-12.941,-12.9782,-12.9818,-12.9839,-12.9915,-12.9915,-12.9915,-13.0067,-13.0018,-13.0055,-13.007,-13.007,-13.007,-13.007,-13.007,-13.007,-13.007,-13.007,-13.083,-13.1893,-13.1893,-13.2196,-13.2576,-13.2576,-13.4778,-13.7436,-13.7436,-13.865,-13.9941,-13.9941,-13.9941,-13.9941,-13.9941,-13.9941,-13.9865,-13.941,-13.9334,-13.8878,-13.7208,-13.6828,-13.6297,-13.4626,-13.5689,-13.7132,-13.7967,-13.736,-13.6676,-13.6297,-13.4095,-13.1969,-13.0222,-13.007,-13.007,-13.007,-12.9507,-12.9083,-12.8994,-12.6774,-12.4857,-12.3503,-12.1736,-12.0157,-11.8804,-11.8804,-11.8804,-11.8804,-11.8804,-11.8804,-11.8804,-12.0007,-12.0909,-12.136,-12.3917,-12.527,-9.4967,-9.9128,-10.2358,-10.5763,-10.7751,-10.8878,-10.8878,-10.8728,-10.8578,-10.8578,-10.8502,-10.8352,-10.8352,-10.8475,-10.9152,-11.0724,-11.2532,-11.4298,-11.5875,-11.7527,-11.85,-11.8569,-11.8528,-11.8603,-11.8678,-12.0027,-12.0927,-12.1152,-12.1077,-12.1752,-12.3476,-12.505,-12.5906,-12.5844,-12.7463,-12.8319,-12.8504,-12.8543,-12.8867,-12.9442,-12.9769,-12.9915,-12.9991,-12.9991,-13.0067,-13.0076,-13.0062,-13.007,-13.007,-13.007,-13.007,-13.007,-13.007,-13.007,-13.007,-13.007,-13.007,-13.0146,-13.0146,-13.1209,-13.2576,-13.2576,-13.4778,-13.7436,-13.7436,-13.865,-13.9941,-13.9941,-13.9941,-13.9941,-13.9941,-13.9941,-13.9562,-13.7967,-13.7587,-13.7132,-13.5537,-13.5082,-13.455,-13.3032,-13.4095,-13.4702,-13.3183,-13.4171,-13.4702,-13.3032,-13.2652,-13.1969,-13.0222,-13.007,-13.007,-13.007,-12.855,-12.7519,-12.7264,-12.4331,-12.23,-12.1812,-12.0232,-11.9105,-11.8804,-11.8804,-11.8804,-11.8804,-11.8804,-11.8804,-11.8804,-11.8879,-11.9706,-12.1285,-12.1511,-12.2413,-9.2805,-9.6456,-9.9203,-10.3733,-10.6064,-10.7308,-10.7375,-10.8127,-10.8878,-10.8878,-10.8878,-10.8878,-10.8878,-10.8845,-10.907,-10.963,-11.1065,-11.227,-11.2946,-11.5273,-11.696,-11.6919,-11.7894,-11.8569,-11.8569,-11.914,-11.948,-11.944,-11.944,-12.0151,-12.1719,-12.2394,-12.3176,-12.4257,-12.6056,-12.7098,-12.7333,-12.8532,-12.9373,-12.9849,-12.992,-13.0033,-13.0033,-13.0033,-13.0045,-13.0062,-13.0069,-13.007,-13.007,-13.007,-13.007,-13.007,-13.007,-13.007,-13.007,-13.007,-13.007,-13.007,-13.007,-13.045,-13.0905,-13.0905,-13.25,-13.4322,-13.4322,-13.5461,-13.6828,-13.6828,-13.6752,-13.6676,-13.6676,-13.6752,-13.6676,-13.5993,-13.5841,-13.5461,-13.3867,-13.3411,-13.2956,-13.1285,-13.2348,-13.3259,-13.2652,-13.3943,-13.455,-13.2804,-13.1665,-13.0754,-13.0146,-13.007,-12.9615,-12.8552,-12.7868,-12.7022,-12.5825,-12.3647,-12.2261,-12.2074,-12.0232,-11.9105,-11.9029,-11.8879,-11.8804,-11.8804,-11.8804,-11.8804,-11.8804,-11.8804,-11.9105,-11.9706,-12.0834,-12.1661,-8.7298,-9.1076,-9.4202,-9.8727,-10.2305,-10.4753,-10.4818,-10.6021,-10.7375,-10.7976,-10.8051,-10.8202,-10.8728,-10.8878,-10.8878,-10.8878,-10.9712,-11.0579,-11.118,-11.3134,-11.4673,-11.5198,-11.6813,-11.7864,-11.7864,-11.7903,-11.794,-11.7903,-11.8316,-11.9143,-12.0076,-12.0827,-12.1652,-12.2586,-12.4451,-12.5869,-12.6549,-12.7801,-12.892,-12.9864,-12.9849,-12.9911,-13.0062,-12.9455,-12.9156,-12.9159,-12.8552,-12.8324,-12.8324,-12.8324,-12.8703,-12.9159,-12.9159,-12.9539,-13.007,-13.007,-12.9311,-12.8324,-12.8324,-12.8324,-12.8324,-12.8324,-12.9463,-13.0905,-13.0905,-13.2044,-13.3411,-13.3411,-13.3715,-13.4095,-13.4095,-13.455,-13.4854,-13.4246,-13.4171,-13.3791,-13.212,-13.1741,-13.1361,-13.0222,-13.0981,-13.1741,-13.1741,-13.2652,-13.3032,-13.1893,-13.0754,-13.007,-13.007,-12.9539,-12.8779,-12.764,-12.6501,-12.5362,-12.4224,-12.2522,-12.1429,-12.1434,-12.0119,-11.9255,-11.918,-11.8954,-11.8879,-11.8804,-11.8804,-11.8804,-11.8804,-11.8804,-11.8804,-11.8804,-11.9932,-12.0157,-7.835,-8.2712,-8.7223,-9.0757,-9.6397,-10.1134,-10.1284,-10.2637,-10.4292,-10.6021,-10.6397,-10.6848,-10.8502,-10.8803,-10.8803,-10.8878,-10.8878,-10.948,-11.1059,-11.136,-11.1961,-11.3616,-11.5345,-11.6322,-11.6247,-11.6322,-11.6322,-11.6322,-11.7826,-11.8729,-11.8729,-12.0533,-12.1398,-12.1021,-12.3078,-12.4782,-12.6016,-12.6349,-12.7461,-12.9291,-12.9308,-12.9539,-12.9842,-12.8248,-12.7489,-12.7413,-12.5742,-12.4983,-12.4983,-12.4983,-12.597,-12.7413,-12.7413,-12.8476,-12.9918,-12.9918,-12.7792,-12.4983,-12.4983,-12.4983,-12.4983,-12.4983,-12.6046,-12.7413,-12.7413,-12.8552,-12.9842,-12.9842,-13.1133,-13.2424,-13.2424,-13.3563,-13.4398,-13.288,-13.25,-13.2044,-13.0374,-13.007,-13.007,-13.007,-12.9994,-12.9994,-13.007,-12.9994,-12.9994,-13.007,-13.007,-12.9994,-12.9994,-12.8552,-12.7489,-12.7413,-12.4451,-12.2477,-12.2401,-12.0883,-11.9879,-11.9732,-11.9778,-11.9592,-11.9141,-11.9105,-11.9029,-11.8804,-11.8804,-11.8804,-11.8804,-11.8804,-11.8804,-11.8804,-11.8729,-11.7902,-7.805,-7.8501,-8.023,-9.0757,-9.2938,-9.3389,-9.7148,-9.9179,-10.0833,-10.2487,-10.2863,-10.3765,-10.6623,-10.7149,-10.7525,-10.8653,-10.8878,-10.9029,-10.948,-11.0608,-11.1585,-11.2037,-11.354,-11.4142,-11.2939,-11.3916,-11.4593,-11.4593,-11.6172,-11.715,-11.7225,-11.8879,-11.9874,-11.9822,-12.1757,-12.3014,-12.3331,-12.4712,-12.5723,-12.6197,-12.6197,-12.6274,-12.6426,-12.7185,-12.7489,-12.7413,-12.5742,-12.4983,-12.4983,-12.4983,-12.5287,-12.5666,-12.5666,-12.597,-12.6426,-12.6426,-12.5818,-12.4983,-12.4983,-12.4983,-12.4983,-12.4983,-12.4451,-12.4072,-12.5287,-12.5135,-12.4831,-12.6046,-12.7564,-12.8931,-12.8931,-13.0146,-13.1285,-13.083,-13.0754,-13.0602,-13.0146,-13.007,-13.007,-13.007,-12.9083,-12.8628,-12.9842,-12.9007,-12.8628,-12.9842,-13.007,-12.9615,-12.84,-12.7792,-12.6577,-12.4148,-12.3009,-12.1946,-12.0731,-12.0199,-11.9888,-11.9889,-11.9603,-11.9416,-11.9265,-11.9002,-11.8879,-11.8804,-11.8804,-11.8804,-11.8804,-11.8804,-11.8804,-11.8729,-11.7601,-11.6849,-7.1733,-7.1583,-7.3012,-8.0757,-8.3313,-8.5193,-9.0231,-9.2637,-9.4893,-9.8652,-9.9931,-10.1209,-10.3916,-10.4968,-10.6021,-10.76,-10.7901,-10.8127,-10.8728,-10.9706,-11.0307,-11.0307,-11.1209,-11.1435,-11.0457,-11.1886,-11.2864,-11.2864,-11.4443,-11.5721,-11.6548,-11.7676,-11.8588,-11.9376,-12.0606,-12.1613,-12.2249,-12.3388,-12.4299,-12.4983,-12.4983,-12.4983,-12.5059,-12.6046,-12.6046,-12.5287,-12.3616,-12.2857,-12.2857,-12.2857,-12.3312,-12.392,-12.392,-12.4375,-12.4831,-12.3388,-12.2857,-12.2857,-12.2857,-12.2857,-12.2857,-12.2857,-12.2173,-12.1566,-12.2553,-12.2173,-12.1642,-12.2629,-12.4072,-12.559,-12.6274,-12.7716,-12.9159,-12.9842,-12.9463,-12.9007,-12.9007,-12.84,-12.7944,-12.7944,-12.7109,-12.6957,-12.8703,-12.8172,-12.7868,-12.8855,-12.84,-12.7564,-12.6577,-12.6501,-12.5438,-12.2781,-12.2477,-12.1794,-12.0047,-11.9895,-11.982,-11.982,-11.9554,-11.9299,-11.9243,-11.9045,-11.8879,-11.8804,-11.8804,-11.8804,-11.8804,-11.8127,-11.7826,-11.7751,-11.6097,-11.4969,-6.2334,-6.3688,-6.6696,-6.7297,-7.1282,-7.6395,0.0,-8.3839,-8.6772,-9.2862,-9.5494,-9.7299,-9.9179,-10.1359,-10.3465,-10.5119,-10.6021,-10.6999,-10.8427,-10.8728,-10.8878,-10.8878,-10.8878,-10.8878,-10.8878,-11.0232,-11.1134,-11.1134,-11.2713,-11.4367,-11.6022,-11.6489,-11.7414,-11.8822,-11.9336,-12.0351,-12.1718,-12.2022,-12.2933,-12.4451,-12.4451,-12.4451,-12.4451,-12.4603,-12.3768,-12.2097,-12.0807,-12.0123,-11.9971,-11.9971,-12.0807,-12.2173,-12.2173,-12.3085,-12.4072,-12.1034,-11.9971,-11.9971,-11.9971,-11.9971,-11.9971,-11.9971,-11.982,-11.9668,-11.9668,-11.9516,-11.944,-11.9592,-12.0883,-12.2553,-12.4072,-12.5818,-12.7564,-12.8855,-12.8172,-12.7261,-12.7261,-12.6046,-12.4983,-12.4983,-12.4831,-12.5287,-12.7185,-12.7185,-12.7033,-12.7185,-12.597,-12.4907,-12.4755,-12.4679,-12.4072,-12.2401,-12.2173,-12.1566,-12.0047,-11.982,-11.9742,-11.973,-11.949,-11.9192,-11.8915,-11.8879,-11.8653,-11.8202,-11.8202,-11.8202,-11.8202,-11.6623,-11.5947,-11.6097,-11.4217,-11.2112,0.0,0.0,0.0,0.0,0.0,0.0,0.0,-7.3463,-7.5418,-7.805,-8.1057,-8.4065,-8.6997,-9.2186,-9.6547,-9.8276,-10.3013,-10.6623,-10.6923,-10.8051,-10.8878,-10.8878,-10.8878,-10.8878,-10.8878,-10.9179,-10.933,-10.933,-11.0984,-11.2262,-11.2823,-11.432,-11.533,-11.5861,-11.7161,-11.8073,-11.8377,-11.9744,-12.0579,-12.0958,-12.0958,-12.0958,-12.0958,-12.2325,-12.2022,-12.0503,-12.1566,-12.1186,-11.9971,-11.9971,-12.0123,-12.0427,-12.0427,-12.0655,-12.0807,-12.0199,-11.9971,-11.9971,-11.9971,-11.9971,-11.9971,-11.9971,-11.8984,-11.7921,-11.7921,-11.701,-11.6251,-11.7542,-11.9136,-12.0503,-12.0807,-12.316,-12.5211,-12.4148,-12.4679,-12.5438,-12.5438,-12.5211,-12.4983,-12.4983,-12.3844,-12.392,-12.6957,-12.5287,-12.392,-12.5287,-12.5211,-12.4527,-12.316,-12.2933,-12.2325,-12.0579,-12.0427,-12.0275,-11.9971,-11.982,-11.9755,-11.974,-11.941,-11.8569,-11.7189,-11.6999,-11.6322,-11.4894,-11.4819,-11.4819,-11.4819,-11.3164,-11.3089,-11.4292,-11.1285,-10.6773,0.0,0.0,0.0,0.0,0.0,0.0,0.0,0.0,0.0,0.0,0.0,-7.7298,-7.8952,0.0,-9.0907,-9.2562,-9.8427,-10.3314,-10.5044,-10.6623,-10.7675,-10.7675,-10.7675,-10.7976,-10.8803,-10.8878,-10.8878,-10.8878,-10.9856,-11.0846,-11.1939,-11.2908,-11.3897,-11.5036,-11.5871,-11.6251,-11.6251,-11.7086,-11.7542,-11.7542,-11.8301,-11.8681,-11.8756,-12.0427,-12.0731,-11.9971,-12.0807,-12.0731,-11.9971,-11.9971,-11.9971,-11.9744,-11.8149,-11.7542,-11.7542,-11.7542,-11.7542,-11.7542,-11.7542,-11.7542,-11.7542,-11.7542,-11.6934,-11.6251,-11.6251,-11.5719,-11.5415,-11.6934,-11.7997,-11.906,-12.0731,-12.2477,-12.3692,-12.3692,-12.3692,-12.3692,-12.3692,-12.3085,-12.2477,-12.2477,-12.1794,-12.2022,-12.4527,-12.2857,-12.1794,-12.3464,-12.3009,-12.2173,-12.1338,-12.1186,-11.9971,-11.6554,-11.9212,-11.982,-11.6554,-11.925,-12.0324,-11.8614,-11.73,-11.6211,-11.5309,-11.5195,-11.4367,-11.2713,-11.2638,-11.1811,-11.0232,-10.8502,-10.7675,-10.76,-10.5119,-10.2562,0.0,0.0,0.0,0.0,0.0,0.0,0.0,0.0,0.0,0.0,0.0,0.0,0.0,0.0,0.0,-8.6321,-9.2487,-9.8427,-10.2487,-10.3916,-10.4818,-10.5495,-10.5871,-10.6623,-10.8277,-10.8427,-10.8578,-10.8954,-10.9179,-10.9893,-11.1515,-11.1673,-11.2454,-11.4049,-11.4428,-11.458,-11.458,-11.4884,-11.5112,-11.5112,-11.6327,0.0,-11.701,-11.8377,-11.8984,-11.8984,-11.8984,-11.8984,-11.8984,-11.8984,-11.8984,-11.8756,-11.6099,-11.5112,-11.5112,-11.5112,-11.5112,-11.5112,-11.5112,-11.5112,-11.5112,-11.5112,-11.5112,-11.5036,-11.4656,-11.458,0.0,-11.6099,-11.6479,-11.7086,-11.982,-12.0807,-12.1262,-12.2325,-12.1794,-12.111,-12.1414,-12.0427,-11.9516,-11.9895,-11.9971,-12.0503,-12.2173,-12.0275,-11.8605,-11.8984,-11.7921,-11.701,-11.701,-11.7921,-11.701,-11.2986,-11.8225,-11.9668,-11.3972,-11.75,-11.9079,-11.6816,-11.4223,-11.2503,-11.1995,-11.1661,-11.0232,-10.76,-10.6923,-10.5796,-10.4141,-10.2412,-10.151,-10.1359,-9.5795,-9.4442,0.0,0.0,0.0,0.0,0.0,0.0,0.0,0.0,0.0,0.0,0.0,0.0,0.0,0.0,0.0,0.0,-8.4892,-9.2336,-9.8652,-9.8502,-9.8803,-10.166,-10.3389,-10.4968,-10.6623,-10.6773,-10.745,-10.9104,-10.933,-10.9622,-11.0015,-11.0176,0.0,0.0,0.0,-11.2834,-11.2834,-11.4352,-11.5112,-11.5112,-11.5264,-11.534,-11.534,-11.5567,-11.5643,-11.5643,-11.5643,-11.5643,-11.5643,-11.5643,-11.5643,-11.5567,-11.5188,-11.5112,-11.5112,-11.5112,-11.5112,-11.5112,-11.5112,0.0,0.0,-11.5112,-11.5112,-11.4808,-11.3289,-11.2834,-11.291,-11.3062,-11.3062,-11.3213,-11.3593,-11.4808,-11.5567,-11.4277,-11.496,-11.6251,-11.7693,-11.7845,-11.8149,-11.9668,-11.9971,-12.0503,-12.2173,-11.739,-11.1923,-10.7595,-10.6759,-10.6683,-10.6683,-11.0556,-11.3138,-11.2606,-11.7162,0.0,-11.7072,-11.3515,-11.2441,-11.4828,-11.0404,-10.696,-10.5138,-10.3647,-10.0036,-9.4075,-9.101,-9.1434,-9.5494,-9.3765,-9.587,-10.0983,-8.1659,-7.5192,0.0,0.0,0.0,0.0,0.0,0.0,0.0,0.0,0.0,0.0,0.0,0.0,0.0,0.0,0.0,0.0,-7.9177,-8.4366,-8.7148,-8.8577,-9.1359,-9.6547,-9.9479,-10.1735,-10.3389,-10.4517,-10.5495,-10.6247,-10.7467,-10.8261,-10.8354,-10.9417,-11.0024,-11.0024,-11.0708,-11.1087,-11.1087,-11.1771,-11.215,-11.215,-11.3138,-11.3593,-11.3669,-11.4656,-11.5112,-11.5112,-11.5112,-11.5112,-11.5112,-11.5112,-11.5112,-11.4884,0.0,0.0,0.0,0.0,-11.215,-11.215,-11.215,-11.215,-11.215,-11.215,-11.215,-11.1999,-11.1315,-11.1087,-11.1315,-11.2302,-11.253,-11.2758,-11.3745,-11.458,-11.4884,-11.4201,-11.458,-11.5264,-11.5947,-11.6023,-11.6251,-11.701,-11.7845,0.0,-11.8225,-11.5871,-11.3593,-11.2378,-11.2226,-11.253,-11.3517,-11.4656,-11.4277,-11.1391,-11.5489,-11.6617,-11.2029,-11.332,0.0,0.0,0.0,-10.9115,-10.7355,-10.5464,0.0,0.0,0.0,-8.725,-8.8276,0.0,0.0,0.0,-7.492,-6.996,0.0,0.0,0.0,0.0,0.0,0.0,0.0,0.0,0.0,0.0,0.0,0.0,0.0,0.0,0.0,0.0,-7.1884,-7.5643,-7.7048,-8.008,-8.4591,-9.1311,-9.4968,-9.7976,-10.0607,-10.166,-10.2337,-10.2788,-10.4741,-10.5899,-10.5867,-10.7664,-10.8885,-10.9341,-10.9341,-10.9569,-11.0024,-11.0024,-11.0024,-11.0024,-11.1239,-11.1847,-11.1923,-11.3138,-11.3669,-11.3669,-11.3669,-11.3669,-11.3669,-11.3669,-11.3669,-11.3441,-11.048,-10.9037,-10.8658,-10.8658,-10.8658,-10.8658,-10.8658,-10.8961,-10.9341,-10.9341,-10.9341,-10.9417,-10.9873,-11.0024,-11.0252,-11.1467,-11.1847,-11.215,-11.3365,-11.3669,-11.3669,-11.3669,-11.3669,-11.3821,-11.4277,-11.4352,-11.4504,-11.496,-11.5264,-11.4428,-11.1391,-11.1315,-11.1695,-11.1847,-11.1923,-11.253,-11.42,-11.4579,-11.3287,-10.9716,-11.3728,-11.4541,-10.9266,-11.2006,-11.3381,-11.1946,-10.9873,-10.8819,-10.8923,-10.5361,-10.2174,-9.9701,-9.0213,-8.4767,0.0,0.0,0.0,0.0,0.0,0.0,0.0,0.0,0.0,0.0,0.0,0.0,0.0,0.0,0.0,0.0,0.0,0.0,0.0,0.0,0.0,0.0,0.0,0.0,-7.1469,-7.492,-7.9502,-8.6323,-8.9882,-9.3765,-9.8878,-9.7825,-9.7629,-9.9314,-10.1209,-10.2284,-10.2426,-10.4164,-10.5848,-10.7519,-10.7595,-10.8354,-11.0024,-11.0024,-11.0024,-11.0024,-11.01,-11.01,-11.01,-11.0176,-11.0176,-11.0176,-11.0176,-11.0176,-11.0176,-11.0176,-11.0176,-11.0024,-10.8278,-10.6532,-10.5089,-10.5089,-10.5089,-10.5089,-10.5089,-10.6228,-10.7595,-10.7595,-10.7595,-10.7898,-10.9493,-11.0024,-11.0024,-11.01,-11.01,-11.01,-11.0176,-11.0176,-11.0176,-11.0176,-11.0176,-11.0632,-11.2302,-11.2606,-11.3138,-11.4732,-11.2454,-10.8126,-10.152,-10.1748,-10.1748,-9.8483,-9.8027,0.0,-10.029,-10.4769,-10.7721,-10.7613,-11.2006,-11.4215,-11.2386,-10.7984,-10.6694,-10.9881,-10.3797,-10.225,-10.6971,-9.9257,-9.4724,-9.4533,-8.6241,-8.1944,-8.1922,0.0,0.0,0.0,0.0,0.0,0.0,0.0,0.0,0.0,0.0,0.0,0.0,0.0,0.0,0.0,0.0,0.0,0.0,0.0,0.0,0.0,0.0,0.0,0.0,-6.7084,-7.3215,-7.6724,-8.1854,-8.5418,-8.6155,-8.8661,-9.0521,-9.1151,-9.491,-9.761,-9.8732,-9.9559,-10.1241,-10.3932,-10.406,-10.4937,-10.6683,-10.7822,-10.8354,-10.8354,-10.9493,-11.0024,-11.0024,-11.0024,-11.0024,-11.0024,-11.0024,-11.0024,-11.0024,-11.0024,-10.805,-10.4937,-10.433,-10.3115,-10.1596,-10.1596,-10.2355,-10.3266,-10.3266,-10.4405,-10.5848,-10.5848,-10.5848,-10.5924,-10.6532,-10.6683,-10.6683,-10.6683,-10.7443,-10.8354,-10.8354,-10.9189,-11.0024,-11.0024,-11.0024,-11.0176,-11.0784,-11.0857,-11.0701,-11.017,-10.8196,-10.5918,-10.364,-10.3716,-10.4475,-10.5614,-10.5756,-10.6349,-10.8083,-10.9669,-11.0277,-10.9274,-11.064,-11.1399,-11.0868,-10.9274,-10.8364,-10.8364,-10.607,-10.4477,-10.3938,-9.8879,-9.5606,-9.4421,-9.0522,-8.3083,-7.2042,0.0,0.0,0.0,0.0,0.0,0.0,0.0,0.0,0.0,0.0,0.0,0.0,0.0,0.0,0.0,0.0,0.0,0.0,0.0,0.0,0.0,0.0,0.0,0.0,0.0,0.0,-7.4947,-7.8778,0.0,-7.9598,-8.1433,-8.2135,-8.0921,-8.4484,-8.8129,-9.1473,-9.2516,-9.501,-9.9455,-10.0286,-10.1216,-10.2355,-10.395,-10.5089,-10.5696,-10.6759,-10.7595,-10.8202,-10.8202,-10.8202,-10.8202,-10.8202,-10.8202,-10.805,-10.6304,-10.3266,-9.9622,-9.7799,-9.6053,-9.4609,-9.5216,-9.6125,-9.7418,-9.9849,-10.0989,-10.152,-10.2128,-10.1899,-10.1215,-9.9925,-9.9622,-9.924,-9.7411,-9.9466,-10.2278,-10.2886,-10.5164,-10.744,-10.8044,-10.8198,-10.82,-10.8196,-10.8193,-10.735,-10.4457,-10.3014,-10.1344,-9.8303,-9.9821,-10.1724,-10.2711,-10.4895,-10.7226,-10.9578,-10.9806,-10.9578,-10.9199,-10.9123,-10.9123,-10.9123,-10.9123,-10.8364,-10.6694,-10.5384,-10.3722,-10.152,-9.7429,-9.4434,-9.2803,-8.8232,-8.0543,0.0,0.0,0.0,0.0,0.0,0.0,0.0,0.0,0.0,0.0,0.0,0.0,0.0,0.0,0.0,0.0,0.0,0.0,0.0,0.0,0.0,0.0,0.0,0.0,0.0,0.0,0.0,-7.9474,-7.9497,0.0,0.0,0.0,0.0,-6.9495,-7.0943,-7.4794,-8.1105,-8.3111,-8.7099,-9.388,-9.5895,-9.6964,-9.7344,-9.8862,-10.0533,-10.2203,-10.2203,-10.3115,-10.4709,-10.4709,-10.4709,-10.4709,-10.4709,-10.4709,-10.433,-9.9014,-9.5825,-9.3775,-8.8915,-8.5876,-8.4347,-8.601,-8.6689,-8.768,-9.4078,-9.5522,-9.4838,-9.6281,-9.5822,-9.3916,-9.0433,-8.9368,0.0,0.0,-8.6667,-9.2249,-9.4149,-9.8247,-10.2336,-10.4281,-10.4679,-10.4689,-10.4743,-10.4679,-10.3171,-9.783,-9.6753,-9.4173,-8.5895,0.0,-9.3035,-9.0151,-9.5236,-10.0616,-10.4038,-10.4721,-10.548,-10.6922,-10.7226,-10.7377,-10.7377,-10.7301,-10.6543,-10.4797,-10.1505,-9.9621,-9.9546,-9.444,-9.0834,-8.8991,-7.9424,0.0,0.0,0.0,0.0,0.0,0.0,0.0,0.0,0.0,0.0,0.0,0.0,0.0,0.0,0.0,0.0,0.0,0.0,0.0,0.0,0.0,0.0,0.0,0.0,0.0,0.0,-5.4706,-5.9206,-6.655,-6.6972,-6.5758,0.0,0.0,0.0,0.0,0.0,0.0,-7.2652,-7.2133,-7.5432,-8.3328,-8.5347,-8.8682,-9.3775,-9.5446,-9.7116,-9.8862,-9.8862,-9.9698,-10.1216,-10.1216,-10.1216,-10.1216,-10.1216,-10.1216,-10.0457,-9.0434,-8.5347,-8.3676,-8.1082,-7.7503,-7.386,-7.4311,-7.523,-7.6608,-7.8282,-8.2687,-8.7395,-8.656,-8.6852,-8.7134,-8.4881,0.0,0.0,0.0,0.0,-8.2518,-8.7969,-9.1319,-9.4578,-9.9948,-10.1187,-10.1197,-10.1245,-10.1245,-9.8589,-8.9854,-8.8102,-8.5902,-7.8769,-7.8996,0.0,-8.5598,-8.9848,-9.3718,-9.6981,-10.1838,-10.419,-10.2065,-10.4114,-10.5632,-10.5632,-10.4494,-10.2976,-10.1306,-9.8057,-9.5641,-9.4502,-8.8307,-8.3519,-8.0554,0.0,0.0,0.0,0.0,0.0,0.0,0.0,0.0,0.0,0.0,0.0,0.0,0.0,0.0,0.0,0.0,0.0,0.0,0.0,0.0,0.0,0.0,0.0,0.0,0.0,0.0,0.0,-4.684,-5.303,-6.0342,-5.9931,-5.8082,0.0,0.0,0.0,0.0,0.0,0.0,0.0,0.0,0.0,-7.2964,-7.5626,-7.919,-8.3751,-8.618,-8.8986,-9.2099,-9.3546,-9.4686,-9.5597,-9.6357,-9.628,-9.5518,-9.4002,-9.1725,-8.8536,-8.1929,-7.8205,-7.6226,0.0,0.0,0.0,0.0,-6.513,-6.6278,-6.8406,-7.3189,-7.7972,-7.5537,0.0,0.0,0.0,0.0,0.0,0.0,0.0,-7.5145,-7.9755,-8.599,-9.2055,-9.5774,-9.7229,-9.7538,-9.6836,-9.0917,-8.4011,-7.8389,-7.672,-7.4064,-6.7386,-6.9283,0.0,0.0,0.0,-8.6737,-9.0075,-9.5767,-9.9637,-9.9865,-10.161,-10.2748,-10.2748,-10.1914,-10.0016,-9.6905,-9.4806,-9.2382,-8.9317,-8.2684,-7.6842,0.0,0.0,0.0,0.0,0.0,0.0,0.0,0.0,0.0,0.0,0.0,0.0,0.0,0.0,0.0,0.0,0.0,0.0,0.0,0.0,0.0,0.0,0.0,0.0,0.0,0.0,0.0,0.0,0.0,-4.7782,-5.6964,0.0,0.0,0.0,0.0,0.0,0.0,0.0,0.0,0.0,0.0,0.0,0.0,0.0,-6.9016,-7.1141,-7.4322,-7.8263,-8.3035,-8.5723,-8.7169,-8.7397,-8.8914,-8.8756,-8.7152,-8.3745,0.0,-7.4563,-7.281,0.0,0.0,0.0,0.0,0.0,0.0,0.0,0.0,0.0,0.0,0.0,0.0,0.0,0.0,0.0,0.0,0.0,0.0,0.0,0.0,0.0,0.0,-8.9393,-9.0075,-9.1593,-9.2124,-8.9165,-7.7093,-6.6546,-6.5641,-6.4123,-6.086,0.0,0.0,0.0,0.0,0.0,0.0,-8.317,-8.9013,-9.4401,-9.8499,-9.9333,-9.9561,-9.9561,-9.9182,-9.6981,-9.2504,-9.0651,-8.7769,-8.348,-7.7219,0.0,0.0,0.0,0.0,0.0,0.0,0.0,0.0,0.0,0.0,0.0,0.0,0.0,0.0,0.0,0.0,0.0,0.0,0.0,0.0,0.0,0.0,0.0,0.0,0.0,0.0,0.0,0.0,0.0,0.0,0.0,0.0,0.0,0.0,0.0,0.0,0.0,0.0,0.0,0.0,0.0,0.0,0.0,0.0,0.0,0.0,0.0,0.0,0.0,0.0,-7.1751,-7.2132,-7.3499,-7.3801,-7.3721,-7.3253,-6.9919,-7.014,-7.2096,-6.1012,0.0,0.0,0.0,0.0,0.0,0.0,0.0,0.0,0.0,0.0,0.0,0.0,0.0,0.0,0.0,0.0,0.0,0.0,0.0,0.0,0.0,0.0,-7.285,-7.7099,-8.0362,-7.9749,-6.9776,0.0,0.0,0.0,0.0,0.0,0.0,0.0,0.0,0.0,0.0,0.0,-7.634,-8.7116,-9.4325,-9.387,-9.6222,-9.7816,-9.7816,-9.5387,-9.2883,-9.0607,-8.136,-7.5592,0.0,0.0,0.0,0.0,0.0,0.0,0.0,0.0,0.0,0.0,0.0,0.0,0.0,0.0,0.0,0.0,0.0,0.0,0.0,0.0,0.0,0.0,0.0,0.0,0.0,0.0,0.0,0.0,0.0,0.0,0.0,0.0,0.0,0.0,0.0,0.0,0.0,0.0,0.0,0.0,0.0,0.0,0.0,0.0,0.0,0.0,0.0,0.0,0.0,0.0,0.0,0.0,0.0,0.0,0.0,0.0,0.0,0.0,-6.3684,-5.9275,0.0,0.0,0.0,0.0,0.0,0.0,0.0,0.0,0.0,0.0,0.0,0.0,0.0,0.0,0.0,0.0,0.0,0.0,0.0,0.0,0.0,0.0,0.0,0.0,0.0,0.0,0.0,0.0,0.0,0.0,0.0,0.0,0.0,0.0,0.0,0.0,0.0,0.0,0.0,0.0,-6.9435,-8.2183,-9.1366,-9.2428,-9.3946,-9.4856,-9.4856,-9.2656,-8.8634,-8.2639,-7.6947,0.0,0.0,0.0,0.0,0.0,0.0,0.0,0.0,0.0,0.0,0.0,0.0,0.0,0.0,0.0,0.0,0.0,0.0,0.0,0.0,0.0,0.0,0.0,0.0,0.0,0.0,0.0,0.0,0.0,0.0,0.0,0.0,0.0,0.0,0.0,0.0,0.0,0.0,0.0,0.0,0.0,0.0,0.0,0.0,0.0,0.0,0.0,0.0,0.0,0.0,0.0,0.0,0.0,0.0,0.0,0.0,0.0,0.0,0.0,-5.8507,-5.0228,0.0,0.0,0.0,0.0,0.0,0.0,0.0,0.0,0.0,0.0,0.0,0.0,0.0,0.0,0.0,0.0,0.0,0.0,0.0,0.0,0.0,0.0,0.0,0.0,0.0,0.0,0.0,0.0,0.0,0.0,0.0,0.0,0.0,0.0,0.0,0.0,0.0,0.0,0.0,0.0,-6.4199,-7.8237,-8.8785,-9.0683,-9.1593,-9.1821,-9.1517,-8.9924,-8.4764,-7.5126,-7.2476,0.0,0.0,0.0,0.0,0.0,0.0,0.0,0.0,0.0,0.0,0.0,0.0,0.0,0.0,0.0,0.0,0.0,0.0,0.0,0.0,0.0,0.0,0.0,0.0,0.0,0.0,0.0,0.0,0.0,0.0,0.0,0.0,0.0,0.0,0.0,0.0,0.0,0.0,0.0,0.0,0.0,0.0,0.0,0.0,0.0,0.0,0.0,0.0,0.0,0.0,0.0,0.0,0.0,0.0,0.0,0.0,0.0,0.0,0.0,0.0,0.0,0.0,0.0,0.0,0.0,0.0,0.0,0.0,0.0,0.0,0.0,0.0,0.0,0.0,0.0,0.0,0.0,0.0,0.0,0.0,0.0,0.0,0.0,0.0,0.0,0.0,0.0,0.0,0.0,0.0,0.0,0.0,0.0,0.0,0.0,0.0,0.0,0.0,0.0,0.0,0.0,-6.2605,-7.8541,-8.871,-8.5902,-8.8406,-8.962,-8.8102,-8.6357,-8.1804,-7.3305,0.0,0.0,0.0,0.0,0.0,0.0,0.0,0.0,0.0,0.0,0.0,0.0,0.0,0.0,0.0,0.0,0.0,0.0,0.0,0.0,0.0,0.0,0.0,0.0,0.0,0.0,0.0,0.0,0.0,0.0,0.0,0.0,0.0,0.0,0.0,0.0,0.0,0.0,0.0,0.0,0.0,0.0,0.0,0.0,0.0,0.0,0.0,0.0,0.0,0.0,0.0,0.0,0.0,0.0,0.0,0.0,0.0,0.0,0.0,0.0,0.0,0.0,0.0,0.0,0.0,0.0,0.0,0.0,0.0,0.0,0.0,0.0,0.0,0.0,0.0,0.0,0.0,0.0,0.0,0.0,0.0,0.0,0.0,0.0,0.0,0.0,0.0,0.0,0.0,0.0,0.0,0.0,0.0,0.0,0.0,0.0,0.0,0.0,0.0,0.0,0.0,0.0,-6.0744,-7.6176,-8.6433,-8.5067,-8.5219,-8.5143,-8.4536,-8.2897,-7.7055,-6.5641,0.0,0.0,0.0,0.0,0.0,0.0,0.0,0.0,0.0,0.0,0.0,0.0,0.0,0.0,0.0,0.0,0.0,0.0,0.0,0.0,0.0,0.0,0.0,0.0,0.0,0.0,0.0,0.0,0.0,0.0,0.0,0.0,0.0,0.0,0.0,0.0,0.0,0.0,0.0,0.0,0.0,0.0,0.0,0.0,0.0,0.0,0.0,0.0,0.0,0.0,0.0,0.0,0.0,0.0,0.0,0.0,0.0,0.0,0.0,0.0,0.0,0.0,0.0,0.0,0.0,0.0,0.0,0.0,0.0,0.0,0.0,0.0,0.0,0.0,0.0,0.0,0.0,0.0,0.0,0.0,0.0,0.0,0.0,0.0,0.0,0.0,0.0,0.0,0.0,0.0,0.0,0.0,0.0,0.0,0.0,0.0,0.0,0.0,0.0,0.0,0.0,0.0,-5.9571,-7.4114,-8.4005,-8.3474,-8.2411,-8.1658,-8.1674,-7.8354,-7.1373,-5.9822,0.0,0.0,0.0,0.0,0.0,0.0,0.0,0.0,0.0,0.0,0.0,0.0,0.0,0.0,0.0,0.0,0.0,0.0,0.0,0.0,0.0,0.0,0.0,0.0,0.0,0.0,0.0,0.0,0.0,0.0,0.0,0.0,0.0,0.0,0.0,0.0,0.0,0.0,0.0,0.0,0.0,0.0,0.0,0.0,0.0,0.0,0.0,0.0,0.0,0.0,0.0,0.0,0.0,0.0,0.0,0.0,0.0,0.0,0.0,0.0,0.0,0.0,0.0,0.0,0.0,0.0,0.0,0.0,0.0,0.0,0.0,0.0,0.0,0.0,0.0,0.0,0.0,0.0,0.0,0.0,0.0,0.0,0.0,0.0,0.0,0.0,0.0,0.0,0.0,0.0,0.0,0.0,0.0,0.0,0.0,0.0,0.0,0.0,0.0,0.0,0.0,0.0,-5.9251,-7.3045,-8.1804,-8.0135,-7.9907,-7.9933,-7.9879,-7.236,-6.4692,0.0,0.0,0.0,0.0,0.0,0.0,0.0,0.0,0.0,0.0,0.0,0.0,0.0,0.0,0.0,0.0,0.0,0.0,0.0,0.0,0.0,0.0,0.0,0.0,0.0,0.0,0.0,0.0,0.0,0.0,0.0,0.0,0.0,0.0,0.0,0.0,0.0,0.0,0.0,0.0,0.0,0.0,0.0,0.0,0.0,0.0,0.0,0.0,0.0,0.0,0.0,0.0,0.0,0.0,0.0,0.0,0.0,0.0,0.0,0.0,0.0,0.0,0.0,0.0,0.0,0.0,0.0,0.0,0.0,0.0,0.0,0.0,0.0,0.0,0.0,0.0,0.0,0.0,0.0,0.0,0.0,0.0,0.0,0.0,0.0,0.0,0.0,0.0,0.0,0.0,0.0,0.0,0.0,0.0,0.0,0.0,0.0,0.0,0.0,0.0,0.0,0.0,0.0,-5.7085,-6.6257,-7.3742,-7.7706,-7.6183,-7.4823,-7.4847,-7.2358,-6.5983,-5.4733,0.0,0.0,0.0,0.0,0.0,0.0,0.0,0.0,0.0,0.0,0.0,0.0,0.0,0.0,0.0,0.0,0.0,0.0,0.0,0.0,0.0,0.0,0.0,0.0,0.0,0.0,0.0,0.0,0.0,0.0,0.0,0.0,0.0,0.0,0.0,0.0,0.0,0.0,0.0,0.0,0.0,0.0,0.0,0.0,0.0,0.0,0.0,0.0,0.0,0.0,0.0,0.0,0.0,0.0,0.0,0.0,0.0,0.0,0.0,0.0,0.0,0.0,0.0,0.0,0.0,0.0,0.0,0.0,0.0,0.0,0.0,0.0,0.0,0.0,0.0,0.0,0.0,0.0,0.0,0.0,0.0,0.0,0.0,0.0,0.0,0.0,0.0,0.0,0.0,0.0,0.0,0.0,0.0,0.0,0.0,0.0,0.0,0.0,0.0,0.0,0.0,0.0,0.0,-6.3891,-7.1073,-7.5873,-7.4038,-7.2686,-7.3328,-7.0458,-6.393,-5.3061,0.0,0.0,0.0,0.0,0.0,0.0,0.0,0.0,0.0,0.0,0.0,0.0,0.0,0.0,0.0,0.0,0.0,0.0,0.0,0.0,0.0,0.0,0.0,0.0,0.0,0.0,0.0,0.0,0.0,0.0,0.0,0.0,0.0,0.0,0.0,0.0,0.0,0.0,0.0,0.0,0.0,0.0,0.0,0.0,0.0,0.0,0.0,0.0,0.0,0.0,0.0,0.0,0.0,0.0,0.0,0.0,0.0,0.0,0.0,0.0,0.0,0.0,0.0,0.0,0.0,0.0,0.0,0.0,0.0,0.0,0.0,0.0,0.0,0.0,0.0,0.0,0.0,0.0,0.0,0.0,0.0,0.0,0.0,0.0,0.0,0.0,0.0,0.0,0.0,0.0,0.0,0.0,0.0,0.0,0.0,0.0,0.0,0.0,0.0,0.0,0.0,0.0,0.0,-6.4488,-7.2423,-7.441,-7.3113,-7.2762,-7.4408,-6.7417,-5.9825,-5.2544,-4.6315,0.0,0.0,0.0,0.0,0.0,0.0,0.0,0.0,0.0,0.0,0.0,0.0,0.0,0.0,0.0,0.0,0.0,0.0,0.0,0.0,0.0,0.0,0.0,0.0,0.0,0.0,0.0,0.0,0.0,0.0,0.0,0.0,0.0,0.0,0.0,0.0,0.0,0.0,0.0,0.0,0.0,0.0,0.0,0.0,0.0,0.0,0.0,0.0,0.0,0.0,0.0,0.0,0.0,0.0,0.0,0.0,0.0,0.0,0.0,0.0,0.0,0.0,0.0,0.0,0.0,0.0,0.0,0.0,0.0,0.0,0.0,0.0,0.0,0.0,0.0,0.0,0.0,0.0,0.0,0.0,0.0,0.0,0.0,0.0,0.0,0.0,0.0,0.0,0.0,0.0,0.0,0.0,0.0,0.0,0.0,0.0,0.0,0.0,0.0,0.0,0.0,0.0,-5.984,-6.6855,-7.2347,-7.1421,-7.0595,-7.1099,-6.9353,-6.3126,-5.1222,-4.9018,0.0,0.0,0.0,0.0,0.0,0.0,0.0,0.0,0.0,0.0,0.0,0.0,0.0,0.0,0.0,0.0,0.0,0.0,0.0,0.0,0.0,0.0,0.0,0.0,0.0,0.0,0.0,0.0,0.0,0.0,0.0,0.0,0.0,0.0,0.0,0.0,0.0,0.0,0.0,0.0,0.0,0.0,0.0,0.0,0.0,0.0,0.0,0.0,0.0,0.0,0.0,0.0,0.0,0.0,0.0,0.0,0.0,0.0,0.0,0.0,0.0,0.0,0.0,0.0,0.0,0.0,0.0,0.0,0.0,0.0,0.0,0.0,0.0,0.0,0.0,0.0,0.0,0.0,0.0,0.0,0.0,0.0,0.0,0.0,0.0,0.0,0.0,0.0,0.0,0.0,0.0,0.0,0.0,0.0,0.0,0.0,0.0,0.0,0.0,0.0,0.0,0.0,-5.2864,-6.037,-7.0123,-7.0333,-6.9802,-6.9913,-6.9913,-6.4226,-5.0792,-4.9964,0.0,0.0,0.0,0.0,0.0,0.0,0.0,0.0,0.0,0.0,0.0,0.0,0.0,0.0,0.0,0.0,0.0,0.0,0.0,0.0,0.0,0.0,0.0,0.0,0.0,0.0,0.0,0.0,0.0,0.0,0.0,0.0,0.0,0.0,0.0,0.0,0.0,0.0,0.0,0.0,0.0,0.0,0.0,0.0,0.0,0.0,0.0,0.0,0.0,0.0,0.0,0.0,0.0,0.0,0.0,0.0,0.0,0.0,0.0,0.0,0.0,0.0,0.0,0.0,0.0,0.0,0.0,0.0,0.0,0.0,0.0,0.0,0.0,0.0,0.0,0.0,0.0,0.0,0.0,0.0,0.0,0.0,0.0,0.0,0.0,0.0,0.0,0.0,0.0,0.0,0.0,0.0,0.0,0.0,0.0,0.0,0.0,0.0,0.0,0.0,0.0,0.0,0.0,-5.5088,-6.698,-6.9167,-6.9697,-6.9423,-6.9651,-6.4034,-5.0455,0.0,0.0,0.0,0.0,0.0,0.0,0.0,0.0,0.0,0.0,0.0,0.0,0.0,0.0,0.0,0.0,0.0,0.0,0.0,0.0,0.0,0.0,0.0,0.0,0.0,0.0,0.0,0.0,0.0,0.0,0.0,0.0,0.0,0.0,0.0,0.0,0.0,0.0,0.0,0.0,0.0,0.0,0.0,0.0,0.0,0.0,0.0,0.0,0.0,0.0,0.0,0.0,0.0,0.0,0.0,0.0,0.0,0.0,0.0,0.0,0.0,0.0,0.0,0.0,0.0,0.0,0.0,0.0,0.0,0.0,0.0,0.0,0.0,0.0,0.0,0.0,0.0,0.0,0.0,0.0,0.0,0.0,0.0,0.0,0.0,0.0,0.0,0.0,0.0,0.0,0.0,0.0,0.0,0.0,0.0,0.0,0.0,0.0,0.0,0.0,0.0,0.0,0.0,0.0,-5.5779,-6.0677,-6.6333,-6.9243,-6.7908,-6.9044,-6.3512,-4.8739,0.0,0.0,0.0,0.0,0.0,0.0,0.0,0.0,0.0,0.0,0.0,0.0,0.0,0.0]}]]]